GFSSGP_sfc_temp_000.txt.gz
Temp
71 71 71 71 59 53 46 53 57 56 58 61 64 62 60 60 57 49 66 69 71 68 68 74 77 78 78 78 77 77 77 76 76 75 75 75 75 75 75 75 75 76 76 77 77 78 78 78 78
71 74 71 64 52 45 48 54 56 60 62 62 63 60 59 58 64 64 64 70 72 71 66 69 77 77 78 77 77 77 77 76 76 75 75 75 75 74 75 75 75 75 76 77 78 78 78 78 78
75 76 65 56 48 46 48 56 60 61 64 63 60 65 63 60 65 66 69 71 70 67 66 68 76 77 78 77 77 77 77 76 76 75 75 75 75 74 74 74 75 75 76 78 78 78 78 78 78
73 69 64 54 50 54 56 60 60 60 62 64 64 60 64 69 68 71 72 70 67 67 66 69 76 77 77 77 77 77 77 76 76 76 76 75 75 74 73 73 74 74 75 77 77 78 78 78 78
70 63 53 48 52 57 59 62 62 62 60 61 63 60 59 68 71 70 68 70 67 63 64 67 75 76 77 77 77 77 76 76 76 77 76 75 74 74 73 73 74 74 75 76 77 77 78 77 77
63 60 50 48 53 59 62 63 63 62 62 60 60 60 60 67 67 65 65 64 65 64 62 64 72 75 76 76 76 76 76 75 75 76 76 74 73 74 74 74 74 74 75 75 77 76 76 76 76
61 56 50 50 53 56 62 63 61 62 60 61 64 58 59 62 63 64 63 63 63 63 63 62 62 66 70 72 73 73 72 72 72 73 74 74 73 73 72 72 73 73 74 74 75 76 75 75 75
64 59 49 53 53 55 63 61 60 64 62 67 68 58 55 61 63 63 62 61 60 62 62 61 59 60 60 60 68 70 69 69 70 70 71 71 72 72 73 72 73 73 74 74 75 75 74 74 74
65 54 49 53 53 58 58 58 62 67 65 65 65 63 65 64 64 61 58 60 59 63 59 58 58 58 59 60 62 64 65 66 67 65 66 66 61 62 66 69 72 72 73 73 74 74 74 74 74
62 52 56 62 61 61 60 62 65 64 62 60 61 64 65 64 61 59 56 55 56 59 59 57 57 57 57 62 57 57 58 59 59 60 59 60 60 60 63 66 71 72 73 73 73 73 73 73 68
61 59 62 68 68 65 63 60 65 61 57 61 60 62 62 60 58 58 57 55 55 58 59 58 57 57 56 56 56 55 57 60 60 60 58 60 61 60 60 61 63 63 66 64 68 69 67 67 67
60 67 67 68 68 64 64 66 64 62 64 67 65 63 61 58 57 57 57 56 57 57 58 59 58 56 55 55 55 55 58 60 60 59 59 58 59 59 58 58 60 61 62 62 63 63 65 66 66
63 66 67 68 65 66 67 65 63 63 66 66 65 63 59 57 58 57 58 57 57 56 57 57 57 56 56 55 56 56 58 59 60 57 58 58 57 57 58 58 59 60 61 62 62 64 65 65 66
69 67 66 64 60 62 65 62 63 65 65 64 63 60 58 58 58 57 57 55 57 57 57 57 57 57 56 55 56 56 56 56 59 56 57 58 57 57 58 59 59 59 61 62 62 63 64 65 66
66 61 66 65 63 62 65 61 61 65 64 61 60 59 59 58 59 59 58 57 56 56 57 57 58 58 56 55 55 56 57 57 56 57 58 59 59 58 60 59 59 60 60 62 62 64 64 66 66
62 58 53 61 65 66 65 55 64 65 62 59 59 59 58 58 59 59 59 57 57 56 57 57 60 58 57 56 56 57 57 57 58 58 58 59 60 60 59 59 59 60 62 61 62 63 64 64 65
58 53 54 59 65 62 60 58 62 61 62 58 57 57 57 57 57 57 59 59 57 57 57 58 57 57 57 57 57 58 58 58 59 59 60 61 62 62 60 60 61 62 62 62 63 63 64 63 64
51 52 55 55 61 60 57 58 61 61 61 58 56 56 56 56 57 59 59 60 58 58 57 57 57 57 57 57 57 58 58 59 59 59 60 61 62 61 62 61 62 62 62 62 62 63 64 64 64
59 55 54 58 63 59 58 58 64 60 58 56 54 54 53 55 58 58 59 59 59 58 58 57 57 57 56 57 56 56 56 57 58 59 61 62 62 61 62 62 62 63 62 63 63 63 63 62 64
55 52 51 57 60 57 57 56 58 58 59 59 55 53 53 54 56 58 58 57 58 58 58 58 58 58 57 55 56 56 57 59 59 60 61 61 62 62 62 63 62 62 62 63 63 63 62 62 64
55 51 52 53 55 56 52 50 54 58 56 57 55 56 54 54 54 56 57 56 57 58 57 59 58 57 56 57 57 58 59 59 60 60 60 61 63 62 62 62 62 62 63 62 62 62 63 61 62
50 59 58 55 50 43 53 38 50 53 54 55 54 53 54 54 55 56 56 55 56 59 59 58 58 58 58 57 58 57 57 57 59 60 60 61 62 63 63 62 62 62 62 61 62 62 63 63 60
56 60 57 54 48 44 46 38 47 49 52 54 52 54 54 54 55 56 56 58 57 60 58 58 59 58 58 59 59 59 58 58 59 59 60 60 62 63 63 63 63 63 62 62 62 62 62 63 61
63 56 51 46 43 35 46 43 43 48 54 55 53 55 55 54 55 56 57 57 57 58 59 57 59 58 58 59 60 59 58 57 57 58 58 59 61 62 63 63 62 62 62 63 62 62 62 62 62
56 47 37 33 33 34 46 43 47 56 59 59 57 55 55 56 54 55 55 55 56 58 59 58 58 58 58 59 59 60 58 58 59 59 59 59 60 61 61 62 62 62 62 63 63 62 62 62 61
51 49 39 32 32 39 46 41 50 58 60 60 59 58 57 55 56 54 55 55 57 58 58 58 58 58 58 58 59 59 59 59 58 59 60 59 60 60 61 62 62 62 63 63 63 62 62 61 61
51 47 52 43 40 38 42 48 55 57 57 56 54 55 54 55 53 54 55 55 56 57 58 58 58 57 58 58 58 59 59 60 59 58 60 59 60 62 61 62 61 61 62 63 62 62 61 62 63
59 59 46 40 34 32 39 42 44 54 56 55 52 51 54 54 53 54 55 55 56 57 57 58 58 58 58 58 58 59 59 60 59 58 58 61 61 62 60 59 60 60 60 61 61 60 61 61 62
51 47 46 46 42 35 30 38 51 55 58 57 54 54 55 56 56 56 56 56 57 57 56 58 58 58 57 57 58 58 59 59 59 58 58 59 60 61 60 60 60 60 60 60 59 59 61 61 60
58 52 50 42 40 41 39 42 56 56 57 58 57 56 55 57 58 57 57 56 56 56 56 57 57 58 57 57 58 58 59 59 59 59 58 59 59 60 60 62 60 60 59 60 61 60 61 60 60

GFSSGP_sfc_temp_003.txt.gz
Temp
78 80 82 82 72 72 67 68 71 71 72 76 77 74 74 74 69 67 80 81 81 82 82 81 78 78 78 78 78 78 77 77 77 76 76 76 76 76 76 76 76 76 77 77 78 78 78 78 78
81 79 83 80 70 66 69 69 70 75 76 75 75 74 73 72 76 77 80 83 84 85 81 81 78 78 78 78 78 77 77 77 77 76 76 76 76 76 75 76 76 76 77 77 78 78 78 78 78
82 84 81 74 69 66 66 70 75 75 76 76 75 76 75 72 75 78 84 84 84 83 83 80 77 77 78 78 77 77 77 77 77 77 76 76 76 76 75 75 76 76 77 78 78 79 79 78 78
84 84 78 71 65 69 70 76 74 75 76 76 76 73 75 79 78 82 83 82 82 83 81 79 76 77 77 77 76 77 77 77 77 76 76 76 76 76 75 74 75 75 76 77 78 78 79 79 78
85 81 71 67 66 70 73 75 75 76 76 76 75 73 72 78 80 80 80 81 81 81 80 80 74 76 76 77 77 76 76 76 76 76 77 76 76 75 74 75 74 75 75 76 77 78 77 78 78
79 78 68 65 67 70 75 77 76 77 78 73 73 71 73 79 79 77 78 78 79 79 77 78 75 74 75 76 77 76 75 74 74 74 75 76 76 74 74 74 75 75 75 75 76 77 76 77 76
76 74 67 66 67 69 74 76 74 77 76 75 76 70 74 76 75 76 76 77 77 77 77 77 76 74 72 71 72 72 72 71 71 72 72 74 75 75 73 75 75 74 74 75 75 75 76 75 75
80 76 65 67 68 68 75 74 75 76 77 76 78 72 72 75 74 76 78 78 78 78 78 76 73 75 73 73 69 70 70 69 70 71 71 71 72 74 73 73 72 73 74 75 75 74 75 74 74
78 70 66 67 67 72 75 74 74 77 75 74 76 74 74 74 76 77 76 76 78 77 76 73 74 72 71 72 71 68 67 67 67 68 67 69 73 74 74 73 72 72 74 74 74 74 74 73 74
76 69 69 75 76 75 77 76 77 74 71 72 72 72 72 74 75 75 74 75 74 75 75 73 71 70 70 71 69 69 68 69 68 69 68 69 70 70 69 70 71 72 73 73 74 74 74 73 77
74 70 77 77 79 79 76 73 77 74 69 76 74 72 72 73 72 73 74 73 73 74 75 74 70 68 68 69 70 70 69 64 64 65 65 67 67 67 68 70 73 71 72 73 74 74 74 75 77
71 75 77 79 77 74 72 76 73 74 79 77 77 76 73 71 71 72 72 73 74 73 72 72 70 68 68 69 70 69 65 66 67 65 67 64 63 65 63 67 70 70 70 72 73 73 73 74 76
72 76 76 76 75 74 74 74 75 73 78 75 74 72 72 71 71 70 71 72 72 71 72 71 69 68 67 67 68 68 67 67 67 65 66 61 63 63 65 67 68 70 73 72 73 72 73 74 75
78 76 75 74 73 73 73 71 72 76 74 72 72 72 71 70 71 70 69 70 70 70 71 70 69 68 68 67 66 66 65 66 64 62 68 67 67 66 66 68 66 67 72 73 71 71 72 73 75
76 71 72 73 74 74 75 70 70 77 74 72 71 70 69 70 70 70 71 70 70 71 70 69 69 69 67 67 67 66 66 66 67 68 68 68 67 67 67 68 70 71 71 70 71 73 72 73 72
71 70 65 71 71 72 73 64 77 76 71 70 69 68 68 68 70 71 71 70 70 70 69 69 69 70 68 67 67 68 67 66 66 68 69 68 68 68 67 69 68 71 71 71 73 74 74 74 73
67 63 64 66 72 70 71 66 76 72 70 70 68 67 68 67 69 70 70 70 70 70 69 69 69 70 68 68 68 68 68 67 66 68 69 69 69 69 69 70 71 70 69 72 73 73 74 71 68
62 62 63 63 70 69 68 67 74 74 69 68 67 67 67 67 68 70 70 70 70 70 69 69 69 68 67 69 69 70 69 68 68 68 67 68 69 68 69 67 65 66 70 72 72 71 73 71 68
69 65 63 66 72 68 68 68 71 74 68 68 66 66 66 66 70 70 70 70 70 70 70 69 69 68 68 70 69 64 67 65 68 66 62 63 67 67 68 67 69 69 65 68 70 72 70 67 68
66 63 63 67 69 67 67 66 71 71 70 70 68 66 66 66 67 68 69 69 70 69 69 70 70 69 68 69 68 63 67 65 64 65 65 65 64 67 68 68 69 69 67 67 69 70 69 67 68
64 63 62 63 65 67 64 63 67 74 68 68 69 70 68 67 67 68 68 69 71 70 70 70 70 69 68 67 69 68 67 66 66 63 61 61 62 63 67 68 68 67 68 66 68 69 69 63 66
60 68 67 63 61 56 65 52 63 70 68 67 68 66 67 67 68 69 69 69 70 71 70 70 70 69 70 68 70 66 66 63 64 64 65 65 63 64 64 64 63 63 66 67 67 70 66 64 62
65 68 66 64 61 58 59 54 63 63 66 71 72 67 67 68 68 68 69 71 72 72 72 71 70 70 69 69 69 69 67 67 67 67 65 67 65 69 68 64 67 64 63 64 67 66 64 66 65
72 65 61 59 59 51 60 58 61 65 68 73 73 69 66 68 69 70 71 71 71 72 71 71 71 69 70 70 69 68 67 68 67 66 66 64 63 67 69 69 67 65 66 65 67 69 69 67 67
68 62 53 49 50 50 56 55 62 71 73 73 74 70 67 68 68 69 68 69 70 71 71 71 71 70 69 70 70 69 67 67 62 61 61 62 63 63 64 65 64 63 65 66 65 64 68 67 65
64 64 54 42 47 53 55 53 63 72 72 70 71 70 67 67 69 69 70 70 71 71 71 71 70 71 70 70 70 70 69 72 68 68 61 63 63 63 63 64 64 64 63 67 69 70 70 69 66
61 59 67 58 54 53 58 61 68 71 70 69 67 64 63 66 68 69 70 70 71 71 71 71 71 71 71 70 70 70 70 69 69 66 64 67 65 65 67 63 65 69 69 66 64 67 67 63 62
67 69 56 58 46 44 54 54 59 68 72 69 64 63 63 66 69 70 71 70 71 72 71 71 72 72 71 70 71 71 69 70 70 70 70 69 69 68 66 62 61 65 68 64 64 65 67 64 70
63 61 60 61 58 50 47 55 69 69 70 69 68 67 65 67 69 70 72 72 72 73 72 71 71 71 71 71 71 70 70 70 70 69 70 70 70 69 67 66 63 63 65 63 63 65 68 69 69
70 65 64 56 52 57 56 57 72 70 71 70 68 67 68 69 71 72 72 72 72 71 72 71 71 72 72 72 71 70 70 70 70 69 70 71 71 72 71 70 69 67 65 64 62 66 69 70 70

GFSSGP_sfc_temp_006.txt.gz
Temp
80 90 95 90 79 81 77 78 84 82 81 86 87 84 82 84 79 74 89 91 91 92 93 88 78 79 79 78 78 78 78 78 78 77 77 77 77 77 77 76 76 77 77 77 78 78 78 79 79
94 91 92 92 77 74 79 82 80 84 85 87 85 84 82 79 86 88 90 91 92 93 90 91 79 78 78 78 77 77 78 78 77 77 77 77 77 76 76 76 76 77 77 77 78 78 79 78 79
93 94 88 85 80 74 76 81 83 85 87 86 84 86 84 82 84 88 92 91 92 92 92 90 79 78 78 78 77 77 77 77 78 77 77 77 77 76 76 76 76 77 77 77 78 77 79 78 79
92 92 91 78 76 79 79 84 86 85 86 88 88 80 84 88 87 90 91 92 91 93 93 86 76 77 77 77 77 77 77 77 77 77 77 77 77 76 75 76 75 76 76 77 77 78 77 79 78
94 91 80 76 77 80 85 87 86 84 87 87 85 81 81 86 88 90 90 90 90 92 91 91 76 76 77 77 78 77 77 77 76 76 77 77 76 76 76 75 75 76 76 76 76 77 77 77 78
87 88 76 74 77 81 85 88 86 86 88 86 82 82 84 89 88 88 90 90 91 89 87 87 80 75 74 74 74 74 73 74 74 73 73 74 75 75 75 74 75 75 75 76 76 76 76 75 77
83 82 76 78 77 78 82 88 85 86 86 86 87 79 84 85 88 87 88 88 88 88 87 86 85 83 74 74 72 72 72 72 71 71 72 73 73 74 75 75 74 75 75 75 75 75 75 75 75
88 84 77 78 76 77 85 85 88 86 85 87 87 80 81 87 86 87 89 89 88 88 88 86 85 86 83 82 76 71 71 70 69 70 71 70 71 72 74 73 73 75 74 74 75 75 75 75 75
91 78 75 77 77 81 88 84 89 88 86 84 86 85 86 86 87 87 87 87 89 88 87 86 85 83 81 80 80 73 73 71 70 70 70 71 76 77 78 75 74 73 74 74 74 75 74 74 74
83 77 77 84 86 84 88 86 88 82 82 81 82 84 83 85 86 86 85 86 84 84 85 85 80 78 78 80 78 77 76 73 70 71 69 71 73 75 76 74 73 72 72 73 73 74 74 75 78
84 76 84 86 88 89 87 87 89 83 82 85 84 87 83 84 84 85 86 84 82 83 84 84 78 77 77 79 79 79 73 74 73 70 71 69 70 74 74 78 78 77 75 77 77 79 80 80 79
78 84 85 87 89 86 83 87 83 84 87 88 89 88 86 83 83 84 83 83 83 82 81 80 79 76 75 77 78 75 71 75 72 76 71 72 74 73 69 71 77 76 78 75 75 80 79 76 79
81 84 86 88 87 87 85 83 83 85 89 88 88 86 84 84 84 83 82 82 81 80 80 79 78 76 74 73 76 73 73 76 75 74 72 74 73 67 71 72 72 75 77 75 74 78 77 75 78
86 85 85 87 87 85 82 82 80 87 87 85 84 84 84 84 83 81 79 79 78 79 78 78 77 76 76 74 73 72 74 75 77 74 74 73 70 67 69 73 68 69 74 77 79 79 76 77 80
85 78 82 83 85 82 83 77 77 88 84 82 81 83 84 82 83 80 80 77 78 80 77 77 76 77 75 74 75 74 75 73 75 76 75 74 73 70 69 71 74 76 75 75 77 76 77 77 80
79 80 73 83 82 81 79 68 79 87 80 80 82 82 81 80 81 81 79 78 79 78 75 77 78 77 76 75 75 75 74 73 70 71 74 75 74 73 71 69 70 72 74 75 79 80 79 80 78
77 69 73 76 83 80 78 74 82 87 83 81 82 81 80 79 78 78 79 79 78 77 75 76 76 77 76 75 77 75 74 74 71 69 69 73 74 75 72 71 72 73 74 74 77 79 78 77 78
69 70 73 71 79 78 77 76 81 85 84 80 81 81 79 78 77 79 78 79 78 77 76 76 77 76 75 78 77 74 71 71 69 66 64 70 71 74 73 72 72 73 74 73 73 76 79 79 79
77 72 71 76 80 75 75 76 79 83 84 83 81 79 78 77 80 79 78 78 78 76 75 76 75 76 75 77 77 73 70 69 68 66 64 63 71 73 71 74 73 74 73 73 73 74 75 75 77
74 71 71 76 78 75 74 74 79 82 83 84 82 79 78 78 78 77 77 77 77 76 75 76 76 76 75 77 75 74 72 74 66 63 63 66 68 72 70 71 72 74 73 72 73 73 74 73 74
73 70 70 69 75 76 73 70 76 80 83 84 82 83 81 78 76 75 75 76 78 76 75 76 76 76 75 75 74 71 71 73 68 65 65 64 66 70 71 73 74 74 76 74 73 75 74 72 69
68 76 73 71 68 63 73 59 71 77 79 82 82 80 80 79 78 77 76 75 77 78 78 77 77 75 77 76 76 72 68 71 70 68 68 65 70 66 67 71 73 74 77 71 71 73 74 74 66
71 78 74 72 68 67 68 63 70 77 74 79 83 83 81 80 78 77 77 77 79 79 78 79 77 77 76 76 74 76 73 69 71 72 68 70 69 70 70 69 71 70 69 70 72 71 73 75 64
79 73 71 71 69 57 67 66 68 75 75 79 83 83 81 79 79 79 78 79 79 80 79 78 77 76 77 77 75 73 67 68 64 65 67 69 68 68 69 69 67 71 71 71 72 73 72 71 71
75 68 58 55 56 55 67 63 68 77 81 82 82 84 80 79 79 78 77 78 78 78 78 78 77 76 77 77 76 75 73 70 65 64 63 65 64 68 66 66 69 69 71 71 72 72 72 71 69
71 69 61 48 52 59 66 59 71 80 83 82 82 82 80 78 79 78 78 78 79 78 78 78 77 77 77 78 76 76 75 77 67 71 66 65 66 63 66 65 70 70 73 70 73 72 69 69 67
71 65 75 64 66 59 65 69 76 81 81 80 79 77 76 77 77 78 79 79 79 78 78 78 77 78 78 77 76 76 76 75 74 72 73 71 66 67 71 69 67 71 70 69 72 70 70 68 65
76 78 62 65 51 49 61 62 67 73 76 77 76 76 75 77 78 79 79 78 80 79 79 78 79 78 78 78 77 77 76 77 77 76 73 73 72 68 68 70 70 72 73 72 70 69 72 69 67
71 69 69 69 67 55 53 62 77 75 78 78 80 78 76 77 79 80 80 80 80 80 80 78 79 78 78 78 77 76 77 77 77 77 77 75 71 74 69 63 63 64 69 71 71 70 66 65 65
77 71 69 62 58 64 63 64 81 80 81 81 81 79 80 80 81 82 81 80 80 79 80 78 78 80 79 79 78 76 77 77 76 77 77 77 75 74 74 68 64 63 63 67 69 71 70 71 67

GFSSGP_sfc_temp_009.txt.gz
Temp
82 94 100 95 81 84 80 84 90 87 87 92 92 89 87 89 83 75 94 97 96 96 96 89 79 79 79 79 79 78 78 78 78 78 78 77 77 77 77 77 77 77 77 78 78 78 79 79 79
99 98 97 90 79 75 77 88 85 89 92 92 91 90 88 84 92 92 95 96 97 96 94 94 78 78 79 79 78 78 78 78 78 78 78 77 77 77 77 77 77 77 77 78 78 78 78 79 79
97 99 90 86 82 77 77 87 89 91 92 91 89 92 89 85 90 93 96 95 96 95 96 92 79 78 79 79 78 78 78 78 78 78 78 77 77 77 76 76 76 76 77 78 78 78 78 79 79
97 96 92 80 78 82 83 88 91 91 92 93 92 86 91 94 91 95 97 96 96 98 98 84 79 77 78 78 78 78 78 78 78 78 77 77 77 76 76 75 76 76 77 77 78 78 78 77 79
98 94 82 79 81 87 88 92 92 88 91 91 91 85 86 92 95 96 95 95 94 96 96 94 78 77 77 77 78 77 76 76 76 76 76 76 76 76 76 76 76 76 76 77 77 76 76 76 77
89 92 78 77 80 83 90 92 91 90 92 92 88 87 88 95 92 94 95 94 95 93 91 91 80 78 75 74 73 73 74 74 74 74 74 74 74 74 75 76 76 75 75 76 76 76 76 76 76
85 84 79 81 81 83 86 93 89 90 91 90 94 83 90 92 95 94 94 93 93 92 91 90 89 85 77 76 74 73 72 72 72 72 72 72 73 73 74 74 75 75 75 75 76 76 76 75 76
91 87 80 82 81 80 90 90 94 90 88 95 93 83 85 92 94 94 95 95 93 93 93 90 89 90 86 85 77 75 72 72 71 71 71 72 72 72 72 73 74 74 74 75 75 75 75 75 75
97 80 77 81 81 84 92 88 94 96 91 92 92 90 92 94 94 93 92 93 94 93 92 91 90 86 84 84 84 76 75 74 74 74 73 72 73 77 78 76 75 75 73 75 73 75 75 75 74
87 79 80 89 89 86 89 90 92 90 89 88 88 91 90 92 92 91 90 90 90 90 90 90 86 82 81 84 83 82 81 78 76 75 72 73 74 75 76 73 73 73 73 74 74 73 74 75 81
88 79 86 88 90 91 88 89 94 88 85 90 87 91 90 91 90 90 92 91 88 88 89 88 83 81 80 82 82 81 81 75 73 72 70 70 71 75 73 74 78 76 73 76 76 77 78 80 81
83 87 88 88 91 90 87 92 88 89 89 94 93 93 93 90 89 89 90 89 88 86 85 85 83 80 79 80 81 82 79 76 76 72 72 71 72 71 70 73 74 74 77 76 73 77 80 80 78
84 85 88 91 92 91 91 87 87 88 93 94 93 92 91 90 89 89 89 88 86 84 84 83 81 79 78 76 75 76 72 73 78 78 77 74 72 70 72 72 69 75 75 72 70 78 78 79 78
88 88 88 91 90 91 86 87 86 89 92 89 90 90 90 87 89 88 85 84 83 83 82 82 81 79 79 74 73 71 73 72 72 80 77 74 74 72 72 69 71 72 70 69 73 77 78 77 76
90 82 86 87 88 87 90 81 82 90 91 89 87 86 88 90 90 87 85 82 82 83 82 80 80 80 78 74 76 74 74 73 76 74 76 77 75 71 71 71 70 69 72 73 75 71 79 76 75
83 83 75 86 88 88 84 73 87 92 89 86 87 89 89 89 88 87 86 83 82 81 80 80 82 80 80 78 78 76 75 74 72 74 70 72 75 74 71 72 71 70 71 69 72 79 78 77 74
79 71 75 79 89 85 82 76 86 91 89 86 87 88 88 87 85 85 85 83 82 81 79 78 79 79 78 78 79 76 75 72 70 67 65 70 73 75 72 70 72 73 70 72 75 76 77 74 72
72 74 77 76 84 83 80 79 86 89 88 86 88 88 88 85 84 85 83 83 82 81 80 78 80 79 77 78 70 77 73 73 71 71 67 71 72 74 74 72 72 73 72 74 72 71 71 76 72
80 77 76 81 85 81 79 78 82 87 88 87 87 88 86 85 87 85 83 82 81 80 79 78 77 78 77 77 75 73 71 76 75 71 68 70 72 74 74 71 72 72 71 72 73 74 74 69 72
79 76 75 80 84 81 78 76 82 85 86 88 87 88 86 85 84 82 81 80 79 79 79 78 78 78 77 79 76 76 73 74 75 72 71 72 74 72 72 73 75 75 73 71 73 72 67 66 72
77 74 74 74 80 82 77 73 78 85 87 88 89 88 88 85 82 80 79 79 80 79 78 79 78 77 77 77 78 76 75 74 70 71 73 70 72 74 73 74 76 76 76 72 71 74 75 72 72
72 81 78 75 72 65 79 63 74 80 82 85 87 87 87 85 84 81 80 79 79 80 81 80 79 78 78 77 78 73 70 67 70 70 70 68 73 72 73 73 75 76 77 73 74 73 74 74 70
76 83 79 76 71 70 71 66 72 81 78 81 86 88 87 86 83 81 81 80 81 81 80 80 79 78 78 77 76 74 71 70 69 68 69 69 69 71 73 72 74 74 74 74 74 73 73 74 75
84 79 77 76 72 60 68 68 70 76 78 81 86 88 86 86 84 83 83 82 81 82 81 80 79 77 78 79 77 75 72 70 68 65 67 70 67 67 72 72 71 73 73 73 72 74 72 72 71
80 72 61 56 58 57 73 68 71 80 83 84 84 87 87 86 84 82 80 81 80 80 80 80 79 77 78 78 77 77 75 72 69 68 67 66 67 63 69 71 70 70 71 73 74 72 71 72 69
75 72 63 50 56 63 72 62 73 83 86 86 87 87 86 84 83 82 81 81 81 80 80 81 79 78 79 78 77 77 77 75 74 70 67 64 69 69 71 71 72 72 74 73 72 70 71 72 69
75 68 77 67 69 65 69 74 79 83 83 85 85 83 82 82 81 82 82 82 82 80 79 80 80 79 79 78 77 77 77 76 72 73 70 70 72 68 72 72 72 73 73 72 72 69 72 71 70
79 81 66 69 54 52 64 67 71 75 79 82 82 81 80 82 82 82 83 81 82 82 80 80 80 79 80 79 79 79 78 78 77 77 75 73 69 73 68 72 67 69 72 72 71 70 69 67 66
75 73 73 72 69 59 56 65 80 79 81 81 83 83 81 82 83 83 83 83 83 83 83 80 80 80 79 79 79 78 79 78 78 77 76 72 72 69 73 74 74 71 68 70 70 68 69 67 65
80 75 74 64 60 68 67 68 84 83 84 84 85 84 84 84 85 85 85 83 83 82 82 80 80 81 81 80 79 78 79 78 77 77 76 75 74 69 66 71 73 72 73 68 71 71 69 66 65

GFSSGP_sfc_temp_012.txt.gz
Temp
79 86 91 92 75 78 75 77 87 86 85 91 93 88 85 88 81 71 92 95 96 91 85 82 78 79 79 78 78 78 78 78 78 77 78 77 77 77 77 77 77 77 77 78 78 78 78 79 79
94 95 93 87 72 69 74 83 82 87 90 93 92 90 87 82 91 92 90 95 97 93 84 85 78 78 78 78 78 78 78 78 78 77 77 77 77 77 77 77 77 77 77 77 78 78 78 78 79
89 98 86 80 76 71 73 84 87 91 93 90 89 93 89 82 90 92 94 95 96 93 90 81 78 78 78 79 78 78 78 78 78 78 78 78 77 77 76 76 76 77 77 77 78 79 78 78 78
92 92 88 75 75 83 83 87 90 89 93 94 92 85 90 94 92 95 96 97 96 96 91 80 79 78 78 78 78 78 78 78 78 78 77 77 77 77 76 76 76 76 77 77 78 78 78 78 77
94 89 77 75 78 82 86 90 91 88 90 92 91 84 83 91 96 95 95 95 93 93 89 82 78 78 77 77 77 77 75 74 75 75 76 76 76 75 76 75 76 76 76 77 77 77 77 76 76
84 88 73 72 79 84 88 91 91 89 91 92 89 87 84 93 93 94 95 93 95 90 87 85 79 78 77 76 75 74 74 73 74 74 74 74 74 74 74 75 75 76 77 76 76 77 76 76 75
81 80 75 77 78 82 85 93 88 88 88 88 92 82 87 89 94 94 94 92 92 91 88 85 84 79 77 76 76 74 73 73 73 72 72 72 72 73 73 74 74 75 76 75 75 76 76 75 75
87 83 75 78 77 79 89 90 93 90 87 96 94 82 82 89 93 93 93 93 91 90 90 87 83 87 83 79 76 75 73 73 73 72 72 71 72 72 73 73 73 74 75 75 74 75 75 75 75
94 76 72 76 79 82 91 88 94 97 90 92 93 91 92 93 93 91 89 92 93 92 89 87 86 82 80 81 82 75 75 75 73 74 74 73 70 71 73 74 74 75 75 74 73 75 75 74 75
84 76 76 86 87 85 89 88 89 88 88 88 90 93 92 92 91 89 88 87 88 89 87 85 79 78 79 81 78 78 78 77 75 73 72 70 70 69 72 73 74 74 74 74 74 74 74 74 72
85 77 84 86 89 90 88 88 91 87 83 89 86 90 89 89 88 88 90 91 84 84 85 83 80 80 77 76 76 75 75 74 72 71 71 69 69 69 70 69 71 69 72 69 71 72 71 72 72
80 86 87 88 90 88 86 90 86 88 88 94 93 93 91 87 86 84 86 86 85 84 84 83 81 77 77 77 76 75 75 73 72 71 71 68 68 67 68 67 68 67 67 67 68 71 71 70 72
82 85 89 90 89 88 91 87 86 87 93 95 95 93 90 89 86 87 87 87 84 83 81 81 79 78 77 75 73 73 72 73 72 70 69 69 68 66 67 68 66 66 68 67 66 69 68 70 72
86 86 87 88 87 89 86 86 87 89 93 91 91 90 90 89 88 85 85 83 83 82 81 81 80 79 78 75 73 71 71 71 71 71 67 72 69 66 67 66 65 66 66 68 66 70 66 68 72
86 79 84 86 87 85 89 81 82 90 91 89 89 89 89 90 90 86 83 81 82 82 81 80 78 79 77 75 73 71 72 70 68 68 69 71 69 67 68 66 65 65 65 67 67 67 67 67 70
78 79 72 82 86 87 86 71 84 90 89 86 88 89 89 87 89 88 85 80 80 81 81 80 81 78 77 75 74 72 72 69 69 69 67 69 69 70 68 66 66 66 66 67 66 65 66 68 67
75 67 71 76 87 86 84 75 84 90 88 86 87 88 89 88 87 84 85 81 80 80 80 79 79 77 76 75 69 72 72 70 69 69 66 66 69 71 68 65 68 67 65 65 66 67 65 66 66
66 69 73 72 81 85 80 78 84 87 87 86 86 87 87 87 83 83 82 82 79 79 78 78 77 77 75 74 71 71 70 70 70 68 68 68 68 71 69 66 66 68 65 64 65 65 67 68 69
75 74 73 79 85 79 77 78 82 86 86 85 86 86 86 85 85 83 81 80 78 78 77 76 77 77 75 73 68 70 68 68 70 68 69 68 69 70 69 67 64 67 66 65 66 66 66 65 66
74 72 72 79 84 81 79 77 82 84 84 85 85 85 86 84 82 81 78 78 76 75 76 77 77 77 75 70 70 71 71 71 70 69 70 70 67 69 70 67 66 67 67 67 67 67 64 65 65
73 71 72 73 80 82 78 73 77 83 86 88 89 88 88 82 80 78 77 76 76 76 75 76 77 77 76 74 71 70 70 68 66 67 65 66 70 70 69 69 67 66 68 67 65 66 66 63 63
68 79 78 76 72 64 78 60 73 79 80 85 86 86 85 83 82 79 77 75 75 76 77 77 77 77 76 75 71 69 66 65 66 64 66 65 69 71 70 70 70 68 68 66 67 66 63 64 62
74 82 78 77 71 69 69 63 69 78 76 81 84 87 85 83 81 79 78 77 78 78 76 76 76 77 77 75 73 69 67 67 67 66 66 65 64 68 71 69 70 69 67 67 68 66 65 63 63
84 79 78 76 71 59 67 65 66 72 77 81 85 86 84 84 83 81 80 79 78 78 77 76 75 76 78 76 75 70 67 66 66 65 66 65 65 66 69 70 69 70 68 69 69 68 67 66 66
80 72 60 55 56 55 70 66 68 78 83 83 84 86 84 84 82 79 78 77 77 76 76 77 75 74 77 75 75 72 69 69 66 65 65 66 64 65 66 68 68 69 69 69 69 68 67 66 66
76 71 62 49 52 58 71 61 70 83 86 87 87 86 85 83 81 79 79 78 78 77 76 77 76 74 76 76 75 74 69 68 68 67 66 66 64 65 67 68 66 68 70 69 68 66 67 67 66
75 68 77 65 68 62 66 71 79 82 82 84 85 83 80 81 79 79 79 78 78 76 75 77 76 76 77 75 75 75 72 69 68 68 68 69 67 67 67 67 68 69 69 68 68 66 66 66 66
78 81 65 67 52 50 62 66 68 73 77 81 80 80 80 80 80 80 80 78 78 77 76 77 77 76 77 76 76 76 75 72 72 71 69 67 67 67 65 65 67 68 68 68 68 67 67 66 64
74 72 72 70 67 56 53 62 75 76 80 78 79 81 79 79 80 80 80 80 80 79 78 76 77 77 75 76 76 76 74 75 72 69 69 67 66 68 68 66 66 68 68 67 67 66 66 65 64
79 74 73 63 59 66 65 63 82 81 83 83 81 81 81 81 82 82 81 80 80 78 78 77 77 77 77 77 75 76 74 74 71 69 70 68 64 69 69 70 68 68 66 67 66 67 66 64 63

GFSSGP_sfc_temp_015.txt.gz
Temp
73 75 76 76 61 60 57 68 76 77 74 78 83 80 74 76 73 59 77 84 82 78 76 78 78 78 78 78 78 78 77 77 77 77 77 77 77 77 77 77 77 76 77 77 78 78 78 78 79
78 83 78 72 58 51 58 73 75 75 80 83 83 81 76 73 82 80 79 85 83 78 74 76 78 78 78 78 78 77 77 77 77 77 77 77 77 77 77 77 77 77 77 77 77 78 78 78 78
82 88 70 64 58 55 62 73 80 83 82 82 78 85 80 75 83 80 82 85 81 78 76 76 78 78 78 78 77 77 77 77 77 78 77 77 77 77 77 76 76 77 77 78 77 78 78 78 78
80 77 74 60 58 69 71 77 81 79 83 84 83 76 82 85 84 84 86 88 83 80 80 78 78 78 78 78 77 77 77 76 77 78 77 77 77 77 76 76 76 76 77 77 77 77 78 78 77
78 72 61 59 64 73 76 82 83 78 81 82 83 74 74 82 86 85 86 87 80 74 73 75 77 77 77 78 77 77 76 75 75 75 76 76 76 76 76 76 76 76 76 77 77 77 77 76 76
69 71 56 57 66 78 79 78 80 81 82 80 79 75 73 82 84 83 84 83 80 75 73 74 78 77 77 77 77 75 75 74 74 74 74 74 74 74 75 75 75 76 76 76 77 76 76 75 75
65 61 58 63 68 73 79 80 78 81 80 77 83 74 72 80 83 82 81 80 80 79 76 72 72 76 77 76 75 75 74 74 74 73 73 73 73 73 73 74 74 75 75 75 76 76 75 75 75
73 65 62 67 66 69 80 83 84 82 81 89 88 75 68 77 82 81 80 79 78 79 76 73 69 69 69 69 76 75 75 74 74 73 72 72 72 72 72 72 73 74 74 75 75 75 74 75 74
81 63 61 65 68 73 82 78 85 89 82 84 86 83 82 82 82 79 75 73 73 78 73 72 71 69 70 71 72 75 75 75 74 73 74 70 64 64 68 71 74 73 74 74 74 74 73 74 74
73 62 67 76 77 75 78 78 81 82 82 81 82 83 85 84 79 76 73 75 75 75 71 69 69 69 70 75 68 66 68 66 65 66 65 63 63 62 68 70 74 74 74 74 74 73 73 74 66
75 67 75 78 82 82 80 78 84 81 75 79 78 78 80 79 76 75 76 73 73 73 71 69 69 69 68 67 66 65 65 64 64 65 64 62 63 61 62 62 64 63 70 64 68 67 67 67 65
71 77 79 81 84 82 77 81 81 81 80 86 84 82 80 77 75 75 76 72 72 72 70 69 68 68 67 66 65 64 63 64 63 63 64 61 61 61 61 61 62 61 62 62 62 62 65 65 66
74 77 82 84 83 79 81 79 80 81 85 87 87 84 77 75 75 74 75 73 71 69 69 68 69 67 67 66 64 64 63 63 63 63 63 62 61 61 61 61 61 60 61 62 61 63 63 65 65
78 78 79 82 80 79 78 80 81 82 86 85 85 80 80 78 75 73 73 71 69 70 69 69 69 67 67 65 64 64 63 64 63 62 63 65 64 60 60 60 61 60 60 61 62 63 62 62 64
78 71 76 78 79 77 82 74 76 81 84 81 80 80 80 79 77 75 73 70 70 69 70 69 69 68 66 65 65 64 64 64 63 62 64 65 65 62 61 60 61 60 60 61 62 62 62 62 64
69 69 63 73 77 80 76 66 77 81 79 77 80 80 79 77 77 73 72 69 69 69 68 70 73 67 66 65 65 64 64 63 63 63 62 65 66 64 61 61 61 61 60 60 61 61 62 64 63
64 56 60 67 78 78 75 69 78 81 80 75 76 76 78 76 72 72 73 70 69 69 68 67 68 67 66 66 64 64 65 63 63 63 62 62 65 65 62 61 61 61 60 60 61 60 62 60 61
55 57 64 64 73 76 73 72 76 78 78 76 74 75 76 74 72 72 71 71 68 68 68 68 67 66 66 64 64 63 63 63 63 63 61 62 62 65 63 62 62 61 59 59 60 60 61 61 60
66 63 63 69 76 74 70 72 74 76 76 74 73 72 73 72 70 71 71 70 68 67 66 67 65 65 64 62 62 61 61 62 63 64 64 63 63 64 62 61 61 62 59 59 60 60 61 60 60
66 63 62 69 76 72 70 69 72 75 74 74 74 72 69 68 69 70 68 67 66 66 66 66 67 65 65 63 63 63 63 63 63 63 65 65 65 63 63 62 61 61 60 62 60 60 58 58 61
65 62 63 63 71 73 67 61 66 74 75 77 77 74 70 69 67 68 68 65 65 65 65 66 65 66 66 65 63 62 62 62 61 62 63 62 66 65 64 63 61 61 61 60 60 60 60 58 60
59 71 70 68 64 53 66 48 60 67 69 73 77 70 69 70 69 69 67 64 65 65 67 66 66 66 67 65 63 62 60 59 60 62 63 62 64 65 65 64 63 61 60 60 61 61 60 59 58
64 73 70 69 63 58 59 50 56 65 65 69 71 72 69 70 69 67 66 67 67 67 65 66 66 66 66 66 64 61 60 60 61 60 60 60 61 63 66 64 63 61 60 61 62 61 60 60 61
75 70 68 67 64 46 56 54 56 59 66 69 72 72 71 69 68 68 69 68 67 66 66 65 65 65 67 66 64 62 61 61 60 59 59 60 62 62 64 65 63 62 62 62 62 61 60 58 60
71 62 49 41 44 41 60 55 57 66 71 73 68 69 69 70 69 67 67 66 65 64 64 65 65 64 66 66 64 63 62 61 60 59 59 59 60 61 62 62 62 62 62 64 63 61 62 61 61
66 63 50 38 39 47 61 52 60 72 76 74 75 72 71 68 69 67 67 66 66 65 65 66 64 64 65 65 64 63 63 61 61 60 60 60 60 61 63 63 63 63 64 64 63 62 62 62 62
65 59 66 53 52 47 54 61 66 71 71 72 71 70 66 67 67 67 67 65 65 64 65 65 64 65 65 65 65 62 63 63 62 62 62 61 62 63 63 64 63 63 63 63 62 62 62 62 62
70 70 56 49 41 37 50 54 54 65 67 69 67 66 65 65 66 67 68 65 65 65 65 65 65 65 65 66 65 65 64 64 63 62 62 62 62 62 62 64 63 63 63 64 64 63 62 63 62
65 63 58 56 51 41 40 47 63 65 67 67 66 67 66 67 67 67 66 66 66 65 65 65 66 65 65 65 65 64 65 65 64 62 64 61 62 63 64 64 63 63 64 64 63 62 62 62 61
71 62 58 54 46 51 49 50 72 66 68 69 68 70 66 67 66 68 67 66 66 64 65 65 65 65 65 66 66 64 65 64 64 62 63 63 62 63 64 65 64 64 63 62 62 62 62 61 60

GFSSGP_sfc_temp_018.txt.gz
Temp
71 73 74 74 61 57 53 61 70 73 71 76 77 76 73 72 71 61 72 79 79 77 75 77 78 78 78 78 78 77 77 77 77 77 77 77 77 77 77 76 76 76 76 77 77 78 78 78 78
73 78 75 68 55 48 53 66 69 73 76 77 77 74 73 70 77 76 74 78 80 76 74 76 78 78 78 78 77 77 77 77 77 77 77 77 77 77 77 77 77 77 77 77 77 77 78 78 78
80 83 67 60 53 50 55 68 73 78 80 78 75 78 76 73 78 78 77 78 78 75 75 75 78 78 78 78 77 77 77 77 77 77 77 77 77 77 77 77 77 77 77 78 78 77 78 78 78
78 72 68 57 55 62 66 74 76 76 80 78 78 72 77 81 81 81 80 80 77 75 76 76 77 77 78 78 77 77 77 77 77 77 77 77 77 77 76 76 76 76 77 77 77 77 77 78 78
74 66 55 54 58 66 72 77 77 75 77 75 76 71 71 78 82 81 80 80 75 73 74 76 77 77 78 78 77 77 77 76 76 76 77 77 77 76 76 76 76 76 77 77 77 77 76 77 76
65 64 52 52 60 69 72 75 76 77 78 74 73 72 71 79 80 79 78 74 75 74 72 74 77 77 77 77 77 76 76 75 75 75 75 75 75 75 75 75 75 76 76 76 77 77 76 75 75
62 57 52 57 62 67 71 79 77 75 76 75 76 68 70 74 79 78 76 76 75 75 73 72 74 76 77 77 76 75 75 74 75 75 74 74 74 74 73 74 74 74 75 75 75 76 76 74 75
67 61 55 59 61 63 72 77 78 75 79 85 82 67 67 76 78 76 75 74 73 73 73 68 66 68 68 70 76 75 75 75 74 74 74 73 72 73 73 72 72 73 74 75 75 75 75 74 74
73 56 54 58 62 67 76 68 82 84 80 81 81 76 79 80 76 73 71 70 69 72 67 67 67 66 67 67 71 75 76 76 75 73 73 71 65 64 66 68 72 73 74 74 74 74 74 73 74
65 55 62 70 71 69 75 71 77 77 77 77 75 78 80 80 77 74 71 71 67 67 66 66 65 66 67 72 65 66 67 65 65 65 64 62 61 61 65 69 72 73 74 73 73 74 73 73 66
67 62 71 72 76 77 76 77 79 76 72 77 74 75 76 75 72 72 72 69 68 67 67 65 65 65 65 65 63 61 61 61 62 63 63 61 62 60 60 60 62 61 68 64 67 67 67 66 64
61 71 74 75 79 78 76 80 77 78 78 81 79 79 75 73 72 71 70 68 68 67 66 65 65 65 63 63 63 62 62 61 61 62 62 60 59 59 59 60 60 60 60 61 62 62 63 64 64
67 71 75 78 78 78 81 76 77 78 83 82 81 78 75 74 73 71 70 69 66 65 64 64 65 64 64 64 62 61 62 62 62 61 62 61 60 59 60 60 59 59 59 60 60 61 62 62 63
71 72 73 76 76 77 75 77 75 80 82 80 77 75 76 73 73 68 68 67 67 66 64 64 65 64 64 62 62 61 62 62 62 61 61 63 60 60 60 59 59 59 59 59 60 61 60 60 62
71 64 69 72 75 75 75 70 71 78 79 77 76 76 74 75 73 71 72 69 68 67 65 65 64 64 63 62 62 61 62 63 61 61 62 63 62 60 60 59 59 59 59 59 60 60 60 60 61
62 59 54 69 72 76 70 63 73 78 76 73 76 76 76 73 73 74 71 68 65 65 65 66 70 64 63 62 62 62 62 61 62 61 61 63 63 62 60 59 59 60 59 58 59 59 59 59 62
55 52 55 61 71 72 68 65 73 78 78 75 73 73 74 74 70 67 69 68 65 65 64 64 65 64 64 63 62 62 62 62 62 62 62 62 63 63 60 59 60 60 58 58 59 58 59 61 61
52 51 57 59 68 68 65 65 73 77 74 74 72 72 71 71 69 68 66 67 64 63 64 64 63 63 63 61 62 61 61 62 62 62 61 63 61 63 60 60 60 59 58 57 58 58 59 60 60
60 57 56 64 71 66 64 66 72 75 69 71 70 70 70 68 65 66 67 66 64 63 63 63 63 61 61 61 60 60 60 60 61 61 63 63 61 62 60 60 60 59 58 58 58 58 59 58 58
60 57 57 65 70 64 65 65 72 72 69 70 71 69 64 61 64 66 64 63 63 62 63 62 63 62 62 61 60 61 61 61 61 61 63 65 62 62 61 60 59 59 58 58 58 59 57 57 58
60 58 58 59 66 66 63 60 64 71 70 72 72 70 65 64 63 64 64 62 61 61 62 63 62 63 63 63 61 60 60 60 60 60 62 62 64 64 62 62 60 59 58 59 58 58 59 56 58
55 66 65 63 58 49 62 45 56 64 67 69 72 65 62 65 66 65 63 59 61 62 63 63 63 62 64 63 61 59 57 57 58 58 60 60 62 64 63 62 60 60 59 58 58 59 58 58 57
60 67 64 63 58 54 58 48 54 61 63 67 69 63 63 66 65 63 63 64 63 63 61 62 62 63 63 63 61 59 58 58 59 58 59 59 61 63 64 62 61 60 59 59 60 59 58 59 59
69 63 61 59 55 44 56 51 56 57 64 66 66 64 63 62 62 62 65 64 62 62 61 61 62 63 63 62 61 60 58 58 58 57 58 58 60 61 62 62 60 61 60 60 59 59 58 59 59
63 53 41 37 41 42 57 51 58 61 66 69 66 63 62 63 62 63 62 62 60 60 60 61 62 62 62 62 62 61 59 60 58 58 58 58 58 59 60 60 60 59 61 60 60 59 59 59 60
59 56 44 36 36 43 56 48 59 68 71 71 68 66 66 62 63 64 63 62 63 62 61 62 62 62 62 61 61 61 61 59 59 59 59 58 59 60 61 61 61 62 62 61 60 59 59 60 59
58 53 62 49 47 44 49 56 63 64 64 65 64 65 62 61 62 63 62 62 61 60 61 61 61 61 62 62 61 61 61 61 61 60 60 59 61 62 62 62 61 62 62 61 60 60 60 61 60
64 64 51 44 40 35 45 49 51 58 61 63 62 61 59 60 61 63 63 62 61 62 61 61 62 61 62 62 61 62 62 62 62 62 60 60 61 61 61 61 61 61 61 61 62 62 62 62 61
56 58 54 54 48 40 38 47 57 63 62 62 64 63 61 61 63 64 63 63 61 61 60 61 61 62 61 62 61 61 61 62 62 61 60 61 61 61 62 61 61 61 61 61 60 62 61 61 61
65 57 59 50 45 47 46 47 63 60 65 67 63 65 63 64 64 64 63 61 60 60 60 61 61 62 62 62 62 61 61 62 61 61 60 60 61 62 62 62 62 62 62 61 60 61 62 61 60

GFSSGP_sfc_temp_021.txt.gz
Temp
71 71 70 71 59 55 51 58 66 68 68 71 74 73 71 71 69 61 72 76 77 77 74 77 78 78 78 78 78 77 77 77 77 77 77 77 77 77 77 76 76 76 76 77 77 77 77 78 77
72 76 73 66 53 46 51 62 65 71 74 72 74 71 70 68 74 72 74 76 76 74 73 75 78 78 78 78 77 77 77 77 77 77 77 77 77 77 77 77 77 76 77 77 77 77 77 77 78
75 79 67 59 50 48 52 64 68 75 78 74 70 74 72 71 75 74 76 76 75 74 74 74 78 77 78 78 77 77 77 77 77 77 77 77 77 77 77 77 77 77 77 77 78 78 77 77 78
75 70 66 56 52 57 61 69 72 73 78 76 75 70 75 78 76 78 77 77 75 74 75 75 77 77 78 78 77 77 77 77 77 77 77 77 77 77 76 76 77 77 77 78 78 78 77 77 77
73 65 54 50 55 60 68 71 72 72 73 72 73 70 70 77 79 77 76 78 74 70 71 74 77 77 77 78 77 77 77 77 77 77 77 77 77 76 76 76 76 76 77 77 77 77 77 76 77
63 61 50 49 58 65 69 72 71 72 73 71 70 70 70 75 76 74 75 72 74 72 70 71 77 77 77 77 77 77 76 76 76 76 76 76 76 75 75 75 76 76 76 76 77 77 76 76 75
60 55 51 54 60 62 68 70 70 71 71 74 75 68 69 73 75 74 73 71 72 72 71 70 73 75 77 77 77 76 75 75 75 75 75 75 75 75 74 74 74 75 75 75 75 75 75 75 74
65 59 52 56 57 61 70 72 69 70 75 77 77 68 67 73 74 71 70 69 67 68 70 67 67 69 69 70 76 76 75 75 75 75 75 74 74 74 73 73 72 73 75 75 75 75 75 74 74
68 53 51 56 58 63 69 67 74 80 76 77 77 74 77 77 72 69 66 65 64 68 64 63 64 66 66 67 70 75 76 76 75 74 74 72 65 64 67 68 71 72 73 74 74 74 74 74 74
63 52 57 68 66 65 68 66 72 73 74 74 75 77 75 77 73 70 67 66 65 64 64 63 64 63 64 70 65 65 66 65 65 65 64 63 62 61 64 66 71 72 73 73 73 73 74 73 66
61 60 68 70 72 70 69 72 78 72 70 75 74 75 72 73 71 71 71 70 71 66 64 63 63 63 64 64 61 61 61 60 61 63 62 61 61 59 60 59 60 60 65 62 65 65 65 65 63
58 66 71 72 75 72 70 75 74 76 76 82 78 77 73 71 70 71 71 69 65 64 64 63 63 63 62 62 60 60 59 59 60 61 61 59 58 58 58 58 59 59 59 60 60 61 62 63 63
60 66 71 72 73 73 75 72 73 75 81 83 79 74 72 72 72 73 74 69 64 64 65 63 62 62 62 61 60 59 59 60 61 60 60 59 59 58 59 59 59 58 58 58 59 60 61 62 61
66 66 67 70 71 73 70 71 72 77 80 77 74 71 72 72 72 69 65 65 63 65 64 63 62 62 61 60 60 59 59 60 60 60 60 61 59 59 59 60 58 58 58 58 59 59 59 60 60
66 61 66 67 70 70 73 66 69 76 76 73 72 72 72 72 72 70 72 67 67 66 64 63 62 62 61 60 60 59 60 61 60 60 61 61 60 59 59 58 58 58 58 58 58 59 59 58 60
58 55 51 65 70 72 67 58 71 77 71 71 72 72 72 71 71 74 68 66 63 63 63 62 67 62 60 60 60 60 61 60 60 61 61 62 62 61 59 58 57 59 58 57 57 57 57 58 58
50 50 52 59 67 66 64 60 69 72 71 70 73 72 71 73 68 67 66 63 63 64 62 62 62 61 61 60 59 60 61 60 61 60 60 61 62 62 59 58 58 59 58 57 57 57 57 57 59
48 47 52 55 63 63 61 60 68 72 71 72 72 69 70 72 69 65 63 63 62 62 62 61 61 61 60 59 60 59 59 60 61 60 60 62 62 62 59 59 59 59 57 56 57 57 58 59 60
57 53 52 58 65 61 59 60 65 70 68 69 69 66 68 65 64 62 63 65 62 61 60 60 60 59 59 59 59 58 59 59 59 60 61 63 62 61 59 59 59 58 57 56 57 57 58 59 58
56 52 53 61 65 61 59 59 65 67 69 67 69 68 63 60 59 62 62 64 64 61 60 60 61 59 60 59 59 59 59 59 59 59 61 62 63 62 60 59 59 58 56 56 57 57 56 58 59
55 53 54 55 60 62 58 56 60 68 66 69 68 68 64 63 58 60 62 62 60 59 60 60 60 60 61 61 59 59 58 59 59 58 59 60 62 63 61 60 59 57 57 56 56 57 57 57 56
51 61 61 58 53 44 57 42 54 60 64 66 69 66 65 60 60 62 62 57 60 60 60 60 60 61 61 61 59 58 56 56 57 57 58 59 62 63 62 61 59 58 57 57 57 58 58 57 56
57 64 59 58 51 47 53 45 51 56 59 63 66 66 60 59 61 60 60 61 60 60 59 60 60 61 61 61 59 57 56 56 57 57 58 58 60 61 62 60 59 58 57 57 58 57 58 57 57
65 58 54 53 49 41 52 47 47 54 60 64 65 61 59 58 58 58 60 60 59 59 59 59 60 60 60 60 59 58 57 57 55 56 56 57 58 59 60 61 59 59 58 57 58 58 58 58 58
58 47 36 32 35 37 53 47 54 58 63 66 67 61 58 58 58 60 61 59 58 58 58 59 59 59 60 60 59 59 58 57 56 56 56 57 57 57 58 59 59 58 58 59 58 57 57 58 58
55 53 39 31 33 40 52 45 53 64 68 67 68 61 59 57 59 61 60 60 60 59 58 60 59 59 59 60 60 59 59 57 57 59 58 57 57 58 59 59 60 60 60 59 58 57 57 58 58
53 48 57 45 43 40 45 52 61 62 63 62 59 59 57 58 58 60 60 59 59 58 58 59 59 59 59 60 59 59 60 59 60 59 58 59 59 61 60 60 60 60 60 59 58 57 58 58 58
56 59 46 42 34 34 43 46 50 57 59 58 57 56 57 56 57 60 59 58 60 59 58 58 59 60 60 60 59 61 60 60 60 60 60 59 59 59 59 59 59 59 59 59 59 60 61 61 61
51 51 48 50 45 36 35 43 55 60 59 59 58 57 57 57 59 61 60 60 60 58 57 58 58 59 59 59 59 60 60 60 59 59 59 59 59 60 60 59 59 59 59 60 61 60 62 61 61
61 54 53 47 39 46 43 47 61 61 61 63 61 60 57 59 61 61 60 58 57 57 57 57 58 59 60 60 59 59 60 60 58 59 59 59 59 60 60 60 60 60 59 61 61 61 58 59 60

GFSSGP_sfc_temp_024.txt.gz
Temp
72 70 69 70 58 53 49 56 62 65 65 70 73 71 68 70 65 59 70 74 75 75 72 77 78 78 78 78 78 77 77 77 77 77 77 77 77 76 76 76 76 76 76 77 77 77 77 77 78
70 73 71 65 53 45 50 59 62 67 71 70 70 70 70 70 75 73 72 74 76 74 72 75 78 78 78 78 77 77 77 77 77 77 77 77 77 77 77 77 77 77 77 77 77 77 77 77 77
74 77 66 58 49 47 51 61 65 71 74 74 69 72 72 70 74 74 76 75 73 73 73 74 78 77 78 78 77 77 77 77 77 77 77 77 77 77 77 77 77 77 78 78 78 78 78 77 77
73 71 66 56 50 57 58 65 65 69 74 72 72 70 73 79 76 77 77 75 73 73 74 75 77 77 78 78 77 77 77 77 77 77 77 77 77 76 76 76 77 77 77 78 78 78 78 77 77
70 64 55 51 54 58 64 68 66 68 69 70 69 70 69 76 77 76 74 75 73 70 71 73 77 77 77 78 77 77 77 77 77 77 77 77 77 76 76 76 76 77 77 77 77 78 77 77 77
62 61 51 48 55 61 65 68 68 68 69 69 68 67 70 72 74 73 73 72 73 70 68 70 77 77 77 77 77 77 76 76 76 76 77 77 77 76 76 76 76 76 76 77 77 77 76 76 75
59 55 50 53 58 61 65 68 66 66 67 70 70 66 70 71 75 71 71 70 70 69 68 68 72 75 77 77 77 76 76 76 75 75 75 76 76 76 75 75 75 75 75 75 75 75 75 75 75
63 58 50 56 57 59 67 67 67 67 72 74 75 68 69 72 72 69 68 67 67 66 67 67 69 72 71 72 77 76 76 75 75 75 75 75 75 75 74 74 73 73 74 74 76 75 75 75 74
65 52 49 56 57 60 65 63 70 75 73 73 77 74 75 71 69 68 64 65 63 66 65 65 66 67 68 68 71 75 77 76 75 75 75 73 67 66 69 70 72 72 73 73 74 74 74 74 74
61 50 55 65 63 63 63 63 68 70 71 72 73 77 74 71 69 68 66 67 63 64 62 63 64 65 65 69 66 66 67 66 66 66 65 66 65 64 66 68 71 72 72 73 73 73 73 74 69
60 58 65 66 69 64 65 67 70 68 66 73 71 78 72 69 67 69 70 70 71 69 64 63 63 63 63 64 62 62 62 62 63 63 63 63 63 62 63 62 63 63 66 64 65 65 67 68 67
54 64 69 69 70 65 67 69 69 72 72 78 79 77 72 68 67 69 68 69 66 63 65 62 62 61 61 61 61 61 61 61 61 61 62 61 60 60 60 60 60 61 61 61 62 62 64 65 66
58 64 66 67 67 69 72 68 69 70 77 79 77 74 71 68 71 71 72 70 66 63 62 62 61 60 61 61 60 60 60 61 61 61 61 60 59 59 60 60 60 60 60 60 61 62 63 63 64
61 62 64 65 66 69 67 68 65 72 78 76 76 72 70 68 70 68 66 67 64 65 61 60 61 61 61 60 60 59 59 60 61 60 61 62 60 59 59 60 60 60 60 60 60 61 62 62 63
61 55 61 64 66 65 71 60 64 75 74 71 72 73 71 69 69 68 72 70 67 61 61 62 61 61 61 61 60 59 59 60 60 60 62 62 61 60 60 59 59 59 60 60 60 61 61 61 62
54 53 49 62 66 66 65 54 67 73 69 69 70 71 69 69 68 72 74 66 60 61 62 61 66 61 61 60 60 59 60 60 60 61 61 62 62 61 60 59 59 60 60 60 59 59 60 60 61
49 48 51 56 68 64 61 57 68 69 68 68 70 70 71 69 66 70 66 61 61 62 61 61 61 61 60 60 59 59 61 60 60 61 61 62 63 63 60 59 60 60 59 59 59 59 60 59 60
44 46 49 53 62 58 56 55 65 69 66 65 66 67 67 66 68 66 61 60 62 62 62 60 60 60 60 59 59 59 60 60 61 61 61 63 63 63 60 60 60 60 59 58 58 59 60 61 61
56 53 51 58 63 57 55 56 62 67 64 64 66 68 68 64 63 61 60 61 62 62 61 60 59 59 58 58 59 59 60 60 60 61 62 63 63 63 60 59 60 60 59 58 59 59 60 60 60
55 52 51 60 62 57 56 55 61 65 65 64 67 68 64 62 60 58 57 60 63 62 60 59 60 58 59 59 59 60 59 60 60 60 61 63 63 62 61 59 60 60 58 58 58 59 58 59 60
54 52 54 55 56 57 54 53 57 64 64 65 66 66 64 62 59 56 58 58 59 59 59 59 59 59 60 61 59 59 59 59 59 59 60 61 63 63 63 61 60 59 58 57 58 59 60 58 59
49 59 59 56 49 41 53 38 53 59 61 63 67 63 64 60 56 57 57 56 59 59 59 59 59 60 61 60 60 59 57 56 57 58 59 59 62 63 63 61 61 59 58 58 58 59 60 60 58
54 63 58 55 47 43 47 41 48 54 57 61 65 66 63 57 56 56 58 59 60 59 59 59 60 60 60 60 59 58 57 57 58 58 59 59 61 63 63 61 60 59 58 59 59 59 60 60 59
63 58 53 48 44 36 46 45 47 50 59 61 64 63 57 55 55 56 59 59 58 58 58 59 59 59 60 60 60 59 58 58 57 58 58 58 60 61 62 61 60 60 59 59 60 60 60 60 61
56 47 34 31 32 33 50 44 51 56 60 64 65 63 56 54 55 57 59 58 57 57 57 59 59 59 60 60 60 59 59 59 59 58 58 58 59 59 60 60 60 60 60 60 60 60 60 61 61
53 48 37 30 31 39 51 41 49 61 68 65 65 62 55 53 56 59 59 58 59 58 58 59 59 59 59 60 60 60 60 59 59 60 59 59 59 59 60 61 61 61 61 60 60 60 60 61 61
49 46 50 41 41 37 41 48 57 61 62 63 59 56 53 53 54 57 57 58 57 57 58 59 58 59 59 60 60 60 61 61 60 60 61 60 61 61 61 61 61 61 61 60 60 59 60 60 60
56 57 43 40 32 30 40 44 48 56 62 59 56 54 52 52 55 58 58 57 58 58 58 58 59 59 60 60 60 61 62 62 61 61 60 60 61 61 61 61 61 61 61 60 60 60 61 61 60
47 48 44 47 39 33 33 41 53 59 61 59 56 55 52 54 57 59 58 58 58 57 57 58 58 59 60 59 60 61 61 61 60 60 60 61 61 61 61 61 61 60 60 61 62 62 63 62 61
59 50 48 45 39 40 40 42 58 59 60 58 59 56 54 55 57 59 58 57 56 57 57 57 58 59 60 60 60 61 61 61 60 60 60 61 61 61 61 61 61 61 61 62 62 61 61 62 61

GFSSGP_sfc_temp_030.txt.gz
Temp
79 89 95 91 79 77 75 80 87 84 85 92 93 90 89 93 87 81 97 100 99 98 94 85 78 78 79 78 78 78 78 77 78 78 78 77 77 77 77 77 77 77 77 77 78 78 78 78 78
93 91 92 92 76 74 78 84 81 86 89 93 93 92 90 87 98 98 99 99 100 98 92 90 78 78 79 78 78 78 77 77 78 78 78 77 77 77 77 77 77 77 77 78 78 78 78 78 78
93 93 88 84 80 76 80 85 87 89 92 91 90 94 92 90 96 99 102 99 99 97 94 90 78 78 79 78 78 77 77 77 78 78 78 78 78 78 77 77 77 77 78 79 79 79 79 78 78
91 91 90 77 77 82 83 88 88 89 92 93 92 88 95 100 97 101 100 99 99 99 97 89 78 78 78 78 78 77 77 77 78 78 78 78 78 77 77 77 77 77 78 78 79 79 79 78 78
93 92 79 76 79 84 87 90 91 88 89 91 92 88 90 98 99 99 99 99 99 100 99 96 78 78 78 78 78 77 77 77 77 78 78 78 77 77 77 77 77 77 78 77 78 78 78 77 78
85 89 76 75 80 84 88 92 91 90 92 91 89 89 92 99 99 101 100 99 102 99 96 96 80 77 77 78 78 77 77 77 77 77 77 77 77 77 77 77 77 77 77 77 77 77 77 76 76
82 81 77 80 79 81 86 93 90 90 89 89 93 86 94 98 99 99 99 100 100 99 96 94 91 82 77 77 77 77 77 76 76 76 76 76 77 77 77 77 77 76 76 76 76 76 76 75 75
87 84 77 80 78 79 87 89 92 90 88 95 93 86 88 98 98 99 100 102 100 99 98 94 91 91 87 86 77 77 77 76 76 76 76 76 76 77 76 75 75 75 75 75 75 75 75 75 75
91 77 74 78 79 82 89 87 90 92 89 93 95 93 97 99 99 99 97 99 100 98 97 96 95 93 90 90 87 78 77 77 76 77 76 77 84 85 84 80 77 75 74 74 74 74 74 74 74
81 77 77 87 88 86 90 87 90 85 86 88 93 97 99 98 98 96 96 97 96 96 96 97 92 91 91 93 89 85 87 87 86 85 84 84 84 84 83 80 75 74 74 74 73 74 74 75 82
83 76 86 86 90 90 87 86 93 86 82 88 90 93 96 96 96 96 97 99 98 100 98 96 89 89 89 91 90 89 89 88 87 84 83 83 84 84 84 84 82 80 78 81 81 81 82 82 81
77 84 85 87 90 88 84 89 86 87 87 93 94 95 95 94 95 97 98 99 100 98 97 95 91 85 85 91 89 89 89 87 86 86 81 80 82 81 80 82 81 78 82 80 80 81 80 79 80
80 82 85 87 86 87 87 84 83 86 90 94 95 93 93 94 94 96 98 100 98 95 97 94 90 84 84 84 88 87 86 86 86 85 83 82 82 80 81 80 80 77 80 79 79 80 79 79 80
84 84 84 85 85 85 82 83 86 87 89 91 92 92 94 94 94 95 95 95 95 94 94 93 87 83 84 83 83 83 83 86 84 85 84 80 81 80 81 78 77 78 78 81 75 79 79 80 80
83 76 81 81 83 82 85 77 79 88 90 89 90 91 92 93 95 93 95 93 95 94 92 89 84 83 81 81 81 83 85 84 85 84 81 80 79 79 77 77 77 75 77 76 75 76 77 78 79
75 76 69 80 82 82 81 69 84 91 90 88 88 89 90 92 94 94 95 95 94 92 88 85 86 84 81 81 82 84 85 84 84 84 83 79 78 77 76 74 72 71 74 74 74 75 76 76 75
72 65 68 73 84 81 78 73 85 90 88 84 86 88 89 90 92 94 95 95 92 90 86 81 83 83 80 80 83 83 81 82 84 83 83 81 79 78 75 73 69 73 73 72 73 76 76 71 70
64 66 69 70 79 77 75 75 83 87 86 84 86 87 87 88 90 94 93 90 89 84 81 81 82 81 80 81 81 83 83 83 83 83 82 80 79 78 74 72 72 70 71 71 72 73 72 71 67
72 70 69 73 80 76 74 76 81 85 84 84 85 85 86 88 93 93 85 83 82 81 79 79 79 77 80 81 81 81 81 82 82 82 80 79 79 76 72 70 71 71 70 72 74 69 68 67 68
69 67 68 75 79 76 73 73 80 83 83 84 84 85 86 88 91 92 81 79 79 78 78 78 77 77 79 82 82 83 83 84 84 84 79 79 78 74 72 70 70 73 71 73 72 69 67 66 68
66 65 66 67 74 76 72 68 72 80 84 86 86 87 88 89 89 87 79 78 79 77 77 77 77 77 80 80 80 79 79 80 80 80 80 78 77 76 74 72 72 71 75 72 69 69 68 65 68
62 71 69 67 65 59 72 58 69 76 78 81 84 86 88 90 90 84 80 78 78 78 79 79 78 77 78 78 79 77 80 79 82 80 82 78 77 76 74 72 71 73 73 68 70 72 70 69 68
67 74 70 68 64 63 65 60 67 75 72 77 83 85 89 90 87 82 81 79 80 79 79 79 78 78 77 78 79 78 77 80 81 81 74 75 73 72 75 75 75 73 69 70 72 72 70 71 68
74 70 69 68 65 53 61 60 62 69 73 78 84 86 89 85 82 81 81 80 79 81 80 78 77 76 77 78 77 76 75 75 78 77 73 73 72 70 75 76 74 73 72 73 74 74 73 71 71
70 63 54 50 51 50 65 61 62 73 79 80 83 85 86 83 81 79 78 79 79 79 79 79 77 76 77 77 77 76 75 74 73 74 73 72 70 70 74 75 74 73 74 75 75 74 72 67 72
65 64 58 46 49 56 65 56 66 76 81 83 85 87 86 83 81 80 80 79 80 79 79 79 78 77 77 78 77 77 76 80 77 76 76 77 70 74 75 75 74 75 76 76 75 72 72 72 71
65 60 72 63 64 59 65 67 72 75 78 82 83 85 82 81 79 79 80 80 80 79 78 78 78 78 78 78 77 77 77 75 77 75 76 72 74 75 75 75 75 76 76 76 75 72 73 73 72
70 73 59 63 49 48 59 61 61 72 77 80 81 83 84 80 79 80 80 79 81 80 79 79 80 78 79 79 78 79 77 78 78 76 75 73 74 76 75 75 75 76 76 75 74 73 75 73 73
67 64 66 66 63 53 53 60 72 73 79 80 83 85 81 79 80 80 81 81 82 81 81 79 79 79 78 79 79 78 78 79 78 76 77 74 74 76 77 77 75 76 75 75 73 74 75 72 72
71 67 66 58 54 63 64 62 75 79 80 83 86 83 81 81 81 82 82 81 81 81 80 79 79 80 80 80 79 78 78 79 77 75 75 74 74 77 78 78 76 76 76 75 75 75 75 73 72

GFSSGP_sfc_temp_033.txt.gz
Temp
77 85 91 91 79 84 80 84 94 88 89 96 97 94 93 96 90 83 104 106 107 103 92 84 78 79 79 78 78 78 78 78 78 78 78 78 78 78 78 78 78 78 78 78 78 78 78 78 78
97 95 95 89 77 75 81 91 87 92 95 98 98 96 94 90 102 102 103 105 107 103 93 89 78 78 79 78 78 78 78 78 78 78 78 78 78 78 78 78 77 78 78 78 78 79 79 78 78
93 99 89 85 81 78 77 85 90 94 96 96 94 98 96 92 100 103 106 105 106 102 97 91 78 78 78 78 78 78 78 78 78 78 78 78 78 78 78 78 78 78 78 79 79 79 79 79 78
95 94 91 80 80 88 88 92 94 92 97 98 98 92 100 103 100 105 106 106 106 104 101 88 78 78 78 78 78 78 78 78 78 78 78 78 78 78 78 78 78 78 78 79 79 79 79 79 78
97 93 81 80 82 89 93 96 96 92 94 95 96 91 94 101 104 104 104 105 104 105 103 96 78 78 78 78 78 78 78 77 77 78 78 78 78 78 77 77 77 77 78 78 78 77 78 78 76
86 90 78 77 83 91 93 96 96 94 96 97 92 93 96 104 104 105 105 104 106 104 102 99 80 78 78 78 78 78 77 77 77 77 78 78 78 77 77 77 77 77 78 77 77 77 76 76 76
84 85 79 81 82 86 90 99 94 94 95 93 98 88 98 102 103 103 104 105 105 105 102 100 90 83 78 78 78 77 77 77 77 77 77 77 77 77 77 77 77 77 77 76 76 76 76 76 76
89 86 80 83 80 81 94 93 98 94 93 101 98 88 91 100 103 105 107 107 106 105 105 100 96 92 87 86 78 77 77 76 76 76 76 76 77 77 77 76 76 77 76 76 75 75 75 75 75
95 79 76 79 81 85 96 91 99 99 94 96 99 98 101 105 106 104 104 106 106 105 104 102 101 96 91 90 87 78 77 77 77 77 76 77 83 85 84 80 79 76 75 75 75 74 74 74 74
82 78 79 89 90 87 94 93 95 93 91 92 94 101 104 104 102 101 101 102 103 104 104 103 98 96 94 95 91 85 86 85 85 85 85 84 84 86 86 81 77 76 75 75 74 74 74 75 81
86 77 86 89 93 94 92 93 97 91 87 93 92 96 100 100 100 99 101 103 104 105 106 104 96 94 94 94 94 90 89 88 87 86 85 86 86 86 87 86 81 78 77 78 78 76 77 80 82
81 87 87 90 93 92 90 92 91 92 92 98 97 98 99 97 98 100 100 101 103 104 104 103 99 91 90 95 94 92 91 90 89 88 85 82 83 82 82 84 85 79 80 78 78 77 79 78 81
83 86 89 91 91 92 93 89 89 90 95 98 98 97 96 97 99 100 101 102 102 101 103 102 98 90 87 87 93 91 90 91 90 88 87 84 84 83 84 83 81 79 82 82 79 76 76 77 75
88 88 88 90 90 91 87 87 89 90 95 95 95 95 97 98 99 99 99 98 98 99 100 99 98 89 87 86 87 88 88 90 88 88 87 84 83 82 83 81 77 77 79 80 75 71 71 75 80
87 81 85 86 88 87 90 81 83 92 95 93 93 95 97 97 99 98 99 97 97 98 98 96 96 90 85 85 86 87 88 88 88 87 85 85 81 81 79 81 80 80 76 75 75 76 75 77 80
79 80 72 83 86 87 86 73 85 93 92 91 93 94 95 95 98 99 99 98 97 97 96 95 97 90 85 84 86 86 88 86 88 87 87 83 81 80 79 77 79 79 75 74 71 70 74 73 72
75 67 70 75 87 85 82 76 86 92 91 88 91 93 93 94 96 96 98 98 97 96 94 92 91 88 85 84 85 84 85 86 87 87 86 84 82 81 78 77 76 74 71 71 69 68 72 67 73
65 67 71 71 81 82 80 79 87 90 89 87 90 91 91 92 93 97 97 98 95 94 92 89 86 85 84 85 83 86 85 85 87 86 86 84 83 79 80 78 74 72 70 70 68 69 73 75 72
74 73 71 76 83 78 77 79 84 86 87 87 89 90 89 90 95 98 98 91 89 88 85 83 82 83 83 82 83 83 83 83 85 86 85 83 81 80 76 76 72 72 70 71 70 71 71 69 70
72 70 70 77 82 79 78 77 83 86 85 87 88 89 90 91 94 95 94 87 85 83 82 81 81 80 81 83 84 86 85 87 86 87 85 83 81 77 76 73 71 72 70 70 69 71 68 67 69
71 68 69 70 77 80 77 73 76 84 87 88 88 90 91 91 91 93 90 85 84 82 81 80 80 78 81 84 84 83 83 83 82 83 82 81 78 77 75 75 72 71 72 72 70 71 68 66 69
65 76 74 71 69 63 77 61 72 79 81 84 86 89 90 91 93 95 89 84 82 82 82 81 79 79 82 81 81 79 81 81 83 83 84 82 79 77 77 73 74 73 74 72 73 71 70 68 66
70 78 75 73 68 67 68 64 70 78 76 80 85 88 89 92 94 94 88 85 85 83 81 80 79 79 79 80 81 80 79 83 83 83 79 78 76 76 76 75 75 73 72 73 70 71 69 71 68
79 74 74 73 69 58 65 65 66 72 76 80 85 88 90 93 94 92 88 85 83 84 82 80 79 78 79 80 80 78 78 79 79 79 78 75 72 72 75 76 74 74 73 71 73 72 72 71 70
75 68 57 55 56 56 69 65 68 76 81 82 83 87 91 94 90 87 84 83 82 81 81 80 79 77 79 79 79 79 78 77 76 76 73 73 71 72 72 73 74 72 74 74 73 70 72 73 71
69 68 59 47 52 58 70 60 69 82 85 86 87 90 92 88 88 85 84 83 83 81 81 81 79 78 79 80 79 79 79 80 79 77 75 73 75 72 75 76 76 76 76 77 75 73 72 72 72
68 65 74 64 68 63 69 73 79 81 82 83 85 87 88 87 85 84 85 84 83 81 81 81 80 80 80 80 79 79 79 78 78 76 75 75 75 76 77 77 75 76 75 75 74 72 74 70 71
71 77 62 66 51 52 64 66 69 74 78 82 83 85 87 86 85 85 84 83 83 83 82 82 82 80 81 81 80 80 76 79 80 76 74 75 75 79 78 76 75 77 78 75 74 73 74 71 69
67 68 68 69 67 58 55 63 80 78 81 82 85 87 87 85 85 85 85 85 84 83 83 81 82 81 81 81 81 79 76 79 79 76 76 75 76 77 76 77 76 76 76 76 73 73 74 70 70
72 69 69 62 58 66 65 65 82 81 84 86 87 88 89 86 86 86 86 85 84 83 83 81 82 82 82 82 82 80 77 79 75 75 75 76 76 79 79 76 79 77 76 75 74 74 75 74 73

GFSSGP_sfc_temp_036.txt.gz
Temp
77 82 83 84 71 75 73 79 91 87 89 97 97 93 91 94 88 78 100 103 100 88 82 80 78 78 78 78 78 78 77 77 77 78 78 78 78 78 78 78 77 78 78 78 78 78 78 78 78
89 88 86 83 70 67 75 86 79 87 90 97 97 95 93 89 99 99 99 103 100 88 82 82 78 78 78 78 78 77 77 77 77 77 78 78 78 78 78 77 77 77 78 78 78 78 79 78 78
89 94 83 78 74 69 74 83 85 90 94 95 94 99 95 92 99 99 102 104 100 90 86 82 78 78 78 78 78 77 77 77 77 78 78 78 77 77 77 77 77 77 78 78 79 79 79 79 79
87 88 86 72 72 82 84 87 89 86 96 98 96 91 99 102 100 103 105 105 101 97 91 83 78 78 78 78 78 77 77 77 77 78 77 77 77 77 77 77 77 78 78 78 78 78 78 78 78
89 86 74 73 76 85 92 95 94 90 93 95 97 90 90 100 104 104 103 105 102 100 96 83 78 78 78 78 78 77 77 77 77 77 78 78 77 77 77 77 77 77 77 78 78 78 77 77 77
79 84 70 69 77 87 92 94 95 93 95 96 94 92 93 102 102 104 105 102 104 100 94 84 78 77 78 78 78 77 77 77 77 77 77 77 77 77 77 77 77 77 77 77 77 77 77 76 75
78 77 72 75 78 83 89 96 92 93 93 92 97 88 95 98 101 102 103 102 101 102 96 84 81 79 78 77 77 77 77 76 77 77 77 77 77 77 77 77 77 76 77 77 76 76 76 75 75
84 80 74 77 77 79 91 94 96 94 92 100 99 87 87 97 103 103 105 105 103 102 101 86 83 82 80 79 77 77 77 76 76 76 76 76 77 77 76 76 76 77 77 76 76 75 75 75 74
89 73 70 74 78 82 93 89 96 99 94 96 97 96 99 104 106 104 101 103 104 104 99 95 88 85 82 82 80 77 77 77 76 76 76 75 76 78 78 77 77 76 76 76 75 75 74 74 74
79 72 73 83 85 85 90 91 92 90 90 89 91 99 102 103 101 98 98 97 99 100 102 99 93 87 85 89 82 78 78 78 77 77 77 75 77 77 81 79 78 77 76 75 75 75 74 74 73
79 73 80 84 88 90 88 89 94 89 86 91 91 95 98 99 97 96 98 99 99 100 100 99 87 85 86 87 85 80 80 79 78 77 77 77 79 78 78 77 76 73 75 74 75 73 73 73 73
75 81 83 85 89 88 86 91 88 90 90 97 97 98 98 96 95 96 96 98 99 98 95 94 88 84 84 87 87 82 82 81 80 79 78 77 78 76 75 76 77 73 75 73 73 72 71 72 74
78 81 85 88 89 89 90 87 87 89 95 98 98 97 95 95 95 95 97 97 96 93 93 93 87 83 82 81 85 84 82 83 82 81 80 78 76 74 76 76 77 75 75 73 72 73 72 71 72
82 83 84 87 87 89 86 87 88 90 95 94 95 94 95 96 96 95 94 92 92 92 91 92 86 82 83 82 80 80 80 82 82 80 79 77 76 74 76 75 75 74 74 73 71 71 70 70 71
83 77 81 84 86 85 88 81 83 91 94 91 92 93 95 95 97 95 94 91 92 92 92 92 88 82 80 80 80 82 82 82 79 79 79 78 76 75 75 75 74 73 73 72 71 69 68 68 69
76 76 69 80 83 85 84 71 84 91 90 88 91 92 93 94 96 96 95 92 91 90 91 90 93 83 80 80 81 81 82 79 79 78 79 78 77 77 75 74 73 74 72 70 68 67 67 67 67
72 65 67 72 83 82 81 75 85 91 89 86 88 90 92 92 94 92 94 93 90 89 87 87 87 82 80 80 81 81 81 78 77 79 78 78 77 77 74 73 73 73 70 68 68 66 67 65 66
62 64 68 69 78 81 78 77 84 88 89 87 88 89 89 89 91 93 92 93 91 89 89 89 84 80 80 80 79 79 79 78 79 78 78 79 77 78 75 73 72 71 68 67 66 66 66 66 64
70 69 67 73 81 77 76 76 80 86 87 85 86 86 86 88 93 93 92 91 87 86 83 81 80 80 79 78 77 77 77 76 77 78 80 80 79 78 75 73 71 69 68 66 67 66 66 64 66
68 66 67 74 79 78 76 75 81 84 84 86 86 85 86 88 89 92 91 85 83 81 80 79 79 78 78 78 76 78 77 78 78 78 78 78 78 76 75 72 70 69 67 66 66 66 63 64 65
67 65 66 67 74 78 75 71 75 83 86 88 88 89 88 87 87 87 90 82 81 79 78 78 78 77 77 78 77 78 78 78 77 77 76 76 77 76 74 73 70 68 67 65 66 66 65 62 64
62 73 71 69 67 61 74 58 70 77 79 84 86 87 87 88 89 89 87 80 79 79 79 78 77 76 77 78 77 75 74 73 75 76 73 73 76 75 73 71 71 69 67 67 66 67 65 65 61
66 74 72 71 67 66 67 62 67 76 75 79 83 86 87 88 90 90 83 81 81 80 78 77 76 76 77 77 76 75 75 76 77 76 75 75 74 73 74 73 70 70 68 68 68 68 65 65 63
74 70 69 70 68 56 64 63 62 69 75 79 84 86 88 90 91 90 84 82 80 80 78 76 75 75 76 77 77 76 74 74 74 74 71 72 72 70 71 73 70 70 68 68 68 68 67 65 65
69 64 53 51 53 52 68 63 65 75 80 82 82 85 87 89 90 83 81 80 78 78 77 76 76 74 75 77 76 77 75 75 75 74 71 71 69 69 69 71 70 69 68 69 69 67 67 67 65
64 63 56 44 48 55 66 58 67 80 84 86 87 87 88 88 86 83 81 79 79 77 76 77 75 74 76 76 75 76 75 74 73 72 72 69 69 69 71 71 71 71 71 70 69 67 66 67 66
63 58 69 60 64 58 65 70 75 80 82 84 84 85 84 84 82 81 81 79 78 77 76 76 76 76 76 76 75 75 75 76 74 72 73 70 72 71 72 72 71 72 72 70 69 66 67 67 67
66 72 57 61 48 47 60 63 67 75 78 82 81 82 84 83 83 82 80 79 79 78 78 77 78 77 77 77 76 76 75 76 72 73 72 72 72 71 71 71 72 71 70 70 69 68 68 66 66
63 61 64 65 62 53 51 60 77 77 80 80 82 84 84 83 83 82 81 81 81 80 80 77 78 77 77 77 76 72 74 73 73 72 73 72 72 72 73 73 72 72 70 70 68 67 68 67 66
68 64 64 57 54 62 61 62 81 81 83 84 84 86 85 84 83 83 82 81 80 79 79 78 78 78 78 78 78 72 73 72 72 72 72 73 73 74 72 72 71 72 72 70 69 70 69 69 65

GFSSGP_sfc_temp_039.txt.gz
Temp
71 73 75 74 62 61 58 65 76 77 80 87 89 86 78 82 79 66 84 86 82 76 75 78 78 78 78 78 78 77 77 77 77 77 77 77 77 78 77 77 77 77 78 78 78 78 78 78 78
78 81 76 71 59 54 60 74 74 77 84 90 91 86 84 80 89 87 84 84 83 77 75 76 78 78 78 78 78 77 77 77 77 77 77 77 77 77 77 77 77 77 78 78 78 78 78 78 78
80 85 68 64 60 58 59 74 77 80 87 88 88 93 87 83 89 88 89 85 81 78 76 76 78 78 78 78 78 77 77 77 77 78 77 77 77 77 77 77 77 77 78 78 78 78 78 78 78
77 73 71 60 59 69 73 78 80 82 85 85 92 83 88 90 90 91 89 85 81 78 78 78 78 78 78 78 77 77 77 77 77 78 77 77 77 77 76 77 77 77 78 78 78 78 78 78 78
75 69 59 59 64 73 81 82 81 80 79 83 87 81 82 89 93 94 90 88 83 79 79 78 77 77 78 78 78 77 77 77 77 77 77 77 77 77 76 77 77 77 77 78 78 78 77 77 77
67 69 55 57 66 77 82 86 85 85 85 87 87 83 80 90 91 90 93 89 87 82 80 77 78 77 77 78 77 77 77 77 77 77 77 77 77 77 77 77 77 77 77 77 77 77 76 76 75
63 59 56 61 67 73 81 89 85 85 85 83 86 81 79 86 90 91 91 91 89 87 82 77 77 77 77 77 77 77 76 76 76 76 76 76 77 76 76 76 77 77 76 77 77 76 76 75 75
71 63 58 62 66 68 83 87 85 85 86 93 93 79 74 84 90 90 89 87 88 85 81 77 75 76 75 75 77 76 76 76 76 76 76 76 76 76 76 75 76 77 76 76 76 76 75 75 74
79 59 56 62 67 73 83 82 88 90 88 88 90 86 90 93 90 86 82 85 83 86 81 78 75 75 75 75 76 76 77 76 76 76 76 75 71 71 73 75 75 76 76 76 76 75 75 74 74
70 60 63 74 77 75 82 83 85 85 84 83 88 92 94 95 87 84 83 82 80 83 79 79 77 75 75 78 75 74 75 74 73 73 71 70 69 68 74 74 76 77 76 76 76 75 75 74 68
72 63 72 75 79 81 80 82 87 83 80 84 83 88 90 91 90 80 81 80 81 85 83 81 79 77 76 78 75 73 73 72 71 71 69 69 71 70 72 69 71 72 75 72 73 71 70 68 67
66 73 75 76 80 79 78 83 81 83 81 87 90 89 88 86 85 84 83 84 84 82 82 81 80 78 78 80 76 73 73 72 71 71 69 69 70 70 68 67 67 66 68 66 66 66 67 66 68
69 72 77 80 79 79 82 80 80 81 87 90 91 90 84 84 83 83 84 84 82 80 82 84 76 79 79 79 77 75 74 73 73 72 72 73 73 69 68 68 66 67 66 66 66 66 68 65 67
72 73 75 79 78 80 78 80 82 84 87 87 89 87 85 84 84 83 82 81 79 82 80 82 76 77 79 80 77 76 77 75 74 74 74 73 72 69 68 67 67 66 67 66 65 66 66 65 66
72 67 72 74 77 76 81 74 76 84 86 84 85 87 84 85 85 83 83 80 82 82 81 79 74 73 78 77 74 75 77 76 76 75 73 73 70 69 68 67 66 66 66 66 65 65 64 64 65
65 66 58 69 75 78 77 64 76 84 83 80 83 86 85 82 83 84 83 81 81 79 79 78 82 74 72 72 71 73 73 71 71 70 71 72 70 70 68 66 66 66 65 64 64 63 62 62 62
60 53 57 63 75 74 72 67 77 82 82 80 82 84 84 83 81 79 83 82 80 79 77 76 73 73 72 71 71 71 71 70 70 70 67 71 71 71 68 66 66 66 64 64 63 62 62 61 61
51 54 59 59 68 71 69 69 76 80 81 80 81 82 82 81 79 82 80 82 79 76 75 74 72 71 71 71 71 70 69 70 70 70 69 70 70 71 68 66 66 65 64 62 62 62 62 62 61
61 59 58 64 71 68 67 68 73 77 75 76 78 74 75 76 80 80 81 77 75 73 73 71 70 70 73 72 68 67 67 67 68 69 72 71 70 71 68 66 65 64 62 62 62 62 62 60 61
58 55 56 64 71 68 67 66 73 77 77 79 79 78 74 73 78 81 79 75 73 70 70 69 69 69 69 69 68 68 68 68 69 69 70 70 71 69 68 66 64 63 63 62 62 61 60 59 61
56 55 56 57 64 68 65 60 65 73 74 77 77 78 76 74 75 77 75 71 69 68 68 69 69 69 69 69 68 68 67 67 66 66 67 68 70 69 68 66 64 63 63 61 61 61 60 58 59
51 63 62 61 58 50 62 47 61 68 71 74 78 78 74 76 76 76 71 68 68 68 69 68 68 68 69 69 68 67 65 64 65 66 65 66 70 69 68 67 66 64 63 61 61 62 60 59 58
56 65 62 61 57 55 57 47 60 64 64 66 71 76 73 74 75 76 71 71 69 69 67 67 68 68 69 68 68 66 65 65 66 65 65 65 66 67 69 68 64 64 62 62 62 62 61 60 58
66 61 59 59 55 44 54 53 55 60 65 66 71 75 76 75 76 72 72 72 69 69 67 67 66 67 68 68 68 67 65 64 63 63 62 62 63 64 67 67 64 63 62 62 63 62 61 60 60
58 51 39 38 40 41 57 52 58 62 69 70 72 73 74 74 71 70 70 69 69 68 67 66 66 65 67 68 67 67 65 65 64 63 62 63 62 62 63 64 63 63 63 63 62 62 61 61 61
51 51 42 32 36 43 57 49 55 70 75 77 78 77 75 74 71 71 70 69 69 68 68 67 66 65 67 67 67 66 66 64 63 64 63 63 62 62 64 64 64 64 64 64 62 61 61 62 62
52 46 56 47 51 43 51 59 67 71 72 75 75 74 73 68 71 70 70 70 69 69 68 66 66 66 66 67 66 66 66 66 64 65 65 63 64 65 65 64 64 64 64 64 63 62 62 62 62
53 58 44 49 36 35 48 52 53 64 67 72 69 70 67 70 71 70 70 69 70 70 67 67 67 66 67 67 66 67 66 68 65 64 64 64 64 65 64 64 64 65 65 65 63 63 63 62 61
50 49 50 48 49 40 39 47 63 64 68 67 68 70 70 70 70 70 70 71 71 70 69 67 67 67 66 67 66 70 67 66 65 64 64 64 64 64 65 65 65 65 64 65 64 63 63 62 61
54 52 52 43 41 49 47 49 68 69 67 69 70 70 72 72 72 72 72 72 71 69 69 67 67 67 67 68 66 68 66 65 64 64 64 64 64 66 66 66 66 66 66 64 64 63 64 63 62

GFSSGP_sfc_temp_042.txt.gz
Temp
71 72 72 72 60 57 54 63 74 73 75 81 84 82 80 77 76 65 78 83 79 76 74 77 78 78 78 78 77 77 77 77 77 77 77 77 77 77 77 77 77 77 78 78 78 78 77 77 77
76 77 73 68 56 50 56 69 70 75 81 87 88 83 79 76 84 81 80 81 80 76 73 74 78 78 78 78 77 77 77 77 77 77 77 77 77 77 77 77 77 77 77 78 78 78 78 78 78
78 81 67 61 55 53 58 72 74 78 82 83 81 89 83 79 84 84 82 80 77 75 74 74 78 78 78 78 77 77 77 77 77 77 77 77 77 77 77 77 77 77 77 78 78 78 78 78 78
76 71 66 57 56 64 68 74 77 80 83 84 83 80 84 87 87 88 83 80 77 75 75 76 77 77 78 78 77 77 77 77 77 77 77 77 77 77 76 77 77 77 77 78 78 78 78 78 78
72 66 56 54 60 68 74 78 82 78 79 82 84 78 78 85 88 84 81 81 77 74 75 76 77 77 78 78 77 77 77 77 77 77 77 77 77 76 76 76 77 77 77 77 77 77 77 77 77
64 62 52 52 61 72 73 79 80 79 79 81 79 79 80 86 85 84 83 80 80 77 76 76 77 77 77 77 77 77 76 76 76 77 77 77 76 76 76 76 77 77 77 77 77 77 77 76 75
60 55 52 58 63 68 74 81 80 83 83 82 84 77 77 83 86 85 84 83 80 79 77 76 76 77 77 77 77 76 76 76 76 76 76 76 76 76 76 76 76 76 76 76 76 76 76 75 75
65 58 52 58 62 64 77 79 79 82 83 89 89 76 72 83 86 85 84 83 80 78 78 76 75 75 75 75 77 76 76 76 76 76 76 76 76 76 76 75 76 76 76 76 76 76 75 75 74
71 53 50 56 63 68 78 76 84 88 84 86 87 85 88 92 88 81 78 79 74 79 76 74 74 75 74 74 76 76 77 76 76 76 76 74 71 71 73 74 75 76 76 76 76 75 75 74 74
62 55 56 67 71 68 76 76 79 79 79 81 82 87 92 91 83 81 80 79 78 78 75 73 73 73 74 76 74 74 74 74 73 73 72 71 68 68 72 73 76 76 76 76 76 75 75 74 67
64 60 67 69 74 76 75 76 81 78 74 80 79 85 88 86 84 82 83 84 83 81 80 75 74 73 73 75 73 73 72 72 71 71 70 69 69 68 69 66 69 69 74 71 73 71 69 67 65
61 69 70 72 76 75 74 78 76 77 77 84 84 86 85 83 81 83 82 83 83 81 75 76 75 73 72 74 73 73 71 71 70 70 69 68 67 66 65 67 66 66 67 67 66 65 65 65 66
65 67 71 74 74 75 77 74 74 76 83 87 85 85 81 81 81 80 81 81 82 79 80 76 75 74 73 73 73 72 71 71 70 69 68 68 67 65 67 67 64 65 64 65 64 64 65 64 65
64 66 69 71 71 74 73 74 76 79 84 84 85 83 83 81 79 79 78 77 77 77 79 73 74 75 74 74 73 72 72 71 70 70 69 69 70 68 67 66 64 63 64 64 64 65 63 63 64
67 60 66 68 68 68 75 68 70 80 83 82 81 80 80 80 81 79 79 78 77 78 78 75 71 73 74 75 74 73 72 72 70 70 70 70 70 69 68 66 65 64 64 65 66 64 63 64 65
58 57 53 65 69 71 70 59 74 78 78 77 78 82 84 80 81 85 80 76 75 75 77 76 78 71 72 74 73 74 73 72 72 71 70 71 71 69 67 65 64 64 63 63 63 62 62 62 61
52 49 52 58 68 68 68 62 72 77 77 76 75 77 79 81 79 77 78 78 76 75 76 73 71 69 70 68 71 70 69 70 67 68 68 70 70 69 66 65 65 64 63 63 62 61 61 60 60
46 49 54 54 63 67 65 64 71 76 77 76 77 79 80 81 80 81 77 78 76 74 72 71 69 67 68 69 67 67 66 66 67 67 67 68 70 68 65 65 64 63 62 62 61 61 61 60 60
55 54 52 58 66 63 62 63 67 72 70 70 73 75 76 77 79 80 79 75 73 70 69 68 67 67 70 70 67 65 64 65 65 66 68 67 67 66 66 64 64 63 62 61 61 61 60 60 61
52 49 49 56 63 61 61 61 68 71 72 74 75 74 74 70 72 76 74 70 70 70 68 67 67 67 67 66 65 66 65 65 67 67 67 69 68 67 65 64 63 63 62 62 61 60 60 60 60
51 49 50 50 59 62 59 55 60 68 69 72 73 73 72 72 74 75 72 69 66 67 66 66 66 67 67 67 67 65 65 65 64 64 64 65 67 67 66 64 62 62 63 61 60 61 59 57 57
46 57 56 54 51 44 59 43 57 64 67 71 71 73 69 72 74 73 70 65 65 65 66 66 67 67 67 67 66 65 62 61 62 63 63 65 68 67 66 64 64 63 62 61 60 60 59 58 56
50 59 56 55 50 49 51 43 55 58 60 63 68 68 73 78 70 72 68 68 65 65 64 66 66 66 66 66 66 63 62 62 61 62 63 63 63 65 67 65 63 62 61 61 60 60 59 58 57
59 54 53 53 45 38 48 46 50 56 61 65 65 69 72 71 72 66 65 66 64 65 65 66 65 64 65 65 65 64 63 61 60 60 60 61 62 62 64 65 62 62 61 60 60 61 60 58 58
50 41 32 30 33 36 51 46 53 57 62 66 67 70 70 70 64 63 64 65 64 64 64 65 64 63 64 64 64 63 63 62 61 61 60 61 60 61 62 62 61 61 61 61 61 59 59 59 58
44 42 33 27 29 38 51 42 52 64 71 72 74 73 72 67 63 64 65 65 65 65 64 64 64 63 64 64 63 63 63 61 62 61 61 61 61 61 62 62 62 62 63 62 61 59 60 60 60
44 40 48 38 45 36 44 51 61 67 68 71 71 69 68 63 62 63 64 64 65 64 63 64 64 63 64 64 63 63 63 62 61 62 62 61 61 63 62 62 62 62 63 62 61 60 61 61 60
48 51 38 37 30 30 40 43 48 56 61 65 66 68 62 61 63 64 64 64 65 65 64 63 64 63 63 63 64 64 62 63 63 63 62 62 62 63 62 62 62 62 62 62 61 60 62 61 59
42 41 42 41 38 35 33 41 55 58 60 63 68 66 63 63 63 64 65 65 65 65 66 64 64 63 63 64 63 62 63 64 62 62 62 62 62 62 62 63 63 63 63 62 61 61 61 61 60
47 43 41 35 36 39 43 44 63 60 62 64 63 64 65 65 66 65 65 66 65 66 65 64 63 64 64 64 64 63 63 62 62 62 63 62 62 62 64 63 64 63 64 62 62 62 62 61 62

GFSSGP_sfc_temp_045.txt.gz
Temp
72 71 71 71 60 54 49 58 68 71 73 79 79 80 74 74 73 65 76 79 77 73 74 76 78 78 78 78 78 77 77 77 77 77 77 77 77 77 77 77 77 77 78 78 77 77 77 77 77
73 74 71 65 55 47 51 64 68 74 77 80 80 80 76 75 81 78 78 79 77 74 73 75 78 78 78 78 77 77 77 77 77 77 77 77 77 77 77 77 77 77 78 77 77 77 77 77 77
76 78 64 60 53 50 54 67 71 77 80 79 78 84 80 79 83 79 79 77 75 74 73 73 77 77 78 78 77 77 77 77 77 77 77 77 77 77 77 77 77 77 78 78 78 77 77 77 77
73 69 65 56 54 61 63 67 73 75 81 81 79 77 81 85 84 84 80 78 75 74 74 75 77 77 78 78 77 77 77 77 77 77 77 77 77 77 76 77 77 77 77 78 77 77 77 77 77
69 62 53 52 56 64 71 74 74 76 77 78 78 74 75 84 86 80 78 79 76 73 73 75 77 77 78 78 77 77 77 77 77 77 77 77 77 76 76 76 77 77 77 77 77 77 77 77 77
63 62 50 51 58 68 70 73 75 77 79 78 77 76 76 81 82 79 79 77 79 75 73 74 77 77 77 77 77 77 76 76 76 77 77 77 76 76 76 76 76 77 77 77 77 77 76 76 75
59 53 50 55 59 64 70 73 72 75 77 78 81 73 74 79 82 79 79 78 77 77 74 73 75 76 78 77 77 76 76 76 76 76 76 76 76 76 76 76 76 76 76 76 76 76 76 75 75
63 56 49 55 59 61 71 72 73 77 78 86 84 72 70 79 85 79 75 73 71 73 74 73 73 74 74 75 77 76 76 76 76 76 76 76 76 76 76 75 75 76 76 76 76 76 75 75 74
66 51 47 54 60 65 69 67 76 82 78 79 82 79 84 86 83 78 73 74 72 75 71 70 71 73 73 73 75 76 77 76 76 76 76 74 71 71 72 74 75 76 76 76 76 75 75 74 74
59 50 55 63 69 65 68 70 74 75 72 74 78 83 85 85 80 78 76 76 74 75 72 70 71 72 73 75 72 73 73 73 73 72 71 71 68 68 71 73 76 76 76 76 75 75 75 74 66
60 56 66 67 70 71 70 70 76 73 68 74 75 80 84 82 80 77 78 77 78 82 79 74 73 73 72 74 73 72 71 71 70 70 69 69 68 68 69 67 69 68 73 69 72 71 69 67 65
56 65 68 71 73 71 70 74 72 74 74 82 83 82 82 81 80 77 77 79 78 76 79 76 74 73 72 73 72 72 71 71 69 69 68 68 67 66 65 66 65 65 67 68 67 66 66 65 65
61 63 68 71 72 71 73 70 70 72 79 81 83 83 79 79 78 78 78 77 77 74 74 75 74 72 72 71 72 71 70 71 70 68 68 68 67 65 65 64 64 64 65 66 64 64 64 64 64
61 64 66 67 67 69 69 70 72 74 80 80 80 79 79 77 77 75 75 75 75 77 74 73 71 72 72 71 72 71 71 70 69 68 68 68 67 65 64 64 64 63 63 64 64 64 64 62 63
61 56 62 63 63 65 70 64 66 75 79 77 79 80 77 77 77 76 78 75 76 76 76 71 72 71 70 71 72 70 70 70 69 68 67 68 67 65 65 64 63 64 63 63 63 64 64 63 63
56 53 50 62 65 66 68 55 69 75 75 75 75 74 76 76 77 79 77 75 76 72 73 72 74 70 70 71 71 71 70 69 69 68 67 68 68 66 64 63 63 63 62 62 62 62 62 61 62
49 48 50 55 66 66 66 59 69 76 75 73 73 75 76 78 75 75 76 78 75 74 73 72 69 67 69 69 68 69 67 68 68 67 66 68 68 67 65 64 63 63 62 62 61 61 61 59 60
43 44 52 52 59 64 62 60 67 71 72 71 72 74 76 77 78 81 81 81 74 72 70 69 68 66 64 64 64 64 65 64 66 67 67 68 68 67 65 65 63 62 61 61 60 60 60 60 59
50 50 47 55 61 61 59 59 64 68 66 68 70 71 72 69 74 77 77 74 71 69 68 68 69 64 66 65 64 63 63 62 62 64 67 67 66 66 65 63 63 62 61 62 61 60 61 60 60
48 44 44 52 58 56 55 56 60 63 66 68 69 70 71 73 70 75 74 71 70 70 68 66 65 65 65 65 63 63 62 62 63 64 66 67 68 68 68 63 62 62 61 61 61 61 59 59 60
46 45 46 46 54 57 53 51 55 62 63 67 70 67 68 67 70 73 71 69 68 67 66 65 64 65 65 65 65 63 63 63 62 61 62 65 69 67 65 64 62 61 62 61 60 60 59 57 59
42 52 52 50 46 40 53 40 52 59 62 66 68 70 66 67 71 69 70 68 66 65 64 64 65 65 66 66 66 68 62 61 61 62 62 63 65 65 65 64 62 62 61 60 59 59 58 56 55
45 53 50 50 44 41 45 39 50 56 57 61 64 68 66 72 70 69 69 67 64 63 63 64 65 65 64 65 67 64 61 61 60 60 61 61 62 64 65 64 62 61 60 60 59 58 58 57 56
54 49 47 47 41 31 42 41 46 51 56 61 65 64 70 67 67 67 66 62 61 62 63 64 65 63 64 64 63 63 62 60 60 59 60 60 60 61 63 63 61 61 60 60 59 59 58 57 57
46 37 28 27 27 32 46 42 49 53 57 59 59 62 65 66 65 63 61 60 61 62 63 63 64 62 63 62 62 62 61 61 61 60 59 60 59 60 61 61 61 60 60 60 59 59 58 58 57
40 39 29 26 27 35 48 39 48 60 66 69 70 67 65 65 63 63 60 60 62 62 63 63 63 61 62 62 61 60 61 60 60 60 60 60 59 60 61 61 61 61 61 61 60 59 58 58 58
41 36 44 35 37 33 38 46 57 62 61 64 62 65 63 62 62 60 59 60 62 62 62 62 62 62 62 61 61 61 61 61 60 60 60 60 60 61 61 61 61 61 61 60 59 58 58 59 59
46 48 35 32 27 26 35 39 44 51 59 64 63 61 62 62 59 58 60 61 62 62 61 62 62 63 62 62 62 62 61 61 61 61 60 61 61 61 61 61 61 61 61 61 59 59 59 59 59
41 38 39 38 35 29 29 35 49 54 57 56 59 62 63 62 57 59 61 62 62 62 62 62 63 63 62 62 61 60 61 61 61 61 61 61 61 61 61 61 61 61 61 60 59 59 60 59 59
44 41 39 34 32 39 34 38 60 53 56 59 60 63 59 55 58 60 61 61 61 62 62 63 62 63 62 62 61 60 60 60 60 61 61 60 61 61 62 62 62 62 62 61 60 60 60 60 59

GFSSGP_sfc_temp_048.txt.gz
Temp
72 70 70 70 58 53 48 57 63 67 69 75 77 74 73 74 71 63 74 76 74 73 74 76 78 78 78 78 78 78 77 77 77 77 77 77 77 78 77 77 77 78 78 78 78 77 77 77 77
70 72 70 63 52 46 50 59 65 69 75 78 76 74 72 73 79 77 77 76 75 73 74 74 78 78 78 78 78 77 77 77 77 77 77 77 77 77 77 77 77 78 78 78 78 77 77 77 77
73 74 62 56 50 48 53 64 69 73 78 78 76 80 79 77 80 81 79 76 73 72 74 74 78 77 78 78 77 77 77 77 77 77 77 77 77 77 77 77 77 78 78 78 78 77 77 77 77
72 66 62 53 52 55 60 65 67 72 78 79 78 74 79 83 83 84 78 76 73 72 73 76 77 77 78 78 77 77 77 77 77 78 77 77 77 77 76 77 77 77 78 78 77 77 77 77 77
68 62 50 49 54 60 65 69 70 72 74 77 78 74 74 81 83 80 77 77 74 71 72 74 77 77 78 78 77 77 77 77 77 77 77 77 77 77 76 77 77 77 77 77 77 77 77 77 76
59 59 47 49 56 63 67 70 70 72 75 77 76 74 76 80 80 78 76 74 76 73 72 73 77 77 77 77 77 77 76 76 77 77 77 77 77 76 76 77 77 77 77 77 77 77 77 76 75
58 52 49 51 56 60 67 73 71 72 73 74 79 72 76 79 80 77 76 74 74 74 72 71 74 76 78 77 77 76 76 76 76 76 76 76 76 76 76 76 76 76 76 76 77 76 76 75 75
62 57 49 53 57 59 68 70 70 71 74 82 82 71 70 80 80 76 75 73 71 71 71 70 70 74 74 75 77 76 76 76 76 76 76 76 76 76 76 75 76 76 76 76 76 76 76 75 74
63 49 44 52 58 63 67 64 73 78 75 78 78 77 80 80 78 75 72 72 71 73 70 69 70 71 72 73 74 76 77 76 76 76 76 75 72 73 74 74 75 76 76 76 76 76 75 75 74
58 47 52 62 68 65 67 62 67 71 69 72 76 80 84 83 75 75 74 74 72 72 71 70 70 71 72 74 71 73 73 74 73 73 72 71 69 69 71 73 76 76 76 76 76 75 75 75 71
58 54 64 66 69 70 68 67 71 67 65 70 70 74 77 77 75 74 74 75 77 79 74 71 71 71 70 73 71 71 71 71 71 70 69 69 68 69 71 68 71 70 74 72 74 73 72 71 69
53 62 67 68 71 69 68 70 67 69 71 75 77 77 76 76 75 75 74 76 74 73 76 76 73 71 70 72 71 70 71 70 69 69 68 68 68 67 67 67 67 67 68 69 69 69 69 69 68
58 59 65 69 70 70 71 67 67 69 74 78 78 77 75 74 75 74 75 74 75 74 78 73 70 71 72 70 71 69 70 70 70 68 68 69 68 66 65 66 66 65 66 67 68 67 68 67 67
59 62 64 66 65 67 65 67 67 70 76 76 77 76 75 74 75 74 73 73 72 72 72 72 70 71 71 69 70 70 70 69 68 68 68 69 67 65 65 65 64 64 65 66 67 67 67 67 67
59 54 56 61 63 63 68 62 64 72 75 74 75 77 76 74 75 73 74 73 74 74 73 70 69 68 68 69 70 70 69 69 68 68 68 68 67 65 65 64 63 64 64 65 65 65 65 65 65
54 52 49 62 61 65 67 55 68 73 72 72 74 76 76 72 73 74 73 71 72 71 70 72 72 68 68 70 70 70 68 68 68 67 68 68 67 66 65 64 64 65 64 64 64 64 64 64 64
46 47 46 54 63 64 63 57 66 72 72 69 69 70 71 70 71 71 73 73 72 71 71 70 66 67 68 68 67 66 65 66 66 66 67 68 68 67 66 65 64 65 64 63 64 63 64 62 62
40 43 49 48 57 60 57 58 65 67 69 65 65 68 69 71 73 74 74 75 72 70 67 66 65 64 64 63 63 64 65 65 66 66 67 67 68 67 65 65 65 65 63 63 63 63 62 63 62
49 48 44 51 58 58 57 58 61 63 64 66 68 70 72 73 74 71 73 72 68 67 65 64 63 62 63 63 62 62 64 64 64 65 67 67 67 67 66 65 65 64 63 64 63 62 62 60 61
46 43 41 49 56 52 52 50 55 58 60 62 65 67 67 68 66 71 72 68 66 66 65 64 63 62 63 64 62 63 62 63 64 65 67 68 67 67 68 67 64 64 63 63 62 62 61 62 62
44 43 43 44 51 53 49 49 52 58 60 63 65 65 65 67 65 69 70 68 67 65 65 65 63 63 64 64 63 61 62 63 62 63 64 66 67 67 67 66 64 63 63 62 62 62 62 59 61
39 49 50 48 44 37 49 38 49 56 57 60 64 66 67 63 66 69 66 67 67 67 64 64 63 64 65 64 64 65 62 62 62 62 64 65 67 66 66 65 64 63 62 62 62 61 61 60 58
43 51 47 47 42 39 41 36 44 50 51 57 62 65 67 65 68 65 66 68 67 64 62 63 64 64 64 64 65 64 62 61 61 62 63 63 64 65 66 65 65 63 62 62 62 61 60 60 58
52 46 43 42 38 29 39 39 43 49 54 58 61 63 62 62 63 63 64 63 62 61 62 63 63 62 63 64 64 63 62 61 61 61 61 61 62 63 65 65 64 63 62 62 61 61 60 59 60
43 35 26 25 25 29 43 39 46 51 55 56 58 59 60 61 61 61 62 61 60 60 61 63 63 61 63 63 63 63 62 62 62 61 60 60 60 61 62 63 62 62 62 62 61 61 61 60 59
38 36 27 24 24 30 43 35 44 56 63 65 65 61 60 60 60 61 62 60 59 61 62 63 62 61 62 62 62 62 62 62 61 61 61 61 61 62 63 63 63 63 63 62 62 61 61 61 60
40 33 40 33 33 29 34 41 52 58 60 60 58 59 59 60 60 62 61 58 60 61 61 62 62 61 61 61 61 61 61 61 61 61 61 61 61 62 62 63 62 63 63 63 62 61 61 61 61
43 47 34 29 26 25 32 36 40 48 52 60 57 56 58 60 60 59 57 59 61 61 61 62 63 62 61 61 62 62 62 62 62 61 61 61 61 62 62 62 62 62 63 63 62 61 62 61 61
38 35 37 34 31 27 27 33 46 51 53 53 54 56 57 57 55 56 60 61 61 61 62 61 62 62 61 62 61 61 61 62 62 62 62 62 62 62 62 63 62 63 63 62 61 62 63 62 61
40 36 36 30 31 35 30 32 50 51 52 52 53 59 61 56 56 60 62 61 61 61 61 61 62 62 62 62 61 61 61 61 61 61 62 62 62 63 63 63 63 64 64 63 63 62 63 62 62

GFSSGP_sfc_temp_051.txt.gz
Temp
78 80 82 82 71 70 66 69 77 77 78 85 86 83 84 87 82 79 89 89 88 86 85 82 78 78 79 78 78 78 78 77 78 78 78 78 78 78 78 78 78 79 79 78 78 78 78 78 77
80 79 82 78 68 63 69 74 74 80 84 88 86 84 83 84 91 92 93 87 88 86 84 85 78 78 78 78 78 78 77 77 77 78 77 77 77 78 78 78 78 79 79 79 78 78 78 78 77
81 82 78 73 68 64 68 75 79 82 86 85 86 89 87 87 91 94 92 87 86 85 85 83 78 78 78 78 78 77 77 77 77 78 77 77 77 77 77 77 78 78 79 78 78 78 78 77 77
80 81 77 66 64 69 73 77 78 80 85 86 88 84 89 93 92 96 89 88 86 86 86 82 78 78 78 78 78 77 77 77 78 78 77 77 77 77 77 77 77 78 78 78 78 78 77 77 77
81 76 67 63 66 71 75 79 81 80 82 85 87 84 85 91 91 91 89 87 88 86 86 86 78 78 78 78 78 77 77 77 77 78 77 77 77 77 77 77 77 78 78 78 78 77 77 77 77
72 73 62 60 66 73 77 82 81 82 84 85 84 83 87 93 92 91 90 89 90 86 84 85 79 77 77 78 78 77 77 77 77 77 77 77 77 77 77 77 77 77 78 78 78 77 77 77 76
67 64 63 63 64 70 76 84 81 83 84 84 87 81 87 91 94 90 89 88 87 86 82 81 84 80 77 77 77 77 76 77 77 77 77 77 77 76 76 76 77 77 77 77 77 77 76 76 75
73 69 61 62 64 67 78 79 82 82 82 90 89 82 84 89 89 88 89 88 86 85 85 82 81 84 82 81 77 77 76 76 76 77 76 76 77 76 76 75 76 77 76 77 76 76 76 75 75
73 65 61 64 62 69 77 78 81 83 80 84 88 88 89 86 88 89 87 87 88 86 84 83 84 82 82 82 81 77 77 77 76 77 77 77 82 81 80 78 77 76 76 76 76 76 75 75 75
69 63 65 71 72 71 77 75 78 79 79 81 83 89 91 92 89 89 87 89 86 88 87 84 81 80 81 82 81 81 82 82 81 82 81 81 81 81 82 80 76 76 76 76 76 76 75 76 83
69 62 70 71 74 75 75 78 80 78 76 82 82 84 89 90 90 89 92 93 93 93 90 85 79 79 80 82 83 82 84 82 81 80 80 80 80 80 80 81 81 80 77 82 80 80 81 82 82
64 69 71 74 75 73 72 79 77 78 80 86 86 85 86 87 87 90 91 93 95 91 89 88 83 78 78 82 82 82 82 82 81 81 78 79 78 78 79 80 81 79 82 80 80 81 80 80 79
64 69 71 73 73 74 75 73 74 76 82 85 85 84 84 85 86 86 88 90 89 86 89 91 85 80 78 77 82 81 79 82 82 81 79 80 79 77 79 78 80 80 82 80 80 80 79 79 79
71 69 69 72 70 71 69 73 74 77 81 80 81 82 85 85 86 87 87 86 86 87 87 89 84 81 80 77 77 78 78 81 81 81 80 77 79 77 78 78 78 79 79 80 80 79 77 75 77
69 62 66 68 70 68 71 66 69 77 79 78 79 82 84 86 87 86 88 85 87 88 86 84 83 82 79 78 78 78 80 80 80 80 78 77 77 76 75 77 77 78 76 76 76 73 75 77 78
61 62 56 68 67 70 69 61 76 81 78 77 79 81 82 84 85 86 87 84 85 84 83 84 86 83 80 79 79 79 80 79 80 80 78 76 76 76 74 77 76 77 76 75 75 77 76 76 75
59 53 55 60 69 67 66 63 74 80 77 76 79 80 82 83 82 82 84 84 83 83 81 81 82 81 80 79 79 78 78 78 79 78 78 76 76 75 75 76 75 73 73 74 75 74 75 72 72
51 52 57 57 65 65 63 64 73 76 75 75 77 78 79 79 81 82 83 84 83 82 80 79 80 77 77 78 77 78 77 78 78 78 76 76 76 75 75 76 73 72 71 72 74 73 73 74 74
59 56 55 61 66 62 61 64 69 72 73 74 75 76 76 77 82 82 80 82 82 81 79 81 78 77 76 76 76 76 76 74 76 77 76 76 76 75 74 76 73 73 74 75 73 72 72 67 65
54 52 53 59 62 61 63 62 68 68 69 72 73 75 75 76 78 79 79 81 80 79 78 79 78 75 74 77 76 78 77 73 76 78 76 76 75 75 75 75 71 69 74 74 73 70 67 68 67
51 50 51 52 57 61 58 56 60 68 70 72 73 74 74 75 75 78 79 80 81 80 79 79 79 75 74 76 75 74 74 74 75 75 75 75 75 75 75 75 73 72 75 73 71 70 69 66 63
46 56 55 53 51 48 59 47 60 65 66 69 71 73 74 75 76 77 79 80 79 81 82 78 77 75 75 74 75 74 78 76 77 76 77 76 76 76 76 75 75 74 76 73 71 69 67 66 62
49 57 55 55 52 51 52 47 56 64 62 66 70 72 74 77 78 78 80 81 81 81 79 77 75 74 74 74 76 76 76 77 77 77 73 74 75 76 76 75 74 73 75 73 72 69 65 66 69
58 53 53 53 51 40 50 48 52 59 62 66 71 74 74 75 76 77 79 79 78 80 78 75 74 73 73 74 74 75 73 73 75 74 74 75 75 75 75 75 74 74 73 72 72 71 69 68 70
54 49 38 36 37 37 52 48 53 64 64 66 67 70 73 76 76 77 77 79 78 78 76 75 74 72 73 74 74 75 74 74 73 74 76 74 74 74 73 74 73 74 72 72 72 70 70 69 69
50 49 42 32 35 41 50 43 54 65 69 70 70 71 72 75 77 77 77 77 78 76 73 75 74 73 74 75 74 75 75 77 77 75 76 75 75 75 73 73 73 73 73 71 71 71 71 70 69
48 44 53 43 44 43 47 53 61 65 66 69 69 71 71 72 73 74 74 74 76 74 73 74 74 74 74 74 74 73 74 74 74 72 73 74 73 74 73 73 72 72 72 71 71 71 70 70 69
52 56 42 45 34 34 44 46 53 58 61 66 67 67 68 71 73 72 70 71 73 73 73 74 75 74 74 74 75 74 74 74 73 73 72 72 72 73 73 72 72 72 72 71 71 71 70 69 70
49 46 48 49 47 40 41 47 59 61 62 61 64 67 69 71 71 68 66 66 70 73 75 73 74 73 73 74 74 73 74 74 74 73 73 72 72 73 73 72 72 72 72 72 71 71 71 69 70
49 46 46 41 40 45 44 45 62 61 62 63 63 66 70 71 72 68 65 64 68 72 73 73 73 74 75 75 75 74 74 74 73 73 72 73 72 73 73 73 73 73 73 72 72 71 71 71 69

GFSSGP_sfc_temp_054.txt.gz
Temp
81 92 97 92 79 81 78 81 89 85 86 93 94 91 92 96 90 86 99 104 107 101 95 86 79 79 79 79 78 78 78 78 78 78 78 78 78 78 78 78 78 79 79 79 79 79 79 78 78
94 90 92 91 75 74 79 88 83 89 92 94 94 93 90 89 101 100 101 101 104 100 94 92 78 79 79 78 78 78 78 78 78 78 78 78 78 78 78 78 78 79 79 79 79 79 78 78 78
90 92 87 81 78 74 79 87 89 91 93 93 91 95 93 91 100 103 105 100 102 98 96 92 78 78 79 79 78 78 78 78 78 78 78 78 78 78 78 78 78 79 79 79 79 79 78 78 78
90 90 88 74 75 82 85 87 89 88 92 94 94 89 97 102 101 107 104 102 102 102 99 87 78 78 78 78 78 78 78 78 78 78 78 78 78 78 77 77 78 79 79 79 79 78 78 78 78
90 87 75 73 76 84 88 90 90 87 90 92 94 90 93 99 101 105 102 102 103 103 101 95 78 78 78 79 78 78 78 77 78 78 78 78 78 77 77 77 78 78 79 79 78 78 78 77 77
79 84 72 71 76 83 88 91 90 90 92 93 91 92 95 103 101 103 105 102 106 102 99 98 80 78 78 78 78 78 77 77 77 78 78 77 77 77 77 77 78 78 78 78 78 78 77 77 77
75 74 71 75 77 80 85 93 89 90 91 91 96 89 96 100 105 104 105 104 104 102 98 96 92 83 78 78 77 77 77 77 77 77 77 77 77 77 77 77 77 77 78 78 78 77 77 77 76
81 78 71 73 71 74 87 89 93 92 90 97 96 89 91 99 99 103 104 105 103 101 101 96 92 93 89 89 78 77 77 76 76 77 77 76 77 77 77 76 76 77 77 77 77 77 77 76 76
84 72 70 73 70 72 83 84 94 93 90 92 94 94 94 96 99 102 102 103 104 103 100 98 97 95 93 93 89 78 77 77 77 78 77 77 85 84 84 80 78 77 77 77 76 76 76 76 75
76 70 74 81 82 77 83 87 90 85 87 89 91 94 97 98 98 99 100 101 102 103 101 100 95 94 93 94 90 87 88 87 85 85 84 84 86 87 87 84 78 76 76 76 76 76 76 76 88
77 70 80 81 83 81 80 86 91 86 84 90 89 93 95 95 96 97 101 103 103 104 105 102 93 90 90 92 92 91 91 90 88 85 85 85 87 87 87 88 85 83 79 85 82 82 84 86 89
71 77 79 82 83 79 77 85 85 89 89 95 92 95 94 94 96 98 99 102 103 103 102 102 96 87 86 93 93 93 93 92 90 89 85 85 85 85 85 87 88 84 87 85 87 88 86 86 87
73 76 79 82 81 79 79 78 82 86 92 95 95 94 92 94 95 97 98 100 101 99 101 99 97 89 86 84 92 92 92 93 92 90 87 86 87 85 86 86 89 88 89 88 87 87 86 85 86
78 77 77 78 79 78 74 76 81 85 91 90 90 90 93 94 95 96 96 96 97 98 98 100 98 93 91 87 86 89 89 92 91 91 89 84 86 85 86 85 86 88 89 90 88 87 86 85 85
75 70 74 77 76 74 77 70 74 84 88 87 88 90 91 93 95 94 96 94 96 97 97 96 96 95 90 89 88 87 91 90 91 90 88 86 83 84 83 85 85 87 87 85 85 85 84 84 83
68 70 62 74 76 76 72 65 81 88 85 83 87 89 91 93 94 96 96 95 94 94 95 95 98 96 92 88 90 90 92 90 89 90 89 84 82 82 81 84 85 86 85 85 84 84 83 84 78
64 58 63 68 78 74 69 65 77 85 87 83 86 88 91 92 94 93 94 94 93 92 92 92 93 92 90 89 89 89 87 87 89 89 89 84 83 82 82 84 85 82 84 84 84 83 82 82 76
56 60 64 66 74 75 68 68 77 83 84 83 85 86 88 90 91 93 93 93 92 92 91 91 90 89 87 87 87 89 89 88 89 88 88 84 83 82 81 84 82 81 81 82 81 79 83 76 77
63 62 63 69 76 73 69 68 73 79 80 82 83 84 85 86 90 92 92 91 89 89 88 88 88 87 85 88 89 87 86 86 87 87 85 83 83 82 78 84 81 80 81 78 78 80 77 76 76
60 57 58 68 72 71 70 68 73 77 79 82 83 83 84 86 88 89 89 88 88 88 88 87 87 86 84 88 86 90 88 89 88 87 84 83 83 81 80 82 81 79 82 78 78 77 77 77 75
56 54 56 59 66 69 67 64 69 77 80 82 82 83 84 83 83 84 85 87 89 88 88 88 87 86 85 85 85 83 86 84 84 84 83 83 82 81 81 81 83 80 82 80 76 76 75 72 73
49 61 60 59 58 54 66 52 66 71 73 77 79 81 83 84 85 84 84 86 87 89 92 90 87 85 85 83 84 81 84 84 87 86 86 82 82 82 82 81 81 80 83 79 78 78 77 75 69
54 62 60 59 56 57 61 56 63 73 70 75 78 80 82 84 84 86 88 89 91 91 91 89 86 85 84 82 84 83 84 88 87 87 80 81 80 81 82 82 81 80 83 79 77 77 72 77 72
62 58 57 58 56 45 55 57 59 66 70 74 79 81 82 84 86 87 89 89 88 91 90 88 85 83 83 81 81 81 83 83 84 82 82 83 82 82 82 82 81 81 81 77 77 76 74 74 75
56 50 38 38 43 44 58 55 58 71 72 75 77 77 80 83 85 86 87 88 89 88 88 87 84 82 81 81 81 82 81 81 80 81 84 82 83 83 79 80 79 80 78 78 78 76 75 74 75
52 50 41 35 41 48 58 50 60 72 77 79 79 77 79 81 84 84 86 87 88 89 87 87 84 82 81 82 82 82 81 85 84 84 84 85 85 83 80 80 80 79 79 79 78 78 78 77 76
52 45 57 47 52 51 56 59 67 71 72 74 76 76 76 78 81 82 83 84 85 87 85 85 83 82 82 82 81 81 83 83 83 81 81 83 83 83 80 80 79 79 79 78 77 79 75 75 73
55 59 47 50 36 38 52 54 57 65 68 73 76 73 76 78 81 81 79 78 82 85 83 84 84 82 82 82 82 82 81 81 81 80 81 80 80 81 80 79 78 78 78 78 76 77 76 74 75
52 51 51 53 53 45 45 54 69 68 68 69 71 73 75 78 80 81 77 74 81 84 85 83 83 82 81 82 82 81 81 81 81 80 80 80 79 79 79 79 78 78 77 77 75 76 76 75 74
52 47 50 43 44 53 52 54 70 70 70 71 71 73 76 78 82 82 77 70 81 83 83 83 82 83 83 82 82 81 81 81 79 79 80 79 78 80 79 79 79 79 79 77 77 76 77 75 74

GFSSGP_sfc_temp_057.txt.gz
Temp
83 93 101 97 81 83 80 85 96 92 93 99 99 96 95 100 94 85 107 110 110 105 93 87 79 79 79 79 79 79 78 78 78 79 79 79 79 79 79 79 79 79 80 80 80 80 79 79 79
94 97 96 91 77 75 81 92 90 94 99 101 98 97 95 93 106 101 103 108 109 103 94 92 79 79 79 79 79 78 78 78 78 78 78 78 78 79 79 78 79 79 80 80 80 79 79 79 79
92 98 88 84 80 75 82 94 95 98 99 97 97 100 97 94 103 106 108 107 108 102 98 93 78 78 79 79 78 78 78 78 78 78 78 78 78 78 78 78 79 80 80 80 79 79 79 79 79
93 92 89 77 77 85 87 94 96 97 98 101 99 93 101 106 104 109 107 109 108 106 102 88 78 78 79 79 78 78 78 78 78 78 78 78 78 78 77 78 78 79 80 80 79 79 79 78 78
94 90 77 77 78 86 93 97 96 93 96 97 99 93 96 105 108 108 107 110 107 108 105 93 78 78 79 79 78 78 78 78 78 78 78 78 78 77 77 77 78 79 79 80 79 79 78 78 78
81 86 74 73 79 88 93 97 96 93 97 98 97 96 99 109 106 108 107 108 109 106 104 95 80 78 78 78 78 78 77 77 77 78 78 78 77 77 77 77 78 78 79 79 79 78 78 77 77
78 80 72 75 80 84 90 98 94 93 94 95 102 93 100 105 109 110 109 109 110 109 104 96 88 83 78 78 78 77 77 77 77 77 77 77 77 77 77 77 77 78 78 78 78 78 77 77 77
84 80 71 76 73 77 91 94 98 95 93 104 100 90 94 104 108 110 111 110 110 109 106 101 92 90 87 86 78 77 77 77 77 77 77 77 77 77 77 76 77 77 77 77 77 77 77 77 76
86 73 71 74 74 76 85 84 96 101 97 99 101 99 100 104 107 108 108 108 108 107 106 104 102 95 91 92 87 78 77 77 77 77 77 77 84 83 83 80 79 77 77 77 77 77 77 76 76
80 72 74 84 86 84 85 87 90 92 90 92 95 98 101 103 104 104 104 103 104 105 107 107 102 99 97 98 93 86 87 86 83 84 84 83 85 86 87 84 78 77 77 77 77 76 76 77 85
80 72 81 83 87 89 84 86 93 90 88 93 92 94 97 99 100 101 103 103 105 108 108 107 99 97 97 99 98 95 92 89 88 85 85 84 87 88 88 88 85 83 78 83 80 80 82 83 86
74 81 82 84 85 86 81 86 85 90 92 99 100 100 100 97 97 99 100 104 106 107 107 107 102 93 93 99 98 97 95 94 92 90 85 84 85 86 86 88 89 84 86 82 85 85 84 84 86
77 80 83 85 85 85 85 81 82 86 94 100 101 99 98 98 98 101 102 104 105 104 105 105 104 93 90 88 96 96 95 97 95 93 89 88 87 85 87 87 89 89 88 87 86 88 87 86 87
81 82 82 84 83 84 81 81 83 86 92 94 96 97 98 98 99 99 99 99 100 101 102 103 101 94 90 89 88 91 93 96 96 95 93 86 88 86 88 86 87 89 91 90 89 87 87 86 87
78 73 78 81 82 80 83 74 76 86 90 90 92 95 96 97 99 98 100 98 99 100 101 99 100 98 92 92 91 90 93 95 94 95 92 90 85 85 85 87 86 88 88 88 89 88 87 86 87
70 72 66 77 80 82 78 66 79 86 86 86 90 92 94 96 98 99 100 99 99 99 98 98 102 101 97 93 92 94 96 94 94 94 94 89 87 85 85 86 86 88 87 88 87 87 85 85 84
66 59 65 71 81 79 75 70 79 84 85 86 88 90 93 94 96 98 100 99 98 96 95 95 96 96 96 94 93 92 91 93 94 93 93 90 88 85 84 86 86 86 87 87 86 84 84 83 83
59 62 65 65 76 79 75 74 79 83 83 83 86 90 91 93 95 99 100 99 98 96 93 92 93 93 93 93 91 92 94 93 93 93 92 90 87 85 83 86 85 85 85 85 84 81 84 83 83
65 62 62 70 78 75 74 74 78 82 80 82 86 88 90 91 95 99 99 97 96 93 90 89 89 90 89 91 90 92 91 92 92 92 90 88 86 85 83 85 84 83 83 82 82 81 78 81 80
62 59 59 67 73 72 73 73 79 82 81 81 83 87 88 90 93 94 95 94 92 90 89 88 89 88 88 89 87 93 94 95 92 92 88 87 85 84 83 83 83 80 83 80 79 78 78 79 75
60 57 58 59 67 71 69 67 73 81 84 84 85 87 89 89 89 91 92 92 92 90 88 88 87 86 87 87 90 89 90 91 90 89 86 85 85 84 82 81 84 81 83 82 79 78 77 76 77
54 64 62 59 58 53 68 54 66 74 77 81 82 84 87 89 90 90 90 90 90 90 92 91 88 87 88 88 86 85 86 86 88 89 88 86 85 80 80 81 82 81 84 80 80 81 78 76 72
57 65 61 60 56 56 59 58 65 74 72 76 81 84 87 89 89 90 92 92 93 94 94 92 89 88 87 88 85 88 84 90 90 90 83 83 80 80 83 81 81 81 83 82 81 80 77 77 74
64 59 59 59 56 46 55 57 61 68 72 77 82 85 87 89 90 91 92 93 93 95 95 93 88 86 87 86 83 84 84 87 88 86 83 83 78 79 80 81 80 82 83 81 81 79 76 76 75
59 53 41 39 42 41 57 56 60 74 78 79 81 84 87 89 89 89 90 92 92 92 91 92 88 86 86 85 83 84 85 86 85 82 85 83 79 81 77 80 81 82 81 81 79 76 75 74 76
52 49 39 30 37 43 57 50 61 74 79 81 82 84 84 84 87 89 90 90 92 93 92 89 88 86 86 84 83 84 85 87 87 85 88 87 86 85 81 82 82 83 81 80 78 75 79 77 75
54 45 51 43 43 34 45 59 68 74 75 78 81 80 80 81 83 86 88 88 89 90 90 89 89 87 85 85 84 84 84 86 86 84 84 86 85 84 82 83 82 81 81 78 77 80 77 77 75
56 60 42 47 34 31 44 48 57 66 71 76 77 78 79 81 84 85 85 83 85 89 90 89 89 86 85 85 84 84 85 86 84 83 84 84 84 84 82 82 81 79 80 80 78 79 78 75 75
54 50 51 49 46 35 39 49 66 70 72 74 78 78 78 80 84 85 83 80 83 90 90 87 87 85 84 84 85 84 84 84 83 83 83 82 82 82 82 82 78 80 79 79 77 77 75 75 73
56 52 48 41 43 48 44 45 70 74 77 78 76 77 78 81 84 87 83 79 86 87 87 86 86 86 86 86 85 83 83 83 81 81 82 82 81 83 83 82 81 81 80 79 75 74 75 75 74

GFSSGP_sfc_temp_060.txt.gz
Temp
80 90 94 91 75 77 73 79 91 91 94 101 101 96 94 98 88 76 100 105 98 89 83 82 79 79 79 79 79 78 78 78 79 79 79 78 78 78 78 78 78 79 80 80 79 79 79 79 79
89 92 92 86 71 68 74 87 87 93 98 102 100 97 94 91 98 99 100 104 97 89 82 83 78 79 79 79 78 78 78 78 78 78 78 78 78 78 78 78 78 79 80 80 80 80 79 79 79
84 94 83 77 72 68 74 90 93 98 101 98 95 100 98 95 100 101 105 102 94 89 86 83 78 78 79 79 78 78 78 78 78 78 78 78 78 78 78 78 78 79 80 80 80 79 79 79 79
89 89 85 72 70 79 81 88 95 97 99 99 98 93 101 107 103 104 106 105 97 93 90 82 78 78 78 79 78 78 78 78 78 78 78 78 78 78 77 77 78 79 80 80 79 79 79 78 78
87 85 72 71 73 80 87 93 96 94 96 96 98 92 95 104 107 105 105 105 101 99 95 82 78 78 78 79 78 78 78 77 78 78 78 78 78 77 77 77 78 78 79 79 79 78 78 78 78
77 81 67 67 73 82 88 93 94 94 96 96 96 95 97 106 103 104 106 104 106 99 92 83 79 78 78 78 78 77 77 77 77 77 78 77 77 77 77 77 78 78 78 79 79 78 77 77 77
75 72 68 71 74 80 87 96 92 92 93 93 100 92 98 101 106 105 106 105 105 102 92 83 81 79 78 78 77 77 77 77 77 77 77 77 77 77 77 77 77 77 78 78 78 78 77 76 76
80 76 69 72 72 74 87 89 92 89 92 102 102 91 91 96 106 105 107 106 106 104 94 87 83 82 80 79 77 77 77 76 76 76 76 76 77 77 77 76 76 77 77 77 77 77 77 76 76
84 68 65 70 72 77 87 83 91 95 92 98 100 99 100 104 106 104 103 104 105 103 99 92 88 84 82 82 81 77 77 77 76 77 76 75 76 77 78 77 78 77 77 77 77 76 76 76 76
76 68 69 78 81 80 85 87 87 88 87 90 96 101 101 102 102 100 100 99 101 101 100 99 90 84 85 90 83 78 80 78 77 78 77 76 76 76 79 79 77 77 76 76 76 76 76 76 76
76 70 76 80 83 84 83 85 90 86 83 91 90 95 98 100 99 100 102 102 101 102 101 99 89 85 87 89 87 82 82 80 79 77 76 76 78 77 79 79 78 75 76 76 76 75 75 76 76
71 78 79 81 84 83 81 86 84 86 87 95 97 98 96 94 94 98 98 96 96 98 96 96 92 87 86 91 90 85 85 83 80 79 77 76 76 75 76 79 78 74 77 74 75 75 75 75 77
73 76 80 83 83 84 85 82 82 83 90 94 96 98 95 95 95 96 98 100 99 96 95 96 90 85 84 85 87 85 84 85 84 82 79 79 78 76 78 77 79 78 78 76 76 77 76 76 77
76 77 78 81 81 83 80 81 82 85 90 90 92 93 95 95 95 96 95 96 98 97 97 97 88 84 86 84 83 83 84 84 85 85 83 79 78 77 79 77 78 79 80 80 77 77 77 77 79
75 69 74 77 79 79 83 75 77 86 89 87 88 90 93 96 97 95 95 92 95 96 97 95 90 86 83 82 84 82 82 85 85 85 84 80 79 77 78 79 78 78 78 78 78 77 77 76 77
66 68 61 73 76 79 77 66 79 85 84 83 86 88 91 93 96 97 97 93 92 94 92 93 98 88 84 83 83 84 85 84 84 84 84 83 80 80 78 79 78 79 77 77 77 76 76 75 75
64 56 60 66 78 77 75 68 79 85 82 81 83 86 89 91 94 93 96 95 92 90 90 91 90 90 85 83 84 83 82 82 83 84 84 83 82 81 80 80 78 78 78 76 76 75 75 73 73
56 59 63 62 71 74 72 73 79 82 83 79 81 83 86 88 90 94 94 95 92 88 86 87 88 88 89 85 84 83 81 81 83 83 83 83 83 82 78 79 78 78 77 76 76 74 75 74 73
63 61 59 65 72 69 69 71 76 81 81 81 81 81 82 85 92 93 93 93 91 86 84 83 83 83 83 82 80 78 78 80 82 82 84 84 82 82 78 78 78 78 76 75 76 75 74 73 73
61 57 57 63 68 66 65 65 73 79 81 81 82 82 82 85 87 91 91 90 87 84 82 82 82 82 82 80 78 80 82 82 82 82 83 83 82 80 79 78 78 77 76 75 75 73 71 71 71
59 57 56 56 63 66 62 60 66 75 80 83 85 84 84 84 85 88 89 87 86 82 80 80 80 80 80 79 78 78 80 81 81 81 80 82 81 81 79 78 78 76 76 75 74 73 71 68 69
53 64 62 59 56 48 62 48 61 69 72 77 82 84 83 84 86 88 88 86 84 83 81 80 79 78 79 78 76 76 76 76 80 81 81 80 81 80 79 77 77 76 76 74 74 74 72 70 67
56 64 60 59 55 53 54 50 56 67 66 73 78 83 84 85 86 87 89 89 89 87 83 79 79 78 79 79 78 77 78 80 82 81 79 78 78 78 79 77 76 76 77 75 74 73 71 70 68
65 60 58 57 53 42 51 51 52 59 66 73 79 82 85 86 87 88 90 89 88 90 88 81 78 78 79 79 78 77 77 78 80 80 78 78 77 74 76 77 76 76 76 75 74 74 72 70 70
61 53 40 39 39 39 53 50 54 64 70 74 78 82 85 87 87 88 88 89 88 87 86 85 82 78 79 79 79 78 79 77 80 77 78 76 74 74 73 75 75 76 76 75 74 72 71 71 69
54 51 38 27 30 35 48 39 54 68 72 76 78 83 83 86 88 87 88 87 89 87 85 84 83 79 80 80 80 79 80 81 82 80 80 77 76 75 75 76 76 76 77 76 73 71 70 71 69
53 47 55 42 43 35 40 46 58 64 67 73 76 80 80 82 84 85 88 86 86 86 85 83 82 80 81 81 80 79 80 80 80 79 80 78 78 79 77 77 76 77 76 75 72 70 71 70 69
56 59 41 40 28 27 40 42 45 56 62 70 73 75 79 80 82 84 85 86 85 85 84 84 82 82 82 82 81 81 80 82 81 80 79 79 77 78 77 77 76 75 75 74 72 72 72 71 69
53 51 52 49 44 35 31 42 55 57 62 66 72 77 78 79 82 84 85 84 83 83 86 83 83 83 81 81 81 80 81 80 79 79 79 77 77 77 77 77 74 73 72 74 72 72 72 71 69
48 51 44 33 36 42 36 39 60 58 58 64 74 77 79 80 82 84 82 81 81 80 85 83 83 83 82 82 81 80 79 78 77 77 77 77 77 78 78 78 75 74 75 74 73 72 72 70 68

GFSSGP_sfc_temp_063.txt.gz
Temp
71 77 77 75 59 56 53 63 75 76 79 88 90 85 80 83 81 67 90 88 84 79 78 79 79 79 79 79 79 78 78 78 78 78 78 78 78 78 78 78 78 79 80 79 79 79 79 79 79
75 82 77 69 55 48 55 72 72 80 86 85 89 88 85 81 90 88 83 86 84 79 77 78 79 79 79 79 78 78 78 78 78 78 78 78 78 78 78 78 78 79 80 79 79 79 79 79 78
78 82 66 60 55 54 57 72 75 84 91 87 85 91 88 84 91 91 88 85 82 78 78 77 79 79 79 79 78 78 78 78 78 78 78 78 78 77 77 77 78 79 80 80 80 79 79 79 78
79 72 69 58 56 65 68 75 80 83 88 90 90 84 91 96 94 92 88 87 83 78 79 78 78 78 79 79 78 78 78 78 78 78 78 78 78 77 77 77 77 79 80 80 79 79 79 78 78
76 67 55 55 61 70 77 81 83 82 84 84 90 84 85 94 96 92 88 89 83 80 78 77 78 78 78 79 78 78 78 77 77 78 78 78 77 77 77 77 77 78 79 79 79 79 78 77 77
67 68 51 52 62 72 78 82 81 79 81 87 86 86 85 93 95 93 92 88 86 83 76 77 78 78 78 78 78 77 77 77 77 77 77 77 77 77 77 77 77 78 78 79 79 78 77 76 76
64 59 54 58 62 69 77 80 76 77 79 83 90 83 85 90 95 95 93 92 88 83 77 76 75 77 78 77 77 77 77 77 77 77 77 77 77 77 77 77 77 77 77 77 78 77 77 76 76
70 65 58 62 62 64 78 81 79 78 81 91 94 81 77 88 95 95 93 89 87 81 78 74 74 75 73 75 77 77 76 76 76 76 76 76 76 76 77 75 76 77 77 77 77 77 76 75 75
74 55 54 60 64 69 78 75 84 86 83 86 89 90 92 94 95 90 89 89 85 81 77 76 74 73 73 72 76 76 77 77 76 76 76 75 71 71 73 75 75 77 77 77 77 76 76 75 75
65 57 59 70 73 72 76 78 79 80 79 82 85 93 96 93 89 90 88 89 86 80 79 78 76 74 74 80 73 71 73 73 72 73 71 70 68 67 74 74 76 77 77 76 76 76 76 76 70
67 59 68 72 75 77 77 78 83 78 73 79 79 84 90 91 88 88 91 91 90 86 85 81 78 76 77 81 74 72 73 72 71 71 70 70 71 70 72 70 73 71 75 72 74 73 72 71 70
61 70 72 73 77 76 74 80 79 79 77 85 86 86 86 88 86 85 83 84 89 90 89 83 80 78 79 82 77 74 74 73 72 72 71 70 70 68 68 70 70 69 71 69 68 69 69 69 71
64 67 72 75 76 76 78 76 77 78 85 88 89 88 83 83 86 87 86 84 86 84 85 83 81 80 81 79 78 77 76 75 74 74 73 73 71 70 71 69 70 70 71 70 70 69 70 70 71
65 67 69 72 72 75 73 74 77 80 85 86 86 83 84 84 84 82 83 82 85 85 81 87 83 82 83 80 79 79 79 78 76 76 74 73 74 72 71 73 71 70 73 72 71 71 70 71 72
64 57 63 67 70 68 74 69 71 80 83 82 84 86 86 83 86 86 84 83 82 83 84 82 80 77 81 79 76 75 75 77 78 79 76 74 74 73 74 72 74 71 73 73 72 71 71 68 73
56 55 48 60 68 70 67 57 72 78 80 79 82 84 86 83 82 85 89 88 83 82 81 82 87 80 78 77 76 75 74 74 74 75 77 75 75 75 72 74 71 74 70 72 72 71 71 70 69
49 44 49 56 67 67 65 61 72 77 78 77 80 81 83 84 82 79 84 83 82 81 78 81 82 81 79 77 75 74 75 75 77 74 74 76 75 75 75 72 72 70 75 69 69 68 69 68 67
44 46 53 54 60 63 60 63 70 75 76 75 77 79 80 81 81 83 81 82 81 80 78 79 78 79 77 75 73 71 72 72 72 73 74 75 76 76 75 74 71 71 70 69 68 68 68 67 67
56 53 51 57 63 59 57 58 63 68 70 72 76 74 78 79 86 86 84 82 79 76 77 78 77 75 75 73 72 70 71 70 72 74 77 76 75 76 76 71 71 71 69 69 69 68 68 66 66
55 51 50 57 62 59 57 56 62 65 66 69 71 76 77 78 80 83 85 85 78 77 78 76 78 73 74 72 71 72 70 72 73 73 75 76 75 74 75 72 70 70 69 69 69 68 65 65 65
53 50 51 51 58 59 56 52 56 64 67 70 72 75 78 77 78 81 81 82 83 74 73 75 75 75 73 73 70 70 71 72 72 71 72 73 75 75 73 72 70 70 73 68 68 67 66 63 64
46 56 55 54 49 41 53 38 51 58 61 65 69 72 74 77 80 81 81 78 73 77 78 77 75 75 74 73 71 72 76 71 69 71 71 72 75 73 73 72 71 70 71 68 68 68 66 65 63
47 56 54 53 47 43 46 39 47 55 55 60 65 70 73 76 79 80 81 78 77 78 76 76 76 76 76 75 77 75 70 70 70 70 72 70 71 73 74 71 71 70 69 69 68 67 66 65 63
57 50 50 50 42 34 43 41 43 49 55 60 65 69 73 76 77 81 82 78 74 75 78 77 74 74 75 73 73 72 71 69 69 69 72 72 69 70 72 74 70 72 71 69 68 68 66 65 64
52 43 29 26 27 30 46 41 41 50 59 63 64 67 71 74 77 79 76 75 72 74 73 75 75 73 73 73 74 73 72 69 70 70 72 70 68 67 69 72 71 71 70 70 70 67 66 65 64
46 41 29 24 25 31 45 35 43 56 61 63 62 68 72 73 76 78 81 79 74 76 73 73 72 71 71 73 73 74 70 69 72 72 73 72 71 70 70 72 70 71 72 68 67 66 65 65 64
46 38 44 33 34 29 33 43 52 57 57 58 58 68 70 73 70 78 74 72 72 72 72 72 70 69 71 72 72 70 71 71 73 72 73 72 70 71 71 70 70 70 69 68 66 65 65 65 63
49 50 35 32 21 23 33 37 39 43 43 47 48 53 63 70 73 69 72 71 71 71 72 72 70 70 71 71 71 71 71 72 74 74 73 72 71 72 70 70 69 69 68 67 66 65 65 64 63
41 36 39 35 32 25 24 33 45 41 44 43 48 51 55 64 73 70 70 71 73 72 71 71 70 70 70 71 71 71 71 72 74 72 72 72 72 72 71 70 69 69 70 67 65 65 65 64 63
46 41 40 31 30 32 33 33 46 44 45 47 48 52 55 68 67 70 69 70 70 70 70 70 70 72 73 74 72 72 71 72 70 69 68 70 70 72 71 70 69 72 71 69 66 66 66 64 63

GFSSGP_sfc_temp_066.txt.gz
Temp
71 74 73 71 58 53 49 57 68 69 72 76 82 81 80 81 76 67 80 86 82 78 77 78 79 79 79 79 79 78 78 78 78 78 78 78 78 78 78 78 78 79 79 79 79 79 79 79 78
73 78 72 64 53 46 51 62 66 69 77 82 86 82 78 78 84 79 82 83 83 77 76 77 79 79 79 79 78 78 78 78 78 78 78 78 78 78 78 78 78 79 79 79 79 79 79 78 78
76 77 64 57 50 49 53 65 67 75 81 81 79 86 83 81 84 84 82 83 80 77 77 77 79 79 79 78 78 78 78 78 78 78 78 78 78 77 77 77 78 79 79 79 80 79 79 78 78
75 69 64 53 52 60 64 70 74 76 81 81 83 82 85 91 89 86 82 82 80 76 77 78 78 79 79 78 78 78 78 78 78 78 78 78 78 77 77 77 78 79 79 80 79 79 78 78 78
74 62 52 48 55 64 71 75 75 73 75 79 82 81 80 88 88 84 82 83 79 76 77 77 78 78 79 79 78 77 77 77 77 78 78 78 77 77 77 77 78 78 79 79 79 78 78 77 77
64 66 48 48 59 68 71 74 73 73 76 78 79 79 78 86 84 84 84 83 81 77 76 76 78 78 78 78 78 77 77 77 77 77 77 77 77 77 77 77 77 78 78 78 78 78 77 76 76
60 54 54 52 59 64 71 75 74 73 74 75 83 76 77 82 86 86 85 83 81 79 75 75 75 77 78 78 77 77 77 76 76 76 76 76 77 76 76 76 77 77 77 77 77 77 76 76 75
65 57 50 55 57 59 72 74 74 74 78 86 89 77 75 84 87 86 83 81 79 75 75 72 73 74 74 74 77 77 77 77 76 76 76 76 76 76 76 75 76 77 77 77 77 77 76 75 75
71 53 48 54 60 64 73 68 78 82 79 82 86 86 87 87 86 83 80 76 75 76 72 71 71 71 71 72 75 77 77 77 77 76 76 75 71 72 73 74 75 77 77 77 76 76 76 75 75
62 49 57 67 69 67 72 73 75 77 76 77 81 86 90 89 85 84 80 77 76 75 73 71 71 70 70 77 73 72 74 73 72 72 71 70 68 68 72 73 76 76 76 76 76 76 75 75 69
61 57 64 68 71 73 72 73 78 74 71 76 74 81 85 86 82 85 83 82 80 79 77 74 73 72 73 77 72 71 71 70 70 69 69 68 69 67 70 67 71 69 74 70 73 72 71 69 68
57 65 67 69 72 71 69 75 73 76 76 82 82 84 82 78 82 78 81 84 85 81 79 77 76 74 75 77 73 72 71 69 69 69 68 68 66 65 65 66 66 66 68 67 66 67 68 68 68
57 62 66 69 70 71 73 71 72 74 81 85 86 84 81 81 79 80 82 80 84 79 80 78 75 74 75 76 74 72 71 71 71 69 69 69 68 66 66 67 65 67 66 67 65 66 67 67 68
58 60 61 64 64 66 67 69 73 76 81 82 83 82 81 80 81 77 80 76 77 82 78 79 77 77 77 77 75 75 74 71 70 70 70 70 70 68 66 67 67 67 68 68 68 67 67 67 68
58 53 59 61 62 63 68 63 66 75 79 78 81 83 83 81 82 79 79 78 77 78 82 78 78 77 78 78 75 76 76 75 73 72 71 71 70 69 68 68 68 68 69 68 68 66 65 65 67
51 48 42 57 63 65 64 55 68 73 74 74 77 81 83 82 81 80 80 79 77 77 77 78 84 78 78 78 77 76 75 75 74 73 71 71 71 70 69 69 69 69 68 69 68 67 64 64 65
43 38 42 51 62 62 60 56 65 71 72 72 75 77 80 83 78 78 78 80 78 78 81 81 80 76 77 78 75 73 72 72 73 72 72 71 71 71 71 71 70 68 68 68 68 67 66 64 63
41 41 46 47 56 57 54 55 62 66 68 66 67 70 75 78 81 79 79 79 78 77 78 84 84 80 79 79 73 70 70 70 69 71 71 72 72 72 71 71 69 69 68 66 65 64 64 65 68
50 48 46 51 58 55 54 54 59 63 62 62 63 66 69 71 80 85 80 78 77 73 73 72 76 73 75 70 71 68 73 69 68 70 72 73 73 73 71 71 69 70 69 69 69 66 65 63 64
50 47 46 51 57 54 52 53 59 62 62 62 64 66 67 70 74 79 82 77 74 74 72 71 76 76 77 80 78 72 73 68 70 72 72 73 73 72 72 71 71 70 67 66 66 66 63 63 62
47 45 45 46 53 55 51 48 53 60 61 64 64 65 67 68 71 75 80 81 78 72 70 75 76 77 78 78 69 67 67 67 67 68 68 71 72 72 73 71 71 69 68 67 66 66 65 63 63
41 51 50 49 44 35 50 35 48 53 54 59 63 63 63 66 69 72 77 79 78 75 74 76 78 77 78 75 73 69 69 68 68 69 70 71 71 72 72 72 71 68 68 67 66 67 64 63 62
45 53 50 48 42 39 42 35 45 51 51 56 60 63 66 68 70 71 74 78 81 77 74 76 77 76 77 74 77 74 68 70 67 68 68 69 69 71 72 70 69 68 67 67 68 65 64 63 62
55 49 44 42 38 29 40 37 40 46 50 55 59 61 64 67 70 73 75 77 78 76 72 74 74 75 74 73 73 73 71 68 67 66 66 67 68 68 70 70 69 69 68 68 67 66 68 65 63
46 38 26 25 25 27 41 37 40 49 53 55 54 51 54 57 63 69 72 73 76 68 71 73 71 72 70 72 70 71 72 70 69 67 68 67 67 66 68 69 68 68 68 69 67 68 66 64 62
42 38 26 23 24 30 41 30 39 52 51 52 54 53 55 56 57 59 70 73 76 77 73 74 73 74 71 70 70 71 72 71 69 68 70 71 71 69 69 68 69 69 70 68 67 66 66 64 63
41 34 40 32 31 23 30 38 47 49 49 50 50 53 53 56 57 57 63 73 75 78 75 75 76 76 73 72 72 67 69 67 68 68 70 70 70 70 69 69 68 69 68 69 66 64 64 63 62
43 46 30 29 19 19 28 33 35 41 43 46 48 51 53 57 57 57 62 68 75 77 76 70 75 76 73 71 69 70 68 69 68 69 69 69 68 71 69 68 68 68 69 68 65 63 63 63 62
37 34 38 32 30 24 24 29 41 41 44 43 46 49 50 51 53 58 60 67 68 66 67 68 69 68 65 66 66 67 68 69 69 70 70 69 69 69 69 69 68 67 67 65 63 63 63 63 62
43 37 35 24 28 31 27 30 46 43 44 45 47 48 50 53 55 58 58 59 67 66 66 67 65 66 68 69 69 68 68 69 69 70 69 69 69 70 71 70 68 68 68 65 64 64 64 63 62

GFSSGP_sfc_temp_069.txt.gz
Temp
70 73 70 70 57 51 46 54 58 64 68 72 75 75 75 81 75 66 76 82 77 78 76 77 79 79 79 79 79 79 78 78 78 78 78 78 78 78 78 78 78 79 79 79 79 79 79 79 78
71 76 72 62 50 44 48 57 59 65 71 75 76 79 75 75 82 76 77 79 80 78 76 76 79 79 79 79 79 78 78 78 78 78 78 78 78 78 78 78 78 79 79 79 79 79 79 79 78
75 76 65 57 47 47 52 62 63 70 75 74 72 81 80 79 82 79 82 79 80 77 77 76 79 78 79 79 78 78 78 78 78 78 78 78 78 77 77 77 78 79 80 80 79 79 79 78 78
74 70 62 51 51 58 61 66 67 71 76 75 77 74 83 86 81 84 82 80 78 76 77 78 78 78 79 79 78 78 78 78 78 78 78 78 78 77 77 77 78 79 79 80 79 79 78 78 77
71 64 54 48 54 60 68 70 69 69 70 74 75 74 75 84 84 81 81 81 78 75 76 77 78 78 79 79 78 78 78 78 78 78 78 78 77 77 77 77 78 78 79 79 79 78 78 77 77
64 61 47 49 59 65 68 72 69 68 71 76 74 74 77 81 79 81 82 82 81 76 75 76 78 78 78 78 78 77 77 77 77 77 77 77 77 77 77 77 77 78 78 78 78 78 77 76 76
61 56 52 55 59 62 68 73 67 68 70 73 79 73 77 78 81 80 79 79 79 77 75 75 75 77 78 78 77 77 77 77 77 77 77 77 77 77 77 77 77 77 77 77 77 77 76 76 75
65 58 52 55 60 59 70 71 70 70 73 82 83 73 72 78 81 79 75 73 72 72 74 73 72 74 73 74 77 77 76 76 76 76 76 76 76 76 76 75 76 77 77 77 77 76 76 75 75
69 51 48 55 58 61 68 66 71 77 75 77 80 79 81 81 80 76 73 70 69 72 68 70 71 71 71 71 75 77 77 77 76 76 76 75 73 73 74 74 75 77 77 77 76 76 75 75 75
60 48 54 64 66 64 69 66 70 72 72 72 76 82 83 84 80 76 75 74 70 70 68 70 70 70 70 75 71 71 72 73 73 73 72 72 69 69 71 73 76 76 76 76 76 75 75 75 68
58 54 62 66 68 69 68 69 74 70 68 71 72 76 81 80 80 80 77 78 77 76 73 70 71 70 70 73 70 70 70 69 69 69 69 68 67 67 69 67 69 68 74 68 72 71 70 68 67
51 61 64 65 70 68 66 71 70 72 72 78 79 79 79 79 79 80 80 77 78 76 75 73 73 73 70 72 71 71 70 69 68 68 67 66 65 64 65 66 65 66 66 66 66 66 67 67 67
52 57 62 63 64 65 68 67 68 70 77 81 81 80 77 77 76 78 79 80 81 79 77 74 74 74 73 71 72 70 69 70 69 67 67 66 65 65 64 65 64 64 64 65 64 65 66 66 66
54 54 57 61 62 64 64 66 69 73 76 78 78 77 77 76 76 75 77 77 75 80 78 77 73 73 73 72 71 71 70 70 67 67 68 68 67 66 64 63 64 63 65 65 65 64 65 65 65
53 49 54 59 61 60 66 59 63 73 75 74 76 77 78 76 77 76 76 75 75 76 79 77 75 73 72 70 71 71 72 70 70 70 68 69 68 65 64 63 63 66 66 65 64 63 63 63 65
47 44 39 52 57 61 61 52 65 70 70 70 72 75 77 76 77 77 76 78 75 73 73 78 81 75 75 75 72 75 72 71 72 70 69 69 68 66 64 64 65 65 64 64 65 63 61 62 62
42 36 39 48 57 57 55 49 62 67 66 65 67 70 72 70 72 73 74 76 77 75 72 72 76 75 75 75 75 75 73 72 72 69 69 69 69 68 67 67 67 65 64 64 65 63 64 61 61
38 38 42 43 52 54 51 53 58 63 65 63 64 66 68 71 71 73 74 74 74 75 73 71 73 75 77 77 77 72 71 72 69 71 70 69 70 70 68 67 66 66 63 63 63 63 63 62 63
46 43 42 48 54 50 49 51 56 59 60 60 62 63 64 66 72 74 74 74 71 71 72 72 72 73 76 76 73 71 73 72 68 69 71 70 70 70 68 68 66 67 66 66 66 63 62 61 62
46 41 41 47 53 51 48 49 55 58 57 59 60 61 63 64 66 72 74 73 72 70 70 71 71 74 72 76 78 77 79 68 75 70 69 70 70 70 68 68 67 67 66 64 64 64 61 62 61
42 41 41 42 48 50 47 45 49 54 57 60 59 61 62 62 63 66 71 69 69 71 67 70 72 75 75 77 70 65 67 67 67 67 67 68 70 70 70 68 68 67 68 66 65 65 64 61 61
38 49 48 45 40 31 46 31 43 48 52 55 58 57 59 61 63 65 69 70 72 74 76 69 70 72 74 76 70 70 77 77 74 68 66 68 69 70 71 69 69 67 68 66 66 65 64 62 63
44 50 46 45 39 34 38 31 39 48 47 50 54 57 56 55 57 59 63 68 72 74 74 71 70 72 75 75 76 74 69 73 66 68 68 66 67 70 70 69 68 68 67 66 66 64 63 63 61
52 45 42 38 33 24 36 35 39 42 45 48 52 52 53 55 57 58 61 64 65 71 74 73 73 72 74 74 74 76 77 72 66 66 67 66 67 68 70 69 68 68 67 66 66 67 66 63 62
43 33 24 23 24 25 38 33 40 47 51 51 47 50 52 53 54 56 57 58 61 63 70 66 68 71 73 73 74 76 76 76 72 68 67 66 66 66 68 68 68 67 67 67 68 67 65 65 63
39 35 23 19 23 27 39 29 36 48 50 51 52 51 53 53 56 56 57 57 60 62 65 71 70 69 71 73 74 75 76 74 69 67 66 67 68 68 68 68 68 68 68 67 68 65 64 63 62
38 32 37 28 28 21 28 37 44 50 48 49 49 52 51 52 54 55 57 58 59 61 64 68 71 71 71 72 74 71 70 66 66 65 67 67 67 68 68 69 68 68 68 68 67 64 63 63 62
41 43 29 22 16 18 27 30 33 41 45 46 47 47 48 51 52 53 55 57 60 62 63 67 72 74 73 72 73 70 69 68 65 66 67 67 67 68 68 68 68 67 67 68 66 65 63 62 61
36 32 33 29 30 24 22 28 40 41 43 43 45 47 47 50 52 53 55 57 59 62 63 65 71 73 72 67 66 65 64 65 66 67 67 68 68 68 69 68 67 67 67 67 66 64 63 62 61
41 36 34 23 26 27 26 30 47 43 44 45 44 47 49 51 51 53 54 55 60 61 63 63 62 68 69 67 65 64 64 66 66 67 67 67 67 69 69 68 67 68 69 67 65 63 63 62 61

GFSSGP_sfc_temp_072.txt.gz
Temp
72 73 71 69 57 50 47 52 56 58 65 69 73 71 72 74 71 63 75 80 77 76 76 78 79 79 79 79 79 78 78 78 78 78 78 78 78 78 78 78 78 79 80 80 80 79 79 79 79
73 76 71 62 50 44 50 56 54 60 69 72 72 70 69 71 83 78 73 78 80 78 76 76 79 79 79 79 78 78 78 78 78 78 78 78 78 78 78 78 79 79 80 80 79 79 79 79 78
74 74 66 56 45 47 53 60 60 66 71 69 69 76 74 75 79 80 79 77 79 77 76 76 79 79 79 79 78 78 78 78 78 78 78 78 78 78 78 78 78 79 80 80 79 79 79 78 78
73 67 62 55 50 58 61 64 63 67 70 71 71 71 79 84 82 81 79 78 79 76 76 77 79 79 79 79 78 78 78 78 78 78 78 78 78 77 77 78 78 79 80 80 79 79 78 78 78
70 61 49 45 55 60 66 69 66 66 67 70 70 71 73 80 81 78 78 79 78 75 75 76 78 78 79 79 78 78 78 78 78 78 78 78 78 77 77 77 78 79 79 79 79 78 78 77 77
61 60 45 45 60 65 68 71 66 63 67 71 70 70 72 79 77 75 78 77 80 76 74 75 78 78 78 78 78 78 78 78 78 78 78 78 77 77 77 77 78 78 78 79 79 78 77 76 76
59 55 47 50 57 62 69 71 66 65 67 70 74 68 74 77 77 78 76 76 75 75 73 73 75 77 78 78 77 77 77 77 77 77 77 77 77 77 77 77 77 78 77 78 78 77 76 76 75
62 57 49 53 57 58 69 70 67 66 69 78 78 68 70 74 76 74 71 70 70 71 72 71 71 74 74 75 77 77 77 77 77 77 77 77 77 77 77 76 76 77 77 77 77 76 76 75 75
62 51 48 54 58 60 67 65 69 74 72 73 77 75 77 77 77 72 69 69 68 71 69 69 70 71 71 71 75 76 77 77 77 77 77 75 74 75 75 75 76 77 77 77 76 76 75 75 75
56 47 52 61 65 61 66 66 69 69 69 68 72 78 80 78 76 74 71 70 67 68 68 69 70 70 70 74 71 72 73 74 74 74 74 74 74 72 73 74 76 77 76 76 76 76 75 76 71
52 49 59 63 66 67 66 67 72 68 66 69 68 72 76 77 74 74 75 74 71 72 70 70 69 69 71 73 69 70 71 70 70 70 70 70 69 70 71 69 72 71 75 71 74 73 72 71 70
47 56 58 62 65 64 63 68 67 69 68 75 75 75 74 74 72 73 76 76 77 75 73 73 71 70 69 72 71 72 71 70 69 69 68 67 66 66 67 67 67 67 68 68 68 69 69 69 70
49 52 58 61 63 64 67 66 67 68 73 77 78 75 74 73 73 72 74 77 79 78 76 75 72 71 71 70 72 70 71 71 71 68 68 68 66 65 65 66 66 66 67 67 66 67 68 68 69
52 51 56 61 62 63 63 65 67 71 74 75 75 73 73 73 74 70 71 71 76 78 79 78 75 73 72 71 70 71 71 69 67 68 69 68 67 65 65 65 65 65 66 66 67 66 67 67 68
52 47 52 58 59 58 62 57 61 69 72 71 72 73 72 71 73 72 71 69 73 76 77 76 76 75 71 70 67 67 69 69 67 67 67 69 67 66 65 65 64 66 65 66 66 66 66 66 67
45 42 38 50 56 59 58 49 61 65 67 67 68 69 70 69 69 70 71 71 72 71 71 76 79 74 72 71 67 66 67 68 70 69 69 69 68 67 65 65 65 65 65 66 66 65 65 65 65
40 34 37 46 53 54 52 47 60 65 64 64 66 66 67 68 68 69 71 71 70 71 70 70 74 75 73 72 72 68 68 67 68 68 68 69 69 68 67 66 66 65 65 65 66 65 66 64 64
35 35 40 40 49 50 48 49 54 60 61 61 63 65 65 66 68 69 69 70 69 69 68 68 71 73 72 72 70 68 68 67 68 69 71 70 69 69 67 67 66 65 65 65 65 65 65 66 66
44 41 40 45 51 46 46 48 52 56 57 58 60 62 63 64 69 70 70 69 68 68 67 68 68 68 70 69 68 68 70 72 71 73 73 70 70 69 68 67 66 66 65 65 65 65 65 64 65
43 40 39 45 50 48 45 47 52 55 54 57 58 60 61 62 65 69 69 67 65 63 64 65 66 66 68 72 73 73 74 75 76 74 71 71 70 69 68 67 66 66 66 65 65 65 63 65 64
42 40 39 40 45 46 43 40 44 51 53 56 58 59 60 60 60 63 65 65 64 63 62 64 65 66 66 69 68 67 68 67 68 68 69 71 71 70 69 68 67 66 67 65 65 66 65 63 63
36 47 45 43 38 30 43 27 40 48 50 52 55 55 55 56 57 60 62 62 63 64 65 64 64 64 67 67 69 70 74 75 76 71 74 69 70 70 70 68 68 68 68 66 66 67 67 65 63
42 47 43 42 36 31 35 28 36 45 44 47 51 53 53 54 54 57 59 62 64 63 63 63 62 64 66 66 70 71 72 78 74 68 68 68 68 70 70 69 68 68 68 68 67 65 66 67 65
49 43 40 34 31 23 33 32 31 38 44 47 52 53 53 53 54 56 59 60 60 63 62 62 61 60 64 66 69 71 72 72 67 67 69 67 67 68 69 70 69 69 68 68 68 68 67 65 66
41 32 24 22 22 24 35 31 37 44 51 49 50 50 52 52 52 54 56 57 59 60 61 62 62 61 63 65 68 70 72 73 69 71 69 66 66 67 68 69 68 68 69 68 68 67 67 66 65
37 34 23 18 21 25 36 28 35 47 51 50 51 50 51 51 50 52 55 56 57 58 59 60 60 61 63 65 68 70 72 75 74 73 70 70 70 69 69 69 69 69 69 69 69 67 67 65 65
35 30 35 27 25 20 26 34 44 50 48 48 48 50 49 48 49 52 55 56 56 57 58 59 60 61 62 64 67 69 72 72 73 70 70 70 69 69 69 69 69 69 69 69 68 67 66 66 65
40 42 27 21 15 12 25 28 32 41 46 46 47 48 49 48 49 52 55 55 56 57 58 59 61 61 62 64 68 70 70 71 70 67 68 68 68 69 68 69 69 69 69 69 68 67 66 65 64
34 30 31 27 23 18 22 28 38 40 43 43 45 47 46 46 48 52 53 55 55 57 58 59 61 61 62 65 68 69 69 68 67 69 69 68 68 68 69 69 69 69 68 68 67 67 66 65 64
39 34 32 22 25 26 25 29 47 47 46 43 45 49 47 47 48 52 53 55 56 57 59 60 61 61 63 66 69 68 66 65 65 67 67 68 68 69 69 70 69 68 68 68 67 66 66 64 63

GFSSGP_sfc_temp_075.txt.gz
Temp
79 80 83 84 72 70 64 67 71 73 76 83 85 83 83 86 83 79 88 89 92 89 86 83 79 79 80 80 80 79 79 79 79 79 79 79 79 79 79 79 79 79 80 80 80 80 80 79 79
80 81 80 74 68 62 63 69 70 75 81 84 84 82 81 81 92 97 94 89 92 88 86 86 79 79 80 80 79 79 79 79 79 78 79 79 79 79 79 78 79 80 80 80 80 80 80 79 79
79 81 76 73 66 61 62 69 75 78 83 80 82 86 84 85 91 94 93 90 91 88 87 85 79 79 79 79 79 79 79 79 79 79 79 78 78 78 78 78 79 80 80 80 80 80 79 79 79
80 80 75 66 62 62 67 72 75 78 84 83 84 79 89 90 90 92 91 90 89 91 89 82 79 79 79 79 79 78 78 79 79 79 78 78 78 78 77 78 78 79 80 80 80 79 79 79 78
81 75 65 61 61 66 72 76 79 77 79 83 82 79 82 91 91 89 88 89 89 90 90 86 78 79 79 79 79 78 78 78 78 78 78 78 78 77 77 78 78 79 80 80 79 79 78 78 77
73 74 61 59 62 70 75 77 76 77 80 82 82 80 83 93 87 87 88 89 92 88 87 87 79 78 79 79 78 78 78 78 78 78 78 78 78 77 77 77 78 78 79 79 79 78 77 77 76
70 66 63 59 61 66 73 77 75 77 78 80 85 78 84 90 85 85 86 88 89 88 86 86 85 82 78 78 78 77 77 77 77 77 77 77 77 77 77 77 77 78 78 78 78 77 77 76 76
73 69 61 62 62 63 75 77 79 77 78 86 86 76 78 86 84 85 86 85 87 87 88 86 85 87 85 84 78 77 77 77 77 77 77 77 77 77 77 76 77 77 77 77 77 77 76 76 75
73 64 60 62 62 67 75 73 76 82 79 81 84 83 86 91 86 85 84 85 84 84 84 86 86 86 86 86 83 78 78 77 77 78 77 77 84 83 83 80 78 77 77 77 77 77 76 75 75
69 63 64 69 71 70 73 72 72 73 75 77 80 86 88 90 88 85 83 84 82 82 81 84 83 83 83 84 83 83 84 84 83 84 83 84 84 82 84 81 76 77 77 77 76 76 76 77 85
66 62 66 69 72 72 70 70 74 72 69 76 76 80 86 86 86 84 86 87 85 81 77 83 79 77 80 83 83 83 84 84 83 82 81 82 81 78 82 84 83 82 78 83 81 81 83 83 84
61 65 66 70 70 69 67 70 70 72 73 79 81 84 84 84 84 83 81 87 86 83 80 81 80 77 78 82 82 82 83 82 81 82 80 80 79 79 81 82 83 81 83 82 81 83 82 81 81
62 63 66 69 69 70 71 67 69 72 77 79 81 83 83 84 86 84 80 86 86 84 84 83 79 78 79 77 81 81 80 81 82 82 81 81 82 79 81 81 82 82 82 82 81 81 80 80 80
62 63 65 68 69 70 67 70 70 73 75 77 78 79 82 82 83 83 81 79 83 83 85 85 80 75 79 77 77 79 78 81 81 81 81 79 80 79 80 79 81 81 81 82 81 80 79 80 81
62 58 62 66 68 67 70 64 65 70 73 73 74 79 80 80 83 81 82 79 76 80 81 81 81 81 79 77 78 79 77 78 80 80 79 78 77 77 77 79 78 81 79 78 78 78 78 79 79
57 57 54 62 63 66 66 59 65 69 68 69 71 73 75 78 80 81 82 81 77 73 76 79 84 81 77 75 78 77 74 77 79 78 79 77 75 75 75 78 79 80 78 79 79 79 78 79 79
54 51 50 55 64 62 61 56 65 68 66 65 66 69 73 75 78 79 81 81 79 78 73 75 78 82 80 75 78 76 76 77 77 78 76 76 75 76 73 77 77 76 78 78 78 78 78 77 77
47 49 51 51 60 60 59 58 63 65 64 64 65 66 69 73 76 79 79 79 79 79 76 69 75 79 78 77 77 78 78 78 78 77 78 76 74 75 75 75 78 77 76 78 77 76 77 78 79
53 50 49 54 60 55 56 56 60 63 64 64 65 65 66 68 76 78 77 77 76 76 74 73 69 71 73 78 79 77 77 77 78 79 78 78 76 76 75 75 78 77 74 77 75 76 74 76 76
51 50 50 54 57 56 55 54 59 63 63 64 65 66 65 67 68 72 73 74 73 73 72 72 72 73 74 74 75 79 79 80 80 80 80 80 75 72 75 77 77 76 78 75 74 74 76 77 76
52 49 49 49 54 56 53 53 55 61 65 65 66 68 68 64 66 66 68 70 72 70 71 71 70 71 73 76 79 79 80 79 80 81 79 77 77 73 75 76 78 77 77 78 75 74 74 75 73
48 55 53 50 48 43 53 41 52 58 59 61 64 66 67 65 64 65 65 66 67 70 71 71 70 69 73 75 77 76 79 79 84 83 84 82 77 79 78 78 78 77 79 77 77 76 76 75 72
52 54 52 51 48 46 48 42 50 54 55 58 63 66 67 67 66 65 64 64 66 68 69 69 68 69 69 70 73 76 76 81 83 85 81 79 79 80 80 79 77 77 78 77 76 74 73 74 76
55 52 52 47 46 38 45 44 47 52 55 57 63 66 66 66 66 66 66 65 65 67 68 68 67 67 69 69 71 72 73 77 80 79 79 78 81 80 79 80 78 78 78 77 76 74 72 73 76
53 48 39 37 37 38 45 42 47 55 59 61 62 64 66 66 66 65 64 65 64 65 66 66 67 66 68 68 69 71 73 75 76 77 79 78 79 80 78 78 77 78 77 76 75 74 73 74 75
49 47 38 27 33 39 47 38 49 58 62 63 63 62 64 65 66 65 64 64 66 65 65 65 65 65 67 67 68 70 73 77 79 79 79 79 81 82 80 78 78 77 76 75 75 75 77 76 76
46 42 47 40 41 34 41 47 54 59 58 59 60 60 62 64 64 63 64 64 64 65 64 64 64 65 66 67 67 66 69 72 75 75 73 75 79 82 78 78 76 76 76 76 75 77 76 76 74
50 52 38 38 27 26 38 41 43 51 54 57 58 60 62 63 64 63 63 63 65 66 65 65 66 65 67 68 69 69 70 70 72 75 73 74 77 79 77 76 77 77 77 77 76 77 77 75 72
46 43 42 41 38 31 31 40 52 53 56 55 57 59 61 62 63 63 63 65 66 66 67 65 64 65 66 68 69 69 71 73 75 75 76 76 78 79 79 78 77 77 77 78 76 77 76 73 69
50 46 45 36 35 38 37 38 57 56 57 56 57 60 62 62 63 64 64 64 64 64 63 64 63 64 66 68 70 70 71 74 75 75 76 77 78 79 80 79 79 79 79 77 77 76 75 70 68

GFSSGP_sfc_temp_078.txt.gz
Temp
85 91 90 88 79 81 76 77 84 82 84 91 93 90 91 95 90 87 100 103 106 102 94 88 80 80 80 80 80 80 79 79 80 80 79 79 79 79 79 79 79 80 80 80 80 80 80 80 80
93 90 92 80 73 70 75 81 81 85 89 93 93 92 90 89 98 99 105 102 104 101 94 92 79 80 80 80 79 79 79 79 79 79 79 79 79 79 79 79 79 80 80 81 81 80 80 80 80
89 91 85 78 69 68 74 80 84 87 90 90 89 94 90 89 96 97 106 101 103 99 96 92 79 80 80 80 79 79 79 79 79 79 79 79 79 79 78 79 79 80 81 81 81 80 80 80 79
91 90 86 71 71 74 75 83 84 85 90 92 91 87 94 98 96 98 102 103 103 101 99 86 79 79 79 80 79 79 79 79 79 79 79 79 79 78 78 78 79 80 81 81 80 80 79 79 79
91 86 74 69 71 75 81 82 84 85 87 89 90 85 88 97 99 98 98 101 102 103 101 92 79 79 79 80 79 79 79 79 79 79 79 79 79 78 78 78 79 79 80 80 80 79 79 78 78
81 83 69 66 72 74 79 84 83 86 88 90 87 87 89 100 97 96 97 98 104 102 99 93 80 79 79 79 79 79 78 78 78 79 79 78 78 78 78 78 78 79 79 79 79 79 78 77 77
78 76 71 72 72 74 77 85 82 84 86 87 91 83 90 95 98 97 95 97 102 103 98 94 89 84 79 78 78 78 77 77 78 78 78 78 78 78 78 78 78 78 78 78 79 78 77 77 77
83 79 71 74 70 71 82 81 85 83 83 94 92 83 84 93 100 102 98 96 101 101 100 96 92 93 90 89 78 78 77 77 77 77 77 77 77 77 77 77 77 78 78 78 78 77 77 76 76
86 72 69 72 72 75 82 78 86 87 85 89 91 90 93 97 101 100 98 93 97 98 98 98 97 95 94 94 88 79 78 78 77 79 77 78 89 86 86 82 79 78 78 78 77 77 76 76 76
77 72 73 81 82 79 80 79 80 77 79 82 88 93 95 96 97 95 95 93 93 94 97 98 97 95 95 97 93 88 90 89 88 88 87 88 90 91 91 86 78 77 77 77 77 77 76 77 90
77 71 80 81 83 83 80 81 79 76 75 81 83 86 90 92 93 94 95 92 93 96 95 95 91 92 94 96 95 93 93 92 91 89 89 88 92 91 90 92 88 86 79 87 83 84 85 87 90
70 77 78 80 82 78 77 82 76 77 79 82 86 86 88 90 91 93 94 91 90 94 91 86 87 85 88 94 93 94 94 94 93 92 88 88 89 88 88 92 93 88 91 87 89 90 88 88 88
71 75 76 78 79 78 80 77 77 77 82 82 84 86 86 89 90 93 94 92 90 90 92 92 86 84 84 83 90 88 91 93 93 92 90 90 90 87 89 90 92 92 93 92 90 89 89 87 87
74 74 74 77 77 78 75 77 79 81 81 79 82 84 86 88 88 90 92 89 88 82 86 92 90 80 85 81 82 86 86 92 92 93 91 87 90 88 90 88 89 91 92 93 91 89 88 86 88
72 66 72 74 75 74 77 70 73 82 79 78 78 81 83 84 90 88 89 86 84 83 81 86 89 89 84 85 84 83 89 87 89 90 89 88 86 86 85 89 88 91 90 86 88 87 86 86 87
66 67 62 74 70 74 72 64 75 77 76 75 74 73 79 81 87 88 88 86 86 82 78 84 88 90 87 80 83 88 86 89 89 87 90 86 84 85 84 88 87 88 88 88 88 87 87 86 87
65 59 61 65 71 70 69 66 76 77 75 73 74 72 74 79 82 86 86 83 83 84 76 74 83 88 85 83 85 86 86 86 89 90 90 87 84 83 83 87 84 84 86 85 88 87 86 86 85
59 58 60 59 68 68 66 66 73 76 75 74 75 74 73 75 79 84 84 84 81 83 79 73 74 81 83 88 84 84 85 85 88 90 88 85 85 82 81 81 79 80 81 85 87 83 87 86 87
61 59 58 63 67 64 63 65 69 74 74 74 75 74 75 73 79 82 82 81 80 77 78 77 75 71 79 81 86 88 84 81 83 89 86 86 84 84 78 81 80 76 82 81 85 83 80 84 86
60 58 58 63 66 63 62 62 68 72 73 75 75 75 75 74 75 77 79 79 77 76 76 75 75 75 76 74 77 83 83 89 84 89 87 87 86 83 81 80 81 79 79 81 82 80 83 84 86
60 57 57 56 62 64 62 59 65 70 72 74 76 75 75 74 72 73 73 75 77 76 75 76 75 75 76 72 74 76 79 79 85 86 84 85 84 84 81 82 81 82 84 86 82 81 79 84 85
54 63 59 57 56 51 62 48 61 67 68 68 71 72 74 74 72 72 72 72 73 75 76 76 75 74 78 77 73 70 71 76 77 83 87 89 86 85 85 83 84 82 86 85 86 84 83 81 83
58 62 60 58 55 54 56 52 59 64 62 65 69 72 73 75 74 73 71 71 74 74 75 75 74 74 75 75 74 74 74 79 80 80 81 87 86 84 88 85 83 83 85 84 84 83 80 85 85
65 60 59 59 56 46 55 54 57 62 63 66 70 72 73 73 74 74 74 74 75 77 75 74 73 73 74 75 75 74 73 75 82 83 84 88 90 88 85 87 85 84 85 85 84 83 81 81 81
60 55 46 46 47 45 54 50 56 63 66 68 68 70 73 74 73 73 74 75 74 72 74 75 74 72 73 74 74 75 74 74 76 79 85 86 89 90 86 85 84 86 84 84 84 81 81 79 78
58 55 46 35 42 49 55 46 58 65 68 69 70 70 70 72 74 74 74 74 75 74 74 74 73 72 73 73 73 74 74 77 80 81 84 87 89 87 88 85 85 84 85 84 83 83 81 78 78
57 49 58 48 50 45 50 56 63 66 65 66 67 67 69 70 71 73 75 74 73 73 73 72 72 72 72 73 72 72 74 74 75 77 81 86 84 88 88 85 84 84 85 84 81 81 78 79 79
57 62 46 46 32 34 47 50 53 58 60 64 65 67 69 70 72 74 74 74 74 74 74 74 73 72 72 72 74 75 75 76 75 76 77 80 83 83 88 86 84 83 83 81 78 81 81 80 82
54 51 51 50 47 39 40 50 61 59 62 62 65 67 68 70 71 73 74 75 76 75 76 74 73 72 73 72 73 73 74 75 76 76 78 80 82 81 85 86 85 83 81 81 80 83 83 81 81
57 54 54 40 43 47 47 47 64 63 64 64 65 67 70 70 71 73 74 74 74 74 74 73 72 71 73 74 72 72 73 74 75 76 78 80 79 81 85 86 84 84 84 82 82 83 84 81 79

GFSSGP_sfc_temp_081.txt.gz
Temp
86 99 100 86 75 83 79 85 92 87 89 96 98 94 95 98 93 82 109 109 110 104 94 88 80 80 80 80 80 80 80 79 79 79 79 79 79 79 79 79 80 80 81 81 81 81 81 80 80
95 97 97 89 63 72 79 91 84 91 94 96 97 96 94 92 102 100 104 106 109 104 94 93 79 80 80 80 80 80 80 80 80 79 79 79 79 79 79 79 80 80 81 81 81 81 80 80 80
91 97 87 82 72 59 75 87 88 93 94 94 92 97 95 92 99 100 105 106 106 104 98 94 79 79 80 80 79 79 79 79 80 80 79 79 79 79 79 79 79 80 81 81 81 80 80 80 80
93 93 90 76 74 74 72 81 91 89 94 95 95 89 98 102 98 102 104 105 107 107 101 86 79 79 80 80 79 79 79 79 79 79 79 79 79 79 78 79 79 80 81 81 81 80 80 80 79
92 87 76 74 76 81 83 84 91 88 91 92 94 89 91 100 104 103 102 104 105 108 104 93 79 80 80 80 79 79 79 79 79 79 79 79 79 78 78 78 79 80 80 81 80 80 79 79 79
84 85 71 69 76 82 85 87 89 87 90 93 91 91 93 104 102 103 103 103 107 107 104 94 81 79 79 80 79 78 78 78 78 79 79 79 78 78 78 78 79 79 80 80 80 79 78 78 78
81 80 73 75 76 79 83 88 84 84 83 87 96 85 95 99 102 105 105 102 104 108 104 95 90 84 79 79 78 78 78 78 78 78 78 78 78 78 78 78 78 78 79 79 79 78 78 77 77
87 83 75 77 74 76 86 88 88 84 85 92 95 85 89 97 102 106 107 103 104 107 106 98 92 92 89 88 78 78 78 77 78 78 78 78 78 78 78 77 77 78 78 78 78 78 77 77 76
92 76 72 75 77 80 87 82 89 92 87 89 91 94 97 100 103 103 103 103 102 105 104 102 98 94 93 94 87 79 78 78 78 79 78 78 88 87 86 83 80 78 78 78 78 77 77 76 76
82 74 75 85 86 85 88 87 83 84 82 83 88 94 98 98 98 97 99 98 98 100 102 103 99 96 96 99 92 88 89 89 88 89 87 86 89 92 92 87 80 78 78 78 77 77 77 77 87
82 74 82 85 89 90 87 86 88 82 77 82 83 88 92 94 93 95 98 98 96 99 100 102 97 96 96 99 98 93 94 92 91 89 89 89 92 92 93 93 88 85 80 86 83 83 83 85 88
77 82 83 85 87 87 83 87 83 84 82 88 86 88 92 90 90 93 95 97 96 96 98 99 97 94 94 99 99 98 96 95 93 92 90 89 89 91 92 93 94 89 91 87 88 90 87 86 87
78 80 83 86 84 84 86 81 82 84 88 90 89 86 88 89 88 92 94 97 95 93 95 95 94 89 88 87 93 95 95 96 96 95 92 91 91 89 92 90 93 95 95 94 91 91 90 89 88
81 79 80 83 82 83 79 80 82 84 89 88 87 84 85 88 90 90 90 91 92 91 91 93 90 89 88 87 85 89 90 96 95 95 94 89 90 90 91 90 91 92 95 95 94 92 90 89 89
78 71 76 78 79 78 82 74 76 85 88 86 85 84 83 86 90 89 90 89 89 90 89 90 87 87 84 84 85 86 91 92 95 95 93 91 88 89 89 91 91 92 92 91 90 89 89 87 89
71 73 66 78 80 80 78 66 79 87 85 84 83 85 82 81 85 88 90 90 86 86 84 81 86 90 85 84 84 88 88 91 92 94 93 91 89 87 88 89 91 92 91 91 87 87 87 89 89
71 63 67 72 79 75 75 69 79 86 81 79 81 83 82 82 82 84 89 87 84 85 82 78 80 83 87 84 86 85 84 88 87 91 93 91 89 88 85 89 90 89 89 89 82 84 87 87 87
64 66 68 67 75 74 70 70 77 82 80 78 80 81 82 81 80 84 85 86 81 83 83 82 78 79 81 84 84 86 87 88 88 88 90 89 88 87 86 88 88 87 87 87 85 83 88 87 88
67 64 63 69 75 70 68 68 73 78 80 79 79 80 81 81 85 84 84 83 81 80 78 81 79 73 78 81 83 87 89 87 84 87 87 89 87 87 85 86 82 84 83 80 83 85 83 85 87
65 62 62 68 73 69 67 66 72 75 76 78 79 80 81 83 83 83 83 80 80 77 76 74 78 78 73 70 75 81 84 89 90 89 89 89 87 84 83 80 85 81 85 82 78 82 85 85 87
64 61 62 62 67 69 65 62 67 75 78 79 81 82 82 82 82 80 81 80 78 77 74 75 75 76 75 75 74 74 77 79 82 84 84 87 88 87 84 85 81 83 81 79 82 84 82 85 87
58 69 66 62 59 53 67 52 64 71 72 75 77 78 79 80 80 79 78 77 77 77 77 76 75 74 79 78 73 70 72 73 83 80 82 87 90 87 87 83 84 83 83 83 85 85 85 82 84
62 68 65 62 59 58 59 55 62 71 68 72 74 76 78 80 80 79 78 77 78 77 78 77 75 73 74 75 74 73 72 77 81 76 77 79 76 84 87 86 84 83 80 84 87 84 82 85 85
69 64 63 63 60 49 57 57 59 66 68 71 74 75 77 79 80 80 80 79 78 81 80 78 75 74 73 73 74 73 71 71 75 76 79 78 76 76 84 84 83 83 84 84 86 85 83 83 84
66 58 48 46 45 46 63 57 61 68 71 72 73 75 76 79 79 79 78 79 79 77 78 78 77 75 75 74 74 74 74 73 73 73 76 75 78 78 76 80 81 85 83 85 84 84 84 82 82
61 57 47 35 41 48 57 50 60 70 74 75 74 75 76 77 79 79 79 79 79 79 77 77 77 75 76 75 74 74 74 76 78 76 75 78 81 82 80 82 85 84 85 86 86 86 84 83 82
60 55 62 50 52 44 52 60 68 70 69 70 72 73 73 75 76 76 78 79 79 78 77 76 76 76 75 76 75 74 75 73 75 76 75 78 77 82 84 87 86 85 85 87 85 84 82 83 81
62 66 49 47 36 36 48 50 52 59 64 69 69 70 72 75 76 77 78 78 79 80 78 77 76 76 76 76 76 76 75 76 76 75 75 75 77 80 84 85 85 85 86 86 84 84 84 81 80
58 55 56 55 49 38 37 44 62 58 66 66 68 71 73 74 76 77 78 80 81 81 81 79 78 76 76 76 75 75 76 76 77 77 77 77 76 78 80 84 85 84 85 85 83 83 84 80 79
62 57 52 39 43 49 48 50 64 61 68 68 68 71 74 76 76 78 78 79 79 79 80 79 77 76 76 76 76 75 75 75 75 76 77 78 78 79 81 83 83 86 86 85 83 81 84 82 81

GFSSGP_sfc_temp_084.txt.gz
Temp
83 97 98 92 75 76 72 79 91 89 89 97 97 94 92 95 88 76 99 104 97 92 87 83 79 80 80 80 80 79 79 79 79 79 79 79 79 79 79 79 79 80 81 81 81 81 81 80 80
87 92 94 86 70 66 71 86 86 90 93 96 96 95 93 90 97 97 97 102 101 92 86 86 79 79 80 80 80 79 79 79 79 79 79 79 79 79 79 79 79 80 81 81 81 81 80 80 80
87 95 82 78 72 65 67 81 83 92 95 93 92 98 95 90 95 97 101 103 103 93 90 86 79 79 80 80 79 79 79 79 79 79 79 79 79 79 79 79 79 80 81 81 81 80 80 80 79
89 90 86 71 69 77 75 80 86 87 93 95 94 89 98 99 97 100 103 104 104 98 94 82 79 79 79 79 79 79 79 79 79 79 79 79 79 78 78 79 79 80 81 81 81 80 80 79 79
90 83 72 70 72 78 83 85 86 85 88 92 94 89 91 98 102 103 103 103 103 103 96 84 79 79 79 79 79 79 79 79 79 79 79 79 79 78 78 78 79 79 80 80 80 79 79 79 78
78 80 65 64 72 80 85 88 87 85 86 91 91 90 92 101 99 101 105 101 103 104 94 86 79 79 79 79 79 78 78 78 78 78 78 78 78 78 78 78 79 79 79 79 79 79 78 78 77
76 74 68 70 71 76 83 91 84 84 85 86 93 84 93 95 100 102 103 103 102 105 94 86 84 81 79 78 78 78 77 78 78 78 78 78 78 78 78 78 78 78 79 78 79 78 77 77 77
83 78 70 73 72 73 85 88 88 85 82 94 94 82 83 95 100 102 105 104 103 105 93 88 85 85 83 81 78 78 78 78 78 78 78 78 78 78 78 77 77 78 78 78 78 78 77 77 76
89 72 68 72 74 78 88 85 90 93 86 88 91 91 94 100 101 98 99 102 100 103 94 92 90 86 85 86 81 78 78 78 78 78 78 77 80 79 81 79 80 78 78 78 77 77 77 76 76
79 71 72 81 83 82 87 87 88 85 83 84 86 92 96 98 96 93 92 95 95 97 100 94 89 87 87 92 82 81 82 81 80 81 79 79 80 81 85 83 79 78 78 77 77 77 77 77 77
79 72 79 82 86 87 86 86 91 85 79 83 82 87 92 94 90 89 92 93 93 93 97 94 87 86 88 90 84 84 84 83 82 82 81 80 82 82 84 83 81 78 77 78 77 77 76 77 78
75 81 82 83 86 85 82 87 85 86 84 89 88 88 88 87 89 89 90 93 94 92 91 92 91 86 85 90 88 86 86 84 83 83 81 80 81 80 81 82 81 78 80 77 78 78 78 77 78
77 80 83 85 85 84 86 82 82 84 90 91 90 88 86 84 84 88 91 90 90 89 87 92 87 85 84 83 85 84 85 86 85 84 83 83 82 79 82 81 83 81 82 81 80 80 80 79 79
81 81 81 83 82 83 80 79 81 84 89 88 87 87 86 84 84 87 87 85 88 86 85 87 88 82 84 83 84 82 83 86 86 85 85 83 82 81 82 80 80 80 81 83 82 80 79 78 79
79 72 76 77 79 77 82 73 75 84 86 85 86 87 86 85 85 85 85 81 84 84 84 82 85 83 80 81 83 82 82 85 83 84 85 83 82 81 81 80 79 80 81 83 82 80 79 78 80
72 72 63 75 78 79 77 64 77 85 83 81 84 86 86 85 85 82 84 83 81 82 79 78 85 85 79 80 80 81 80 80 82 82 83 84 82 81 80 79 79 80 80 80 79 77 76 76 76
68 59 64 69 80 79 76 68 78 84 82 80 83 84 85 85 84 82 82 83 77 76 78 79 79 81 79 79 79 79 81 80 79 81 83 85 83 82 79 80 79 80 79 78 78 77 76 75 77
61 64 67 67 75 77 72 70 76 80 80 79 80 81 82 83 83 85 85 80 78 77 75 76 77 77 78 79 78 79 79 79 81 81 82 83 83 82 80 80 79 79 78 76 77 76 75 77 77
69 65 62 67 74 71 69 70 73 77 77 77 79 78 79 80 85 84 84 80 77 76 75 76 75 73 75 75 75 74 75 75 78 80 82 82 81 82 79 79 78 79 77 76 76 74 75 77 78
66 62 61 67 72 70 68 67 72 74 75 76 77 78 80 81 82 82 80 78 76 75 74 73 74 73 72 70 72 75 74 76 77 78 80 81 80 80 79 77 77 76 76 75 75 74 74 77 78
64 60 60 61 67 70 66 62 65 72 75 77 79 80 81 80 80 81 79 76 77 74 74 74 73 70 72 72 69 69 70 71 73 73 75 79 82 79 78 77 78 77 75 76 74 75 74 75 77
58 68 67 63 60 52 65 49 61 68 70 75 77 78 79 81 82 82 79 76 75 76 75 76 75 72 71 74 70 68 67 67 69 71 74 77 81 81 79 77 77 76 77 76 75 77 76 77 76
62 69 65 63 58 57 57 52 59 67 65 70 75 77 78 80 80 78 78 79 79 78 76 73 73 72 73 70 69 69 69 70 69 70 71 72 75 77 81 79 77 76 76 76 76 75 76 78 76
71 65 63 61 58 47 54 54 55 62 66 71 76 76 77 78 79 79 79 78 77 78 76 74 74 72 72 71 69 67 68 68 67 68 70 70 74 77 76 80 77 77 77 77 77 76 77 75 73
67 58 46 44 45 44 58 52 54 63 69 72 72 74 76 78 78 78 78 76 75 75 76 76 72 71 72 70 71 68 68 68 68 68 68 68 71 75 74 75 77 78 77 77 77 74 76 76 75
61 59 47 34 36 43 57 44 52 66 70 76 76 76 77 76 78 78 79 77 79 78 75 75 75 73 74 73 71 70 68 68 68 68 69 70 72 74 74 74 74 76 77 78 76 75 75 75 75
61 54 62 50 48 40 47 56 66 68 68 71 73 74 73 74 75 77 79 78 77 77 75 75 73 72 74 72 71 70 70 69 67 67 68 70 71 73 72 74 76 75 77 75 70 68 74 74 77
62 66 50 51 34 33 46 49 52 58 61 68 68 70 72 74 75 76 77 76 77 77 76 75 75 73 72 73 72 72 70 71 70 68 67 68 70 71 72 71 73 75 78 75 71 72 76 75 74
58 53 55 54 49 38 37 45 56 58 63 64 67 71 72 73 75 76 77 78 79 79 80 75 74 74 73 72 72 71 71 71 71 70 70 70 70 71 72 72 73 74 78 78 77 76 77 77 76
62 55 52 41 39 42 42 43 60 63 63 62 66 71 73 74 75 77 78 78 78 77 78 77 76 76 76 75 73 70 72 71 69 70 70 71 71 72 72 73 74 75 78 78 78 78 79 78 76

GFSSGP_sfc_temp_087.txt.gz
Temp
75 84 83 76 62 60 57 66 79 79 76 80 85 83 79 82 77 65 85 88 84 79 77 79 79 80 80 80 79 79 79 79 79 79 78 78 79 79 79 79 79 80 80 80 80 80 80 80 80
75 83 80 71 56 50 56 73 70 77 82 85 86 86 81 78 88 86 87 88 86 80 77 77 79 80 80 80 79 79 79 79 79 79 78 78 78 79 79 79 79 80 80 80 80 80 80 80 80
80 83 68 60 55 52 58 73 74 81 84 84 83 89 85 80 88 88 90 88 85 80 80 78 79 79 80 80 79 79 79 79 79 79 79 78 78 78 78 78 79 80 80 80 80 80 79 79 79
79 75 72 58 56 65 69 77 79 80 83 85 86 82 87 91 89 90 94 90 85 82 82 79 78 79 79 79 79 79 79 79 79 79 78 78 78 78 78 78 79 79 80 80 80 79 79 79 78
76 68 56 54 59 69 75 79 81 78 81 81 83 80 80 88 92 92 91 95 84 83 81 78 78 78 79 79 79 79 78 78 78 79 79 78 78 78 78 78 78 79 80 80 79 79 78 78 78
65 66 50 49 59 71 75 79 82 80 83 82 81 82 79 87 89 89 91 89 92 86 80 78 78 78 78 79 79 78 78 78 78 78 78 78 78 77 77 78 78 79 79 79 79 78 77 77 77
61 57 54 57 61 66 74 78 76 80 81 81 85 79 82 86 88 89 89 89 89 88 81 78 77 78 78 78 78 78 77 78 78 77 77 77 77 77 77 77 78 78 78 78 78 77 77 77 76
67 60 56 62 62 64 77 77 76 78 79 89 87 75 72 81 89 89 90 88 85 83 80 77 76 75 75 76 78 77 77 77 77 77 77 77 77 77 77 77 77 77 77 77 77 77 77 76 76
73 56 55 59 64 68 77 74 78 84 81 83 86 83 87 90 88 87 86 86 84 83 79 78 77 75 75 75 77 77 78 77 77 77 77 76 73 74 75 76 77 77 77 77 77 77 76 76 75
63 55 58 68 72 70 74 75 78 77 77 76 81 86 89 90 84 84 83 81 82 80 80 79 79 77 77 82 75 73 76 75 74 74 75 73 72 72 77 76 78 78 77 77 77 76 76 76 71
65 60 67 71 75 76 74 76 79 76 72 76 77 81 82 83 80 82 84 82 80 80 84 83 80 80 80 82 74 74 73 72 72 73 73 71 74 72 75 73 75 72 76 73 75 74 73 72 71
60 70 72 74 78 76 73 76 75 75 74 82 81 82 82 79 77 77 82 82 80 82 82 81 81 81 81 78 77 77 76 74 73 72 72 71 71 71 72 73 73 73 73 71 72 72 72 71 73
65 68 74 76 74 73 76 73 73 75 79 83 83 83 79 77 77 79 81 81 81 80 78 80 80 79 77 77 79 77 75 77 76 75 74 73 72 71 73 74 74 73 73 73 72 73 73 72 74
67 68 69 70 68 69 68 71 72 77 79 80 80 77 78 77 77 76 78 78 79 80 80 80 79 80 81 77 78 77 77 76 77 78 77 76 74 75 74 74 74 74 75 76 75 75 73 73 74
68 60 65 67 68 66 71 66 68 75 78 76 76 77 77 77 78 76 77 77 77 79 80 78 77 77 78 78 76 76 78 78 77 76 78 78 77 75 75 74 74 75 75 75 73 73 73 72 74
59 57 48 62 69 72 66 58 71 75 74 73 76 78 78 74 75 74 77 75 71 73 78 78 81 77 76 77 74 76 77 76 76 77 76 79 78 78 76 74 73 74 74 74 73 73 71 71 70
53 47 51 59 70 69 66 61 71 75 73 70 71 74 76 73 72 74 76 75 73 71 72 74 75 75 74 75 76 73 76 76 74 75 76 77 78 78 75 74 73 74 73 72 71 71 69 69 70
48 50 56 55 63 65 61 62 67 72 71 69 69 70 71 72 71 74 74 71 70 69 70 70 71 72 73 74 75 74 74 74 74 74 73 77 76 77 75 73 73 74 72 71 70 69 70 70 70
60 57 54 60 66 61 59 59 63 67 65 65 66 66 68 70 73 72 71 70 68 67 67 68 69 69 68 70 70 77 71 71 74 74 77 77 76 77 74 73 73 73 72 71 70 70 70 68 70
59 55 52 59 65 62 58 57 62 65 64 64 66 67 66 67 69 70 68 68 67 66 66 66 66 67 66 67 67 71 75 68 71 76 76 77 77 76 75 74 72 73 72 71 71 70 69 68 72
56 54 53 53 61 62 57 54 58 64 66 69 71 71 72 67 67 68 69 67 64 63 63 65 65 65 65 66 66 67 69 70 71 68 72 75 77 76 75 74 74 73 73 74 71 70 68 68 69
50 61 62 59 51 40 55 40 53 58 62 67 70 71 72 73 69 67 68 62 63 64 65 65 64 64 65 64 63 64 63 64 70 73 72 73 74 76 76 74 74 73 73 73 71 73 70 69 66
56 63 59 57 49 45 48 42 51 56 56 62 67 70 67 71 67 65 65 66 66 65 64 64 64 63 64 63 63 62 63 64 66 68 69 69 71 73 75 74 71 73 74 75 72 74 70 72 70
67 58 55 51 44 37 47 45 47 53 56 61 65 70 69 66 66 68 69 67 65 66 65 63 63 63 63 63 62 62 61 63 64 65 66 66 69 71 71 74 72 73 75 74 74 74 71 70 71
60 49 37 33 32 35 50 47 49 54 60 60 62 65 65 66 64 65 64 65 64 64 64 63 63 62 63 64 64 62 62 62 63 63 65 66 67 70 72 71 69 73 75 74 75 73 71 72 73
56 53 42 30 27 36 50 39 46 60 61 65 68 70 68 65 63 63 66 67 65 66 64 65 63 62 63 64 64 64 63 62 61 62 63 65 68 70 71 71 72 71 74 73 75 76 73 73 72
55 47 54 43 44 34 37 46 55 61 60 65 65 67 62 65 63 63 64 62 64 64 65 65 63 64 64 64 63 64 63 62 62 62 62 64 65 69 68 70 70 70 71 73 74 75 74 71 71
56 60 41 41 29 25 35 39 41 50 53 59 59 62 66 64 63 64 64 65 65 65 65 64 65 66 65 64 64 64 63 64 63 62 62 62 63 66 68 69 69 68 69 71 72 75 70 70 70
48 45 43 40 34 29 28 35 49 48 49 51 54 57 57 61 62 64 65 65 66 66 64 63 65 66 64 65 63 64 64 64 64 62 62 63 64 66 68 68 69 69 69 68 70 70 70 69 71
53 43 40 33 31 34 33 33 56 53 51 52 56 59 59 62 60 59 64 65 64 64 66 65 63 65 66 66 64 64 63 63 62 63 63 62 63 66 67 69 70 70 71 68 68 72 75 73 71

GFSSGP_sfc_temp_090.txt.gz
Temp
72 77 75 74 61 57 55 65 70 70 72 77 80 77 74 76 73 63 79 85 80 76 77 79 79 80 79 79 79 78 78 78 78 78 78 78 78 79 78 78 79 80 80 80 80 80 80 80 80
73 79 75 66 54 48 55 70 68 70 76 79 79 77 78 75 83 79 79 82 82 77 76 77 79 79 79 79 79 78 78 78 78 78 78 78 78 78 78 78 79 80 80 80 80 80 80 79 79
79 78 65 58 50 50 55 72 70 77 80 78 76 81 79 77 84 84 83 83 80 77 76 78 79 79 79 79 78 78 78 78 78 78 78 78 78 78 78 78 79 80 80 80 80 79 79 79 79
76 71 65 54 52 59 64 71 75 76 79 78 78 76 83 86 85 87 85 84 80 77 77 79 79 79 79 79 79 78 78 78 78 78 78 78 78 77 77 78 78 79 80 80 79 79 79 78 78
71 63 54 49 56 63 69 73 78 77 75 77 81 74 76 86 87 87 84 85 80 77 77 77 78 79 79 79 79 78 78 78 78 78 78 78 78 77 77 77 78 79 79 79 79 79 78 77 77
63 60 48 46 55 65 69 72 76 77 80 80 77 77 75 84 85 83 85 82 83 79 76 76 78 78 78 79 78 78 78 77 78 78 78 77 77 77 77 77 78 78 78 79 78 78 77 77 76
58 53 47 50 56 60 69 73 73 75 80 81 82 74 76 80 84 85 84 83 82 82 77 76 76 78 78 78 78 77 77 77 77 77 77 77 77 77 77 77 77 77 77 77 77 77 77 76 76
64 56 49 52 55 58 72 71 71 74 77 92 87 74 70 81 84 85 82 80 79 79 77 74 75 76 77 79 78 77 77 77 77 77 77 77 77 77 77 76 77 77 77 77 77 77 76 76 75
66 50 46 52 57 62 72 67 74 80 77 82 82 82 86 86 85 83 79 77 77 77 74 73 74 75 75 76 77 77 78 78 77 77 77 75 74 74 75 75 76 77 77 77 77 76 76 75 75
58 47 53 61 65 63 70 67 71 76 73 74 77 81 85 86 81 79 78 74 74 74 75 73 71 73 74 78 77 75 76 75 75 75 75 73 72 72 75 75 77 77 77 77 77 76 76 76 70
56 52 60 66 68 70 70 70 73 72 68 73 75 80 80 80 78 77 77 76 76 78 78 74 74 72 73 76 74 74 73 72 72 73 72 71 72 71 72 70 72 71 76 73 75 73 72 70 69
54 63 66 68 71 70 69 74 70 71 72 77 79 80 78 77 77 78 75 78 77 77 79 78 74 72 73 73 73 73 73 71 71 71 71 70 68 68 68 69 70 70 70 70 70 69 70 69 70
55 62 66 69 70 70 72 69 69 68 75 77 79 78 77 73 77 78 77 75 74 75 76 77 75 72 74 74 71 71 73 73 73 72 71 71 68 67 68 69 70 70 70 71 69 69 69 69 70
61 61 63 64 64 65 64 67 67 72 75 76 77 77 74 76 74 74 75 74 74 74 76 77 78 77 77 75 75 73 74 74 73 73 72 72 71 71 70 70 71 72 71 73 72 71 69 69 71
62 56 59 60 62 61 64 62 64 71 73 72 73 74 74 73 74 75 76 73 75 74 75 77 78 79 77 77 75 75 76 75 75 76 75 74 73 72 72 72 71 73 72 72 71 70 69 69 71
55 50 45 57 64 66 63 55 66 71 69 70 71 72 73 73 74 73 73 72 71 71 73 75 81 78 76 75 75 75 75 71 72 75 75 75 74 74 72 74 73 72 72 71 70 69 68 70 69
46 41 47 53 62 63 60 56 66 70 70 68 70 71 70 70 69 69 72 71 71 72 70 70 72 73 74 73 73 74 75 73 71 71 71 75 76 76 74 73 73 73 72 71 70 69 68 68 69
43 44 50 49 58 58 54 55 61 65 66 68 66 65 67 69 69 69 70 71 69 68 67 67 67 68 69 70 69 70 71 72 75 71 70 73 75 76 75 72 73 72 71 70 69 68 68 69 69
54 51 50 54 61 55 53 54 59 62 62 62 63 63 64 65 70 68 69 67 65 65 66 67 67 65 67 67 67 67 68 68 70 74 75 72 72 75 76 74 71 72 72 70 70 69 67 67 68
54 50 49 54 60 57 55 54 60 60 61 62 64 64 63 63 65 70 65 63 65 64 64 64 65 64 63 64 63 64 66 68 68 71 74 75 75 74 73 74 74 73 72 70 69 68 66 65 68
54 50 49 50 56 55 52 47 52 58 61 64 64 64 65 65 64 64 64 62 61 61 61 61 61 63 63 63 63 63 64 66 68 68 71 73 75 74 73 73 73 72 72 74 68 68 67 64 66
47 58 58 55 47 39 50 39 47 54 57 60 64 63 63 64 68 65 67 60 59 60 61 61 62 62 63 63 62 61 61 61 62 65 70 72 74 74 73 73 72 73 71 71 70 70 68 67 65
53 60 56 54 46 41 44 39 43 52 53 58 61 62 64 67 68 64 67 63 64 62 61 61 60 60 61 61 61 60 59 59 61 63 64 67 69 74 73 73 70 70 68 70 70 69 68 68 67
62 54 50 46 41 34 41 41 45 48 53 55 60 61 63 66 68 65 65 64 62 64 61 59 59 59 60 60 59 59 59 59 58 59 61 63 66 67 70 73 71 69 69 69 72 72 69 69 68
54 42 37 32 32 34 45 41 46 52 57 59 59 61 62 60 58 62 62 62 62 61 60 60 59 59 59 60 60 59 58 57 58 58 59 59 61 65 67 69 68 70 70 71 73 72 69 69 71
49 48 37 28 27 36 45 35 46 56 59 61 62 61 61 64 67 62 64 64 64 64 61 62 60 60 59 59 59 60 59 59 59 59 59 59 60 63 66 67 70 70 70 71 71 72 72 70 70
49 44 53 43 39 28 33 41 50 57 59 59 60 61 59 64 67 66 63 64 66 62 60 61 62 63 61 62 61 59 60 59 59 59 59 59 59 64 65 66 68 69 69 69 70 70 71 70 70
55 56 41 36 28 26 32 35 38 49 52 54 53 52 53 55 61 63 64 64 63 60 61 62 64 64 64 64 63 63 62 61 61 60 59 59 60 61 63 64 65 67 68 68 68 68 70 70 70
47 44 43 40 33 29 26 30 49 47 50 51 50 52 49 52 56 59 58 61 59 60 61 63 63 64 65 62 63 62 62 62 59 59 60 60 60 60 62 64 64 66 67 66 63 64 68 67 68
52 42 38 29 28 33 31 32 52 51 52 52 52 55 54 62 58 59 57 59 57 58 59 59 63 65 67 65 65 64 64 60 60 59 59 60 60 61 62 63 65 66 67 67 64 65 67 68 67

GFSSGP_sfc_temp_096.txt.gz
Temp
71 74 72 71 61 56 50 58 63 65 67 71 71 68 68 70 71 62 75 78 76 76 76 78 79 79 79 79 79 78 78 78 79 79 79 79 79 79 78 78 79 79 80 80 80 80 80 80 80
72 76 72 63 54 51 56 63 62 64 71 75 72 71 71 69 76 76 75 78 78 76 76 76 79 79 79 79 78 78 78 78 78 78 78 78 78 78 78 78 79 80 80 80 80 80 80 80 80
76 73 65 56 48 51 57 64 66 71 73 71 70 76 73 72 79 77 77 78 77 74 75 76 78 79 79 79 78 78 78 78 78 78 78 78 78 78 78 78 78 80 80 80 80 80 79 79 79
72 70 61 53 49 57 59 63 70 73 76 75 72 71 76 80 78 78 79 78 75 74 75 78 78 78 79 78 78 78 78 78 78 78 78 78 78 77 77 77 78 79 80 80 80 79 79 79 78
67 59 52 47 52 59 65 65 68 70 74 73 74 70 71 80 79 77 77 78 74 73 74 77 78 78 79 79 78 78 78 78 78 78 78 78 77 77 77 77 78 79 79 79 79 79 78 77 77
60 57 47 46 54 61 64 67 66 67 72 74 74 72 72 79 77 76 77 74 75 73 74 78 78 78 78 78 78 77 77 77 77 78 78 77 77 77 77 77 78 78 79 79 79 78 77 76 76
59 49 44 47 53 58 63 66 62 64 64 71 79 69 72 77 78 76 76 75 74 74 75 78 78 77 78 78 77 77 77 77 77 77 77 77 77 77 77 77 77 77 77 77 77 77 77 76 76
59 54 48 49 51 55 63 66 62 66 67 76 78 68 67 78 76 76 74 72 72 73 75 77 79 78 74 75 77 77 77 77 77 77 77 77 77 77 77 76 77 77 77 77 77 77 76 76 76
59 48 45 51 52 54 62 59 66 71 69 71 74 75 78 78 73 71 70 69 70 72 75 77 79 79 76 74 76 77 78 77 77 77 77 76 74 75 76 76 76 77 77 77 77 76 76 76 76
54 45 50 56 57 56 60 59 62 66 67 66 71 76 78 76 71 70 69 68 68 70 73 76 77 78 78 77 74 74 74 74 74 74 74 72 72 72 74 75 77 77 77 77 76 76 76 76 73
50 49 54 58 61 62 61 62 65 63 61 66 68 72 75 76 73 69 70 71 71 71 72 74 74 76 76 75 75 75 74 74 73 73 73 72 72 71 72 71 73 73 75 73 74 74 74 73 72
48 57 58 59 62 59 60 64 62 65 68 72 73 72 73 72 71 70 69 70 70 71 72 74 73 73 74 75 76 77 76 76 75 75 74 72 71 70 70 70 70 70 71 71 71 72 72 72 72
49 54 58 62 60 59 61 61 61 61 69 71 71 70 72 70 69 69 70 70 69 69 72 72 72 72 74 73 75 75 75 76 76 75 74 72 71 70 69 69 69 69 70 70 70 71 71 71 71
56 54 55 58 59 58 58 60 61 65 70 69 69 69 67 70 71 69 69 70 69 71 71 72 72 72 73 73 73 74 75 76 74 72 73 72 72 71 70 69 69 69 69 70 71 71 71 71 71
53 49 53 56 57 58 59 58 58 64 67 67 68 68 70 69 70 70 73 70 70 70 71 70 71 72 72 72 72 72 73 73 71 70 71 72 71 70 70 69 68 68 69 70 70 71 71 70 71
49 45 40 52 56 60 58 49 62 62 61 62 64 65 66 67 68 69 69 68 68 68 70 70 75 72 72 73 72 73 71 70 72 72 70 72 72 71 69 69 68 70 69 70 70 70 70 69 70
42 38 39 48 54 55 53 48 59 63 61 60 60 61 63 63 66 65 68 68 69 68 67 68 71 72 72 72 73 72 71 70 70 70 71 73 73 72 71 70 71 71 70 70 70 70 70 69 69
37 38 43 44 52 51 49 50 56 60 58 59 59 59 59 60 63 65 65 65 65 66 66 67 70 71 71 70 69 69 69 70 69 70 71 72 73 73 71 70 71 71 71 71 70 70 69 69 69
47 43 43 48 56 50 49 49 54 57 56 56 58 58 59 60 63 64 64 64 62 62 63 65 65 67 68 67 67 67 68 68 68 70 71 72 72 73 71 71 71 70 71 70 71 70 70 69 68
47 43 42 48 53 49 48 48 53 54 55 57 58 59 60 59 61 63 63 64 62 61 61 62 64 65 68 70 65 67 65 66 67 68 69 70 71 72 71 70 70 70 70 70 69 68 68 68 68
45 42 43 45 50 49 46 43 48 55 54 58 58 58 59 59 60 61 62 62 62 60 60 61 64 65 66 66 62 61 61 63 65 67 67 69 71 71 70 71 70 71 70 69 70 68 67 67 68
42 50 52 49 42 37 47 37 45 49 52 54 57 56 57 59 59 58 60 59 61 63 60 60 60 64 67 64 65 63 64 62 63 64 64 67 70 69 69 68 68 70 71 70 70 68 68 66 66
47 52 50 48 41 35 40 34 39 45 47 52 55 57 58 59 58 59 60 60 61 62 61 61 60 60 62 64 67 63 60 61 60 61 63 63 65 68 69 70 69 69 68 70 70 69 67 67 67
56 49 43 38 36 29 39 37 38 43 49 52 56 57 58 59 59 59 60 59 60 61 61 59 59 60 60 61 61 62 61 60 59 58 60 61 62 63 65 68 68 69 69 69 70 68 67 67 67
49 39 29 28 29 33 42 36 40 48 54 53 53 54 55 57 56 57 57 58 56 55 55 56 58 58 58 60 60 60 60 59 59 59 59 58 58 59 62 65 65 67 68 69 70 68 68 69 67
45 42 31 25 24 33 40 32 40 50 52 52 53 52 54 53 55 54 56 56 56 55 55 56 56 56 56 58 58 59 59 60 58 58 58 58 58 60 61 63 63 64 66 67 68 69 67 68 67
49 43 49 38 32 27 34 38 46 49 49 51 51 52 51 52 52 53 55 55 55 55 54 56 57 58 60 61 59 58 57 57 58 58 58 59 59 61 61 62 63 64 65 66 66 65 67 68 67
52 54 39 37 26 23 29 31 35 43 45 47 48 49 50 51 53 54 54 55 56 56 56 56 58 56 58 58 59 60 59 58 58 57 58 58 59 60 61 62 62 63 64 65 65 64 66 66 67
46 40 41 39 36 27 29 30 41 42 43 45 47 50 48 49 51 53 55 56 56 57 58 58 59 59 59 59 59 57 58 58 58 58 59 59 59 59 60 61 62 62 63 64 63 63 65 65 64
50 44 44 32 30 34 32 30 45 44 47 46 47 51 52 51 52 54 55 55 56 57 58 57 60 60 64 61 60 59 59 59 57 59 59 59 59 59 61 61 62 63 63 63 63 63 65 65 65

GFSSGP_sfc_temp_099.txt.gz
Temp
82 87 88 88 75 75 69 71 77 77 79 84 83 82 81 82 80 78 86 90 89 86 86 84 79 79 80 80 79 79 79 79 79 79 79 79 79 79 79 79 79 80 80 80 80 80 80 80 80
84 86 88 80 71 65 69 73 72 78 82 84 83 83 82 79 87 86 87 88 89 86 85 86 79 79 79 79 79 79 79 79 79 79 79 79 79 79 79 79 79 80 80 80 80 80 80 80 80
84 83 81 74 68 65 68 72 76 82 85 83 84 86 84 83 88 90 90 88 88 86 86 85 79 79 79 79 78 78 79 79 79 79 79 79 79 78 78 78 79 80 81 81 80 80 80 80 80
83 84 76 69 64 67 70 73 77 80 84 86 85 82 87 91 89 90 89 88 87 88 87 82 78 79 79 79 78 78 78 79 79 79 79 78 78 78 78 78 79 80 80 81 80 80 79 79 79
80 77 68 63 64 67 73 75 78 78 79 82 85 81 84 91 89 88 87 88 87 87 88 86 78 78 79 79 78 78 78 78 78 79 79 78 78 77 77 78 78 79 80 80 80 79 78 78 78
74 74 64 60 64 66 73 76 77 78 80 82 82 82 86 92 89 87 88 87 90 86 86 86 79 78 78 78 78 78 77 77 78 78 78 78 77 77 77 78 78 79 79 79 79 78 77 77 77
70 68 63 61 62 65 70 78 76 75 78 79 85 79 87 91 88 87 87 87 87 87 86 85 85 82 78 78 77 77 77 77 77 77 77 77 77 77 77 77 78 78 78 78 78 77 77 77 77
71 70 59 61 61 63 72 76 78 77 76 85 86 75 81 89 86 85 86 86 86 86 88 86 84 86 84 84 77 77 77 77 77 77 77 77 77 77 77 76 77 77 77 78 77 77 77 77 76
71 64 59 61 60 67 73 72 77 81 77 80 84 84 88 89 86 85 84 84 84 85 85 86 86 85 85 86 83 78 78 77 77 78 77 77 85 85 84 81 78 77 77 77 77 77 77 76 76
69 62 62 67 69 68 70 71 72 74 76 76 80 87 89 87 84 85 83 84 82 83 84 86 85 84 84 86 84 84 84 84 84 84 83 84 84 83 83 81 77 77 77 77 77 77 77 77 87
65 63 66 68 71 72 71 71 73 72 72 75 76 84 85 86 85 84 86 87 86 85 84 85 83 82 84 85 85 84 85 85 83 82 81 82 83 83 84 84 84 83 80 85 83 84 86 85 85
63 68 69 70 72 71 69 73 72 73 76 83 80 81 82 85 85 86 87 86 84 83 83 83 82 81 82 84 84 84 84 84 84 84 81 79 79 80 81 84 84 81 84 82 82 85 83 82 83
64 67 68 71 71 70 71 70 71 72 79 82 80 78 80 83 83 84 85 86 84 82 82 82 81 80 81 79 83 83 83 83 84 83 82 82 81 78 81 82 83 83 84 84 82 82 82 82 83
67 67 69 70 71 69 68 72 70 75 80 79 78 79 80 81 84 81 82 83 83 82 81 81 80 80 81 80 80 82 82 84 84 83 82 77 82 80 81 80 80 81 82 84 83 81 81 81 82
67 63 66 69 71 70 71 68 67 77 77 77 78 78 79 80 82 83 86 82 84 82 82 80 78 80 79 80 80 81 83 83 79 76 77 79 80 80 80 80 79 80 79 80 80 80 79 80 82
62 61 58 66 66 69 69 61 71 75 73 73 75 76 76 78 79 81 84 83 83 82 79 80 82 80 78 79 80 81 81 81 78 73 76 77 78 79 78 77 78 78 78 79 80 81 80 80 81
58 55 55 60 66 66 66 61 71 73 71 71 73 74 75 77 79 79 79 81 81 80 80 80 79 80 79 79 80 80 79 79 80 81 78 80 77 78 78 78 77 76 77 76 77 79 79 79 79
52 52 54 55 64 65 64 63 69 72 72 71 73 74 74 75 78 79 78 79 79 78 78 79 79 78 78 80 79 80 80 80 81 81 82 80 79 79 75 77 78 78 78 77 77 77 79 79 80
57 54 54 59 64 59 61 61 66 71 70 72 73 74 74 75 80 79 78 77 77 76 74 75 77 77 77 78 78 79 77 79 79 81 81 81 82 82 78 79 75 76 78 78 77 76 77 78 79
56 54 54 59 62 59 62 60 66 68 69 72 72 74 75 77 77 78 80 78 76 75 75 74 75 77 76 79 79 81 80 80 81 80 79 80 81 81 80 78 77 73 74 73 73 71 75 77 79
56 54 54 55 62 61 59 58 62 67 67 70 72 74 74 73 75 77 77 77 76 75 74 74 74 76 76 77 78 75 77 77 77 78 79 79 80 80 79 79 79 78 79 72 70 73 74 78 77
52 61 59 57 54 50 58 46 58 63 64 68 71 73 73 75 76 75 74 75 75 76 78 75 73 73 77 77 76 74 78 78 81 82 82 81 79 79 80 80 80 79 81 77 78 75 73 75 73
57 60 58 57 54 52 54 49 56 59 59 65 70 73 74 72 71 71 73 75 77 76 76 76 73 72 74 76 76 77 76 82 82 82 79 78 78 79 80 79 79 77 80 78 77 75 73 73 76
64 60 59 53 52 43 52 50 53 59 62 66 69 70 66 68 70 71 73 74 74 77 76 73 72 71 73 74 74 75 75 76 75 76 77 79 77 76 78 79 78 77 78 77 78 77 74 72 73
60 54 44 43 43 42 56 50 53 62 66 66 65 65 66 67 69 69 70 71 71 72 72 71 70 69 71 72 73 74 74 73 72 73 76 74 76 76 75 74 74 77 77 78 78 77 76 76 77
57 55 45 35 39 44 53 44 54 63 65 62 63 63 66 67 69 68 70 70 71 71 71 70 69 69 70 70 71 73 72 71 72 71 73 76 77 77 76 75 76 76 77 78 78 79 79 78 77
56 50 59 48 50 41 47 53 59 61 60 61 61 63 63 64 66 68 70 70 71 70 70 68 67 68 68 69 70 71 70 69 70 69 68 73 73 75 74 74 74 75 75 76 75 77 76 76 76
56 59 46 47 33 32 44 45 48 55 56 58 59 61 62 64 66 67 69 68 70 71 71 69 68 68 68 68 70 71 69 69 70 70 69 70 71 72 72 72 73 73 74 75 74 75 76 75 77
52 49 48 46 44 34 35 44 54 54 54 54 57 60 60 61 64 66 68 69 70 71 71 69 70 70 71 71 69 68 68 67 67 69 70 71 71 71 72 73 73 73 73 73 72 73 74 73 73
54 50 48 35 34 36 38 40 56 55 56 56 57 58 60 61 63 65 66 65 66 66 66 66 66 69 70 71 71 70 69 68 68 68 67 70 72 73 74 74 73 73 73 73 72 72 75 73 73

GFSSGP_sfc_temp_102.txt.gz
Temp
90 101 102 97 83 83 80 81 88 84 87 92 92 91 91 92 89 84 97 100 101 98 94 88 80 80 80 80 80 80 80 80 80 79 79 79 79 79 79 79 80 80 80 81 81 81 81 80 80
97 98 99 94 78 75 79 84 82 87 90 93 92 92 90 87 95 94 96 98 99 98 94 93 79 80 80 80 79 79 79 79 79 79 79 79 79 79 79 79 80 80 81 81 81 81 81 81 80
94 96 89 85 80 75 79 82 85 88 92 91 91 94 91 89 95 98 100 98 99 96 95 93 79 79 79 79 79 79 79 79 79 79 79 79 79 79 79 79 79 80 81 81 81 81 80 80 80
94 94 90 77 75 79 80 83 85 87 91 93 93 88 95 98 97 100 100 100 98 99 97 83 79 79 79 79 79 79 79 79 79 79 79 79 79 78 78 78 79 80 81 81 80 80 80 80 80
94 89 77 74 76 77 83 85 86 85 87 89 91 88 91 98 99 100 98 99 98 99 99 91 79 79 79 79 79 79 79 79 79 79 79 79 78 78 78 78 79 80 80 81 80 80 79 79 79
84 86 72 70 72 76 83 86 86 86 87 89 88 87 92 100 98 98 100 99 102 99 97 92 80 79 79 79 78 78 78 78 78 78 79 78 78 78 78 78 79 79 80 80 80 79 79 78 78
79 76 74 75 74 77 81 87 85 85 86 86 91 85 93 98 98 97 98 99 100 99 97 92 90 84 78 78 78 77 77 77 78 78 78 78 78 78 78 78 78 79 79 79 79 79 78 78 78
84 80 72 73 69 73 84 84 87 85 84 92 92 84 87 94 98 98 98 99 100 98 98 94 91 92 89 88 78 77 77 77 77 77 77 77 78 78 78 77 77 78 79 79 79 78 78 78 77
85 74 70 72 72 75 83 82 86 87 85 88 91 90 93 97 96 98 96 97 98 98 98 97 96 93 92 92 86 78 78 78 77 79 78 78 90 88 87 84 78 78 78 78 78 78 77 77 77
79 73 75 80 79 77 79 78 82 80 82 84 87 93 96 97 95 94 95 94 95 96 97 98 95 93 93 94 89 88 89 89 88 88 86 88 91 92 91 86 78 78 78 78 78 78 77 78 93
78 73 80 78 80 80 79 78 84 77 79 85 84 89 93 94 94 94 97 99 97 97 97 97 91 91 93 94 93 91 92 91 89 88 88 87 89 90 90 92 90 88 80 90 85 88 89 92 93
72 79 80 80 81 79 78 82 79 81 81 88 87 88 91 91 93 95 97 100 99 97 95 95 93 89 89 94 93 93 93 93 91 90 87 88 88 86 89 93 93 89 92 90 89 93 90 89 89
73 78 78 80 80 80 81 77 79 80 86 89 90 86 88 88 90 93 94 97 100 95 95 94 93 89 88 88 93 92 91 92 92 91 89 89 89 87 87 88 91 93 94 92 91 91 90 89 90
78 78 78 79 80 80 77 79 78 82 87 87 87 87 89 90 91 93 92 90 93 91 92 94 91 88 88 87 88 89 90 92 91 92 91 87 88 87 89 86 85 87 92 93 92 91 89 90 90
76 71 77 78 80 78 81 74 74 84 85 84 86 87 88 89 91 92 94 93 92 94 93 91 88 88 85 86 86 88 91 91 91 92 89 86 85 86 85 88 88 88 87 88 88 88 88 88 90
71 71 68 77 75 78 75 69 80 83 82 81 83 84 85 87 90 92 93 93 94 92 92 91 93 89 86 86 87 88 91 90 91 83 81 85 84 87 86 89 88 89 87 87 88 88 88 89 89
70 64 67 70 76 75 73 71 77 81 79 78 81 84 85 86 88 90 91 92 92 91 89 90 89 89 87 85 88 87 87 89 90 89 86 83 84 86 87 91 87 85 84 84 85 86 85 85 86
64 64 67 65 72 72 71 71 78 81 80 79 81 83 84 85 87 91 89 90 90 89 87 86 89 87 87 88 86 89 89 88 90 89 89 87 88 87 86 87 85 81 86 86 86 84 86 86 85
67 64 64 69 73 69 68 70 74 78 80 80 80 82 82 84 89 90 90 88 88 88 86 84 84 85 86 86 86 86 86 88 88 89 88 88 87 88 84 87 85 81 83 83 82 84 81 83 84
65 63 63 69 71 69 68 68 74 77 77 80 80 81 82 84 86 88 89 89 87 85 85 85 83 82 85 87 86 89 89 91 90 90 88 88 88 87 86 85 86 83 86 82 82 80 82 84 84
64 62 63 63 68 71 67 64 69 76 79 79 81 82 83 83 84 85 86 86 86 85 84 84 84 84 83 85 87 86 87 87 89 88 88 87 87 87 85 86 86 84 85 84 82 81 79 80 82
60 69 66 63 62 57 70 54 66 72 74 76 78 81 83 84 84 84 83 83 84 85 88 85 83 82 84 83 83 83 85 83 88 88 90 89 87 87 87 86 86 85 87 86 86 86 84 82 81
63 70 65 64 61 61 62 58 64 72 68 71 76 79 81 79 79 79 81 82 84 85 86 85 83 81 81 82 81 84 81 87 89 91 87 85 86 86 88 86 85 84 85 86 84 85 82 85 82
70 66 66 66 63 52 60 59 61 67 70 74 78 78 75 76 77 78 80 82 83 86 86 83 80 78 80 80 80 79 80 82 85 87 88 89 89 86 84 86 84 84 83 84 85 83 81 80 83
67 60 51 50 52 51 64 60 62 69 73 74 75 76 74 75 77 77 78 79 79 80 81 81 81 78 79 79 78 79 79 80 81 83 86 85 87 87 84 83 83 84 83 84 84 82 81 81 81
65 63 53 42 44 51 62 53 62 70 73 73 73 73 74 74 75 75 77 77 79 79 79 79 79 77 78 77 77 77 77 81 83 84 86 86 88 86 85 82 83 83 85 84 83 84 83 83 82
61 57 64 52 55 50 55 62 69 72 70 70 70 69 70 71 73 75 77 78 77 77 77 77 77 77 77 76 76 75 76 76 79 81 81 84 84 87 83 82 81 82 82 82 82 83 82 82 81
61 65 50 52 37 37 51 53 56 60 62 65 66 66 68 71 73 75 76 76 77 77 77 77 77 77 78 78 77 77 75 74 73 75 77 80 79 82 71 79 79 80 80 81 79 81 81 80 81
56 53 53 51 49 38 40 50 62 61 63 62 64 67 68 69 71 73 75 76 76 77 77 74 74 76 76 77 78 75 74 73 74 75 77 78 78 79 74 79 80 80 79 79 77 78 81 80 78
61 56 54 39 41 47 43 45 67 64 64 64 66 68 70 70 70 73 73 73 73 73 74 73 72 73 74 75 75 76 77 76 74 74 77 78 78 79 80 80 80 80 80 79 77 77 80 79 78

GFSSGP_sfc_temp_105.txt.gz
Temp
89 106 106 101 84 85 82 87 95 91 90 98 98 97 96 99 91 81 104 106 106 100 94 89 80 80 80 81 80 80 79 79 79 79 79 79 79 80 80 80 80 81 81 81 81 81 81 81 81
99 102 102 94 80 76 82 92 86 93 96 98 98 98 96 92 101 99 100 104 105 100 94 93 79 80 80 80 80 79 79 79 79 79 79 79 79 79 80 80 80 81 81 81 81 81 81 81 80
95 102 91 87 82 77 75 88 90 94 96 97 95 99 97 94 99 103 104 104 105 100 97 92 79 79 80 80 79 79 79 79 79 79 79 79 79 79 79 79 80 81 81 81 81 81 81 81 80
97 97 93 80 79 86 85 89 91 92 95 97 97 92 99 103 101 105 105 106 104 103 100 82 79 79 79 80 80 79 79 79 79 79 79 79 79 79 79 79 80 81 81 81 81 81 81 81 80
94 91 81 79 81 88 90 92 91 91 92 94 95 92 94 101 104 106 104 105 103 104 103 91 79 79 79 79 79 79 79 79 79 79 79 79 79 79 79 79 80 81 81 81 81 80 80 80 79
86 88 72 73 80 88 88 93 91 91 93 94 93 92 95 103 103 105 106 105 106 103 101 92 80 79 79 79 79 79 78 79 79 79 79 79 78 78 79 79 79 80 80 80 80 79 79 79 79
83 83 76 77 77 83 87 95 90 90 92 91 96 88 97 100 102 104 105 105 106 104 101 93 89 84 79 78 78 78 78 78 78 78 78 78 78 78 78 78 79 79 79 80 79 79 79 78 78
86 85 77 79 78 79 89 92 93 91 89 97 95 86 89 97 101 105 106 106 106 104 102 95 92 92 89 87 78 78 78 78 78 78 78 78 78 78 78 77 78 79 79 79 79 79 79 78 78
91 77 70 76 78 82 92 86 93 95 89 92 96 95 99 100 102 103 103 104 105 103 102 99 97 94 93 94 87 79 78 78 78 79 78 78 89 87 85 84 79 79 79 79 79 78 78 78 77
82 76 77 86 87 84 87 86 89 86 86 89 91 97 100 101 101 100 99 98 101 101 102 102 97 95 95 97 91 88 89 88 87 88 86 88 90 92 93 86 79 79 79 79 78 78 78 78 89
83 76 86 85 85 87 85 84 86 83 79 88 89 94 98 98 98 99 101 101 101 103 103 103 96 95 95 97 95 91 92 91 90 89 89 88 92 93 92 90 87 86 80 88 84 84 86 91 94
78 84 85 86 87 84 82 87 84 86 85 92 91 93 93 95 97 99 100 101 98 102 101 101 98 94 92 97 96 94 94 93 91 91 88 88 88 90 90 92 93 88 91 90 92 94 92 91 91
80 83 86 87 86 85 87 83 83 85 90 94 94 91 90 91 94 97 99 101 101 92 100 100 98 92 90 89 95 94 93 94 93 92 90 90 89 88 90 91 94 94 95 93 92 92 92 91 91
84 83 85 85 85 85 81 83 85 86 91 90 91 91 93 94 94 94 94 93 94 94 99 99 96 93 91 89 90 92 93 95 95 94 93 88 90 88 90 89 90 92 94 95 94 92 91 90 93
84 76 81 82 84 82 85 77 79 88 90 88 89 91 92 94 95 95 97 96 96 97 97 95 94 93 88 87 88 90 92 94 95 93 91 89 88 89 87 90 89 90 90 90 91 92 90 89 91
76 78 71 83 84 85 82 70 85 91 87 85 87 90 90 92 94 96 97 96 96 96 96 95 99 96 90 88 90 90 92 93 94 92 91 89 85 86 85 87 90 91 90 90 89 89 89 88 90
75 68 72 77 84 81 78 74 85 86 85 83 86 88 89 90 92 93 95 96 96 95 94 92 95 95 92 88 90 89 90 91 93 95 94 90 89 86 83 89 90 86 90 90 88 88 87 86 85
69 70 72 72 80 78 76 76 82 86 84 83 85 86 88 89 90 93 94 95 94 94 92 90 90 92 91 92 89 91 91 92 93 94 93 90 88 88 87 89 89 90 89 88 87 83 84 85 85
74 71 70 76 80 76 74 74 79 84 85 83 84 85 86 87 92 94 94 94 92 91 89 88 87 86 90 90 90 89 89 91 92 93 92 91 89 88 87 90 89 87 85 85 85 85 84 84 87
71 68 68 74 79 76 73 72 78 81 82 84 84 85 86 87 89 91 92 91 91 90 89 88 87 86 86 90 89 91 92 93 94 93 91 91 90 89 89 86 88 86 86 83 84 82 83 85 85
69 66 68 68 74 76 71 68 72 79 82 84 85 86 87 87 87 88 90 90 90 89 87 88 87 86 86 86 89 89 89 90 92 92 92 91 90 89 87 87 87 86 86 87 83 83 82 83 84
64 74 72 68 66 60 74 59 71 77 78 81 83 84 85 86 88 89 88 86 87 88 89 89 88 86 86 85 84 82 86 86 90 91 95 93 90 89 89 86 86 85 88 85 84 86 84 81 83
67 75 71 70 65 65 66 62 68 76 73 78 81 83 85 87 85 84 85 85 86 87 88 88 87 85 84 83 83 84 83 89 92 92 88 87 89 88 89 87 85 85 87 85 83 82 81 86 85
76 70 69 68 66 55 64 64 65 71 75 78 82 84 84 82 82 83 84 85 85 87 87 86 85 83 83 82 81 80 79 81 85 87 89 91 92 90 86 88 85 85 85 85 85 83 81 83 84
71 64 54 53 55 53 68 64 67 75 78 79 79 82 81 80 81 80 81 82 82 83 83 83 82 80 82 81 81 80 79 79 79 81 86 85 92 92 85 83 81 81 83 85 84 82 82 82 82
67 63 52 42 46 54 65 56 65 77 79 80 80 80 79 79 80 79 80 81 82 81 81 81 81 80 81 81 80 80 79 81 82 82 84 87 90 90 74 78 77 77 81 83 84 85 84 83 83
62 58 66 52 55 52 58 64 73 77 77 76 76 77 76 76 76 78 81 81 81 80 79 79 79 79 80 81 80 78 78 77 78 78 80 86 83 88 88 72 72 72 75 81 80 84 82 82 81
64 67 49 52 37 40 52 56 59 63 68 72 71 72 74 75 76 78 79 79 80 80 80 80 78 77 79 80 80 81 79 79 78 79 78 79 81 83 84 74 68 69 74 77 79 82 83 81 81
58 53 55 55 52 41 42 51 67 64 66 67 69 70 70 72 76 77 78 80 80 81 81 78 77 76 76 77 77 77 79 78 77 76 77 78 79 79 80 81 74 72 78 78 74 77 81 82 80
61 56 55 39 43 49 45 46 70 66 67 68 69 69 72 74 75 77 77 77 77 78 79 78 76 76 77 76 76 76 76 78 77 75 75 77 76 77 77 75 80 77 77 74 76 73 77 79 79

GFSSGP_sfc_temp_108.txt.gz
Temp
86 100 102 97 79 80 75 82 93 89 90 99 99 96 93 94 87 77 100 103 97 91 85 84 80 81 81 80 80 80 79 79 79 79 79 79 79 79 79 79 80 80 81 81 81 81 81 81 81
92 96 97 90 75 71 76 89 87 88 94 98 98 97 96 89 97 96 98 102 97 92 85 84 80 80 80 80 80 79 79 79 79 79 79 79 79 79 79 79 80 81 81 81 81 81 81 80 80
90 96 86 81 76 71 76 84 87 93 97 96 95 99 97 91 100 98 102 102 96 92 90 83 79 80 80 80 80 79 79 79 79 79 79 79 79 79 79 79 80 81 81 81 81 81 80 80 80
93 93 89 76 73 82 84 88 91 91 96 97 97 92 99 102 101 101 104 104 98 95 93 80 79 79 80 80 79 79 79 79 79 79 79 79 79 79 78 79 80 80 81 81 81 80 80 80 80
93 87 76 75 77 84 91 92 92 89 93 94 95 90 91 100 105 103 103 104 100 97 91 84 79 79 79 80 79 79 79 79 79 79 79 79 79 78 78 79 80 80 80 80 80 80 79 79 79
81 85 70 70 77 85 91 94 92 90 93 94 92 92 91 102 102 103 104 103 104 96 88 83 79 79 79 79 79 79 79 79 79 79 79 79 78 78 78 79 79 80 80 80 80 79 79 79 78
78 77 72 74 74 79 86 95 90 90 91 92 97 87 94 98 102 104 104 104 103 98 91 85 83 81 79 78 78 78 78 78 78 78 78 78 78 78 78 78 79 79 79 79 79 79 78 78 78
84 80 73 76 75 76 88 92 94 91 89 98 97 85 84 95 101 103 105 104 103 101 94 87 85 84 82 81 78 78 78 78 78 78 78 78 78 78 78 77 78 79 79 79 78 78 78 78 77
90 72 69 74 76 80 92 88 94 97 92 93 94 93 97 100 102 101 101 102 102 100 95 92 89 87 86 85 81 78 78 78 78 78 78 77 80 79 79 79 78 78 78 78 78 78 77 77 77
80 72 73 83 84 84 89 89 91 87 88 86 89 96 99 100 99 98 98 95 98 98 97 94 90 87 87 92 82 81 82 81 80 81 79 81 81 81 84 82 78 78 78 78 78 77 77 77 78
80 72 82 85 89 88 85 86 90 84 80 86 87 92 97 98 97 96 98 99 99 100 99 96 89 86 89 91 84 83 84 83 82 82 81 80 83 82 83 80 80 77 78 78 77 77 77 79 81
76 82 83 85 89 85 83 87 84 84 84 91 92 94 93 92 94 95 97 100 99 98 92 88 89 87 85 91 86 85 85 84 83 82 81 80 80 80 80 81 81 78 79 77 78 80 79 79 85
79 81 85 87 87 86 86 83 83 84 90 91 91 92 90 89 89 92 94 93 91 88 86 79 74 80 83 84 87 86 84 85 84 83 83 83 81 79 81 81 82 81 82 81 80 81 82 82 83
84 83 83 85 85 85 81 82 84 85 90 90 90 89 89 90 90 89 91 88 89 91 84 79 76 78 87 83 83 83 83 85 85 85 84 82 81 79 81 80 81 81 82 83 82 80 80 81 82
84 77 80 81 83 81 84 76 78 87 90 87 88 89 90 91 93 91 90 87 89 93 85 79 78 74 78 83 84 83 83 85 84 85 82 82 80 79 79 80 79 79 80 83 82 81 81 80 81
77 77 67 79 82 83 81 68 81 89 86 85 87 88 89 90 92 93 93 90 92 92 88 89 89 85 85 84 84 85 86 85 85 84 84 82 81 81 79 80 80 81 79 79 78 78 77 77 76
72 64 68 73 85 83 79 72 82 88 87 84 85 86 87 89 89 89 92 92 93 91 89 90 88 88 86 84 85 84 84 85 85 85 86 84 83 83 81 81 81 79 80 80 80 78 77 76 77
64 67 70 71 80 80 76 75 80 85 85 83 84 85 86 87 89 90 91 91 91 89 84 85 84 83 86 86 84 86 85 85 87 86 86 84 85 84 81 82 80 81 81 81 81 78 78 77 76
73 71 70 76 82 77 74 74 78 83 84 82 83 83 84 85 90 91 90 90 89 87 85 85 83 81 81 84 78 78 83 83 85 86 86 85 85 85 81 81 80 81 81 81 79 78 76 75 77
73 69 68 74 78 76 74 73 78 80 81 83 83 84 84 85 87 88 88 87 86 83 82 83 83 83 80 80 81 84 84 86 87 87 86 85 83 83 82 80 81 80 82 79 78 76 76 76 78
70 67 66 67 74 76 73 68 71 78 81 83 85 85 86 85 85 86 87 86 85 84 84 85 83 82 82 80 78 79 83 83 82 85 85 85 85 84 82 81 80 80 81 80 77 77 75 75 76
63 74 71 69 65 58 72 56 68 75 77 80 81 83 84 85 86 86 86 83 83 84 85 84 83 83 83 81 78 76 76 75 83 83 85 85 85 84 84 82 82 80 82 79 78 79 77 76 74
67 75 71 70 65 63 64 59 65 74 72 77 81 83 85 86 86 83 83 82 84 84 83 82 80 80 82 81 78 76 74 78 78 81 80 80 81 83 84 83 80 80 80 80 78 77 76 78 77
75 70 69 68 64 53 60 60 61 68 73 78 82 84 85 85 82 83 83 83 83 84 83 79 77 77 79 80 78 75 74 74 75 76 76 80 84 81 82 83 81 78 80 78 77 78 77 77 78
70 62 51 49 51 50 65 61 64 74 77 79 80 81 80 80 81 81 80 81 80 81 81 80 79 76 77 77 76 76 75 74 73 73 76 76 78 80 80 81 79 75 74 78 76 75 75 78 76
63 61 51 40 44 50 62 52 62 75 79 81 82 81 79 79 80 79 79 80 81 80 80 80 78 74 76 75 75 76 76 75 75 74 75 76 77 79 77 75 74 67 66 66 66 66 69 70 74
62 55 63 51 51 47 53 60 70 71 73 75 78 79 77 77 76 77 79 80 79 79 79 78 76 76 75 73 73 73 74 73 73 73 72 74 74 78 78 77 71 67 65 64 63 63 61 61 66
62 65 47 47 34 37 50 53 56 58 65 70 72 73 75 76 76 77 78 78 78 79 78 76 77 76 76 74 73 74 72 73 74 73 72 73 74 74 74 76 72 66 65 65 67 63 63 61 60
58 53 53 52 49 37 39 49 66 62 63 64 68 71 72 72 73 74 76 78 78 78 79 75 76 75 74 74 73 71 71 72 71 71 72 73 72 74 74 76 75 69 67 66 65 62 64 62 57
63 58 57 40 41 46 43 41 66 64 66 67 68 70 72 73 74 75 76 76 76 75 76 76 75 74 75 73 72 72 72 70 69 68 69 72 72 74 74 74 74 71 69 65 67 62 59 60 57

GFSSGP_sfc_temp_111.txt.gz
Temp
77 86 87 80 64 61 58 66 78 76 81 89 89 86 80 83 79 67 84 85 82 78 78 81 80 80 80 79 79 79 79 79 79 79 79 79 79 79 79 79 79 80 81 81 81 81 80 80 80
78 85 81 73 58 51 59 72 68 77 83 90 90 89 85 80 90 85 82 85 83 79 77 79 80 80 80 79 79 79 79 79 79 78 79 79 79 79 79 79 79 80 81 81 81 81 80 80 80
81 85 68 63 58 56 60 74 77 85 90 88 85 91 88 83 91 88 89 86 83 79 78 79 80 80 80 80 79 79 79 79 79 79 79 79 78 78 78 79 79 80 81 81 81 80 80 80 79
81 76 71 58 57 67 73 81 82 85 90 91 89 83 89 93 92 91 90 89 84 81 79 79 79 79 80 80 79 79 79 79 79 79 79 78 78 78 78 78 79 80 81 81 80 79 79 79 79
76 69 57 54 61 74 82 86 84 83 86 88 89 83 82 91 96 93 90 90 85 82 77 78 79 79 79 80 79 79 79 78 79 79 79 79 78 78 78 78 79 79 80 80 80 79 79 78 78
66 67 52 51 61 76 79 82 83 80 85 88 84 83 81 92 93 92 93 90 89 80 78 78 79 78 79 79 79 78 78 78 78 78 78 78 78 78 78 78 79 79 79 79 79 78 78 77 77
66 60 54 58 63 70 77 83 78 77 83 84 87 79 80 88 91 93 93 91 85 83 79 77 77 78 79 78 78 78 78 78 78 78 77 78 78 77 78 78 78 78 78 78 78 77 77 77 77
70 63 57 64 65 66 81 83 79 81 83 91 91 77 71 82 93 92 93 86 84 82 80 76 75 76 76 76 78 78 77 78 77 77 77 77 77 77 77 77 77 78 78 78 77 77 77 77 76
77 54 52 59 65 72 80 78 86 88 86 88 85 86 88 91 90 87 85 87 84 82 79 78 76 74 75 75 78 77 78 78 78 78 77 76 74 75 76 76 77 78 78 77 77 77 76 76 76
65 57 61 72 75 72 77 75 79 80 79 80 83 90 92 91 87 85 84 84 85 80 80 80 79 77 77 83 76 75 77 76 76 76 76 75 73 73 77 76 77 77 77 77 77 77 76 77 71
68 61 70 76 79 79 73 74 78 77 70 78 77 81 86 84 83 85 86 86 89 85 84 82 81 80 80 81 75 75 74 74 75 75 74 73 76 75 76 72 76 72 76 73 74 73 72 72 72
61 72 74 77 80 73 74 80 76 72 74 83 84 85 81 81 81 79 82 82 82 76 86 80 83 81 79 81 77 77 77 76 75 76 75 75 73 72 75 73 72 72 73 70 71 71 72 72 75
65 70 77 79 78 74 78 74 76 74 82 84 84 85 80 78 79 81 79 81 80 76 76 76 79 79 81 82 81 80 80 78 77 76 76 76 75 73 73 73 74 73 73 72 72 72 75 75 76
71 73 73 75 76 73 72 73 73 76 82 83 83 81 80 81 81 80 79 79 81 76 75 75 76 76 79 81 81 81 81 79 78 78 78 76 76 74 76 76 76 76 76 76 76 76 76 76 78
72 65 70 72 71 71 75 69 71 78 81 78 80 79 80 79 83 81 82 81 80 78 77 75 73 70 71 78 79 80 80 76 81 80 79 79 75 76 74 74 75 75 78 77 78 77 76 74 76
64 61 52 66 73 74 70 59 72 78 78 76 78 80 81 78 80 79 80 78 79 74 75 75 79 74 72 75 76 77 78 76 77 78 79 79 79 77 77 75 76 75 73 75 76 77 75 76 76
56 49 55 62 74 73 71 63 73 79 76 75 78 77 79 78 78 78 82 80 80 74 72 72 75 77 71 75 80 77 77 77 78 78 78 79 79 78 79 77 77 74 76 72 71 70 70 68 68
51 52 58 60 70 70 68 67 70 76 74 72 73 75 75 76 77 80 81 81 77 74 74 75 74 72 75 74 75 75 74 76 77 77 78 79 79 79 77 78 76 74 77 77 72 70 69 70 69
63 60 59 64 70 64 62 64 68 72 69 69 70 71 72 74 78 78 79 80 76 72 73 74 74 73 69 68 72 72 73 73 78 80 80 79 78 80 79 80 76 78 73 77 77 73 70 70 70
64 59 58 63 69 65 61 61 67 70 69 69 69 70 70 71 73 78 77 76 73 72 72 71 72 72 72 68 67 71 72 72 74 75 82 81 74 79 79 79 76 76 77 76 71 73 69 71 69
61 57 58 57 65 65 61 57 61 68 69 72 73 72 71 71 71 73 75 72 70 69 69 71 71 71 70 71 69 67 68 71 71 72 75 75 75 73 73 75 79 76 78 77 75 73 70 70 68
55 66 66 63 56 48 59 46 55 62 65 71 73 73 71 72 74 73 69 68 69 69 71 69 69 69 72 70 68 67 64 65 73 74 72 73 72 68 69 67 74 71 71 71 78 75 71 66 68
59 68 63 62 54 46 52 44 50 62 62 66 67 75 74 72 70 70 69 70 71 71 68 68 68 68 69 70 68 66 65 64 67 72 71 73 71 68 70 72 73 66 69 75 73 73 72 68 68
70 62 58 54 48 42 49 48 50 57 63 65 71 72 76 73 70 69 70 71 69 69 68 67 67 66 68 68 68 67 65 65 65 68 69 72 75 72 72 77 68 66 70 74 70 66 67 70 70
62 50 38 35 36 38 54 51 52 61 67 70 67 67 68 68 66 66 67 66 68 68 67 68 66 65 66 66 66 66 66 66 65 65 68 68 71 73 71 70 70 71 67 64 62 60 63 65 65
55 50 41 31 32 38 51 41 50 64 68 68 70 67 69 68 67 66 67 68 68 68 67 67 66 65 65 65 64 64 64 64 65 64 65 67 65 70 69 70 68 69 67 66 66 61 63 65 64
54 47 53 41 41 36 42 51 60 62 63 66 69 69 66 65 64 66 68 66 67 66 66 66 66 66 65 65 63 63 62 62 62 64 66 67 67 71 72 68 66 66 66 65 66 67 66 65 61
57 60 41 39 31 28 40 45 46 53 57 61 62 64 65 64 65 64 64 66 66 64 65 65 65 64 65 65 64 64 63 63 62 62 62 65 66 66 67 68 67 65 63 64 63 63 62 61 59
49 46 48 46 39 32 28 37 55 53 57 57 60 62 64 63 65 66 66 65 64 64 65 64 63 64 63 63 63 62 63 63 62 60 61 62 63 65 67 68 68 67 62 60 58 58 61 60 59
55 49 47 35 36 38 37 38 60 56 56 57 60 62 64 64 63 65 66 66 65 63 64 65 64 64 65 64 63 61 63 62 60 60 60 61 61 62 62 61 63 64 64 63 61 60 63 62 59

GFSSGP_sfc_temp_114.txt.gz
Temp
74 79 77 76 62 56 52 61 69 72 74 81 86 81 77 78 77 66 78 83 79 78 78 79 79 79 79 79 79 78 78 78 78 79 78 78 79 79 79 79 79 80 80 80 80 80 80 80 80
74 81 76 68 56 49 53 66 70 74 79 84 86 82 80 77 83 77 76 81 80 77 77 78 79 79 79 79 79 78 78 78 78 78 78 78 78 79 79 79 79 80 80 80 80 80 80 80 80
79 79 66 60 52 51 55 68 72 80 84 83 82 88 83 78 82 81 81 81 79 77 77 78 79 79 79 79 78 78 78 78 78 78 78 78 78 78 78 78 79 80 80 81 80 80 79 79 79
76 70 66 56 54 62 68 72 78 81 84 86 84 80 86 90 87 83 82 81 78 76 78 79 79 79 79 79 79 78 78 78 78 78 78 78 78 78 77 78 78 79 80 81 80 79 79 79 78
70 63 54 50 57 65 72 78 77 78 79 83 84 77 78 85 86 83 82 82 77 75 77 78 79 79 79 79 79 78 78 78 78 78 78 78 78 77 77 78 78 79 79 80 79 79 78 78 78
64 61 50 48 58 70 71 76 77 78 81 82 80 79 77 85 84 84 85 81 80 76 76 77 79 79 79 79 79 78 78 78 78 78 78 78 77 77 77 78 78 79 79 79 79 78 78 77 77
61 54 51 53 58 63 70 78 75 77 76 79 84 75 77 84 86 86 85 83 80 79 76 76 77 78 79 78 78 78 77 77 77 77 77 77 77 77 77 77 78 78 78 78 78 77 77 77 77
69 61 51 56 57 63 72 76 74 74 79 87 86 75 73 82 88 87 85 82 80 77 77 75 75 76 76 76 78 78 77 77 77 77 77 77 77 77 77 76 77 78 78 77 77 77 77 76 76
73 52 50 57 60 67 77 69 78 83 79 81 82 82 85 89 85 82 79 79 78 78 75 74 75 75 75 75 77 77 78 78 77 77 77 76 74 74 75 76 77 77 77 77 77 77 76 76 76
60 52 58 68 70 69 74 73 75 77 76 76 79 84 87 87 85 78 76 76 76 77 75 75 74 74 74 79 76 76 76 76 76 76 75 74 72 72 75 75 77 77 77 77 77 76 76 76 69
58 56 65 71 75 73 71 71 75 72 66 72 74 82 82 80 80 78 78 79 77 79 78 76 75 74 74 77 74 75 74 76 74 74 74 72 73 72 73 70 73 71 76 71 73 72 71 70 69
53 67 69 73 76 72 70 75 73 72 75 82 81 80 81 77 75 75 76 75 81 77 78 78 77 76 76 77 74 74 75 75 75 74 74 72 72 71 72 71 70 69 70 69 68 68 70 69 71
56 65 70 74 74 70 72 72 74 74 79 81 83 82 78 74 76 76 77 74 72 77 78 76 76 77 78 76 76 75 74 74 74 74 74 74 73 71 72 71 70 70 70 69 67 67 69 70 72
65 65 67 70 71 68 69 71 70 76 79 80 79 79 79 76 78 76 76 75 72 76 77 78 76 76 79 78 77 75 76 76 75 75 75 75 74 74 72 72 72 72 72 72 70 70 69 70 71
65 59 64 66 68 67 72 66 68 77 78 76 76 76 78 78 79 78 79 75 72 75 77 77 78 76 76 76 76 78 77 76 76 76 76 75 75 74 74 72 73 73 73 71 70 69 69 69 72
58 55 49 62 68 70 67 57 70 76 74 73 75 75 76 75 77 79 79 75 74 72 73 75 80 73 70 73 74 77 77 74 77 76 74 75 75 76 73 73 73 73 70 70 70 69 69 69 69
51 46 51 59 65 65 64 59 69 73 72 71 72 73 74 74 74 75 77 75 70 71 70 70 72 73 70 70 72 73 74 74 76 73 75 75 76 76 75 74 75 71 71 69 70 69 68 68 68
47 47 53 54 62 61 60 60 70 70 70 68 70 70 71 73 75 77 76 75 71 70 70 71 71 73 72 67 70 72 72 73 74 75 71 73 73 75 74 77 75 70 71 70 67 68 67 69 70
56 53 52 59 66 59 57 58 62 67 64 65 66 66 68 71 76 74 76 73 67 68 70 71 68 68 66 66 70 71 71 72 72 72 74 75 72 73 71 76 75 69 71 75 72 69 69 70 67
57 53 53 58 64 60 57 58 62 65 64 66 67 67 68 68 71 74 73 69 69 69 70 68 68 65 67 66 65 70 70 70 71 72 72 72 73 74 71 70 71 73 70 69 68 68 70 69 67
56 53 53 54 61 59 56 52 57 63 65 68 68 67 67 68 70 70 71 67 66 64 65 67 68 68 65 66 65 65 64 65 67 67 69 70 72 73 71 70 69 69 70 69 71 70 67 67 65
53 62 61 58 52 44 55 39 50 58 60 64 67 65 66 66 69 71 65 63 66 65 65 65 66 66 67 66 65 64 62 61 62 64 66 67 70 72 72 71 69 67 65 68 70 72 71 70 68
56 63 59 56 49 44 48 41 47 55 58 60 63 66 68 72 66 64 65 67 65 65 63 64 64 65 65 65 65 63 63 61 62 62 63 64 67 69 69 69 66 64 67 67 67 68 69 69 68
65 56 53 48 44 36 45 43 43 51 55 60 65 64 64 63 63 64 64 65 63 63 63 63 63 62 63 64 63 63 62 62 61 63 63 63 62 65 68 68 64 65 65 65 65 66 67 68 67
56 47 37 34 34 34 48 43 45 55 60 61 61 61 62 61 60 61 62 63 62 62 62 63 63 62 63 63 63 63 62 62 61 60 60 61 61 61 64 66 68 65 67 67 66 65 66 66 64
49 45 36 29 30 35 47 39 48 58 61 64 66 61 63 62 61 61 62 63 63 63 63 63 63 62 62 63 63 62 61 60 59 59 59 60 61 63 63 63 65 66 68 67 67 65 65 65 64
50 45 47 38 37 32 38 46 54 57 58 60 61 61 58 60 61 61 63 63 63 62 61 62 62 61 61 62 61 61 61 60 60 59 59 59 60 65 64 64 63 64 65 66 66 65 63 63 61
51 56 39 35 27 26 35 40 43 51 52 57 56 56 57 58 61 63 64 63 62 62 62 62 62 62 63 62 62 63 62 61 60 58 58 58 58 60 61 62 62 64 64 64 64 64 64 59 59
44 41 43 42 40 31 28 35 49 49 52 54 57 58 59 57 59 61 63 65 65 64 65 65 63 62 61 60 60 60 60 60 60 58 58 58 58 59 60 61 61 61 61 62 60 60 62 59 58
48 41 41 33 34 38 36 36 51 52 54 56 56 60 62 62 64 64 65 65 67 66 64 60 59 60 61 61 60 60 59 59 58 58 58 58 57 58 59 60 60 61 62 60 59 59 60 59 58

GFSSGP_sfc_temp_117.txt.gz
Temp
72 76 74 73 61 55 50 59 67 68 73 79 80 81 79 74 74 65 75 80 79 76 77 78 79 79 79 79 78 78 78 78 78 78 78 78 78 79 79 78 79 80 80 80 80 80 80 80 80
73 79 73 65 54 47 52 63 66 70 75 83 81 79 78 74 78 74 75 79 80 77 76 77 79 79 79 78 78 78 78 78 78 78 78 78 78 79 79 78 79 80 80 80 80 80 80 80 80
77 76 65 58 49 49 53 63 68 74 81 82 79 82 79 75 79 77 78 79 78 76 76 77 78 78 79 78 78 78 78 78 78 78 78 78 78 78 78 78 79 80 80 80 80 80 80 79 79
72 69 63 54 51 58 62 67 71 73 80 82 80 76 83 85 82 80 80 79 76 75 76 78 78 78 79 78 78 78 78 78 78 78 78 78 78 78 77 78 78 79 80 80 80 79 79 79 79
67 61 53 47 54 63 70 72 71 72 76 76 81 75 75 80 82 79 78 79 75 74 75 77 78 78 79 79 78 78 78 78 78 78 78 78 78 77 77 78 78 79 80 80 80 79 78 78 78
61 58 49 47 56 68 70 72 70 71 76 76 77 76 73 80 78 78 80 77 78 75 75 76 78 78 78 78 78 78 78 77 78 78 78 78 77 77 77 78 78 78 79 79 79 78 78 77 77
58 53 50 52 59 61 69 73 70 71 73 76 80 73 73 77 80 80 80 78 77 76 75 75 76 77 78 78 78 77 77 77 77 77 77 77 77 77 77 77 78 78 78 78 78 77 77 77 77
66 56 48 54 57 60 73 71 68 69 75 83 83 72 69 77 82 81 79 76 74 75 76 75 75 76 75 76 78 78 77 77 77 77 77 77 77 77 77 76 77 77 77 77 77 77 77 76 76
71 51 49 55 58 63 68 67 74 79 74 78 80 78 82 82 82 77 75 74 72 74 73 74 74 75 75 75 76 77 78 78 77 77 77 75 73 73 74 75 76 77 77 77 77 76 76 76 76
61 49 56 66 68 67 69 65 69 73 74 74 76 82 82 82 80 75 74 74 74 73 72 73 74 75 75 77 75 75 75 75 74 74 74 73 71 71 74 75 77 77 77 77 77 76 76 76 71
61 56 64 69 72 70 65 68 70 70 65 70 71 75 80 75 74 74 75 76 75 77 75 73 73 73 74 76 75 76 77 75 75 74 73 71 72 71 72 70 72 71 75 72 74 72 70 69 69
54 64 67 69 73 69 70 73 71 68 72 78 77 76 75 77 71 72 72 73 74 74 76 74 73 72 73 75 74 76 76 76 76 76 73 71 70 69 69 69 68 68 69 69 68 67 68 69 70
53 62 67 70 70 67 69 67 69 69 77 78 78 76 74 73 76 72 74 74 77 73 74 73 74 73 73 71 73 73 75 76 76 76 73 73 71 69 70 69 68 69 69 68 67 67 68 67 68
61 62 65 66 66 64 64 68 67 73 77 77 76 76 74 74 75 72 71 71 71 76 75 74 74 73 74 73 71 71 72 73 73 74 73 73 73 72 71 70 71 70 69 68 67 66 66 65 66
62 55 61 63 66 65 67 62 64 75 76 74 73 73 74 75 75 76 73 71 70 72 75 74 75 73 72 71 73 72 73 73 73 73 73 73 73 71 70 69 69 70 67 68 67 66 66 65 67
55 54 47 60 64 68 67 56 68 73 71 69 72 73 73 73 76 75 75 71 70 70 72 75 78 74 70 71 72 74 74 72 73 71 71 73 73 72 69 68 69 69 67 67 66 65 65 67 65
51 45 49 57 63 63 60 55 67 70 69 68 69 70 71 71 72 73 74 70 71 71 70 71 72 70 69 71 73 72 72 71 73 68 67 69 71 73 71 71 72 68 67 68 69 66 68 66 68
47 47 51 52 59 60 57 57 62 67 65 66 67 67 68 69 71 75 74 73 69 69 69 69 70 69 68 67 67 69 71 71 70 67 67 69 69 71 71 72 68 67 67 70 66 69 67 70 71
54 51 50 56 61 56 56 55 61 64 62 61 62 65 65 66 72 72 72 69 67 66 67 67 67 69 69 65 65 66 68 70 71 71 71 70 70 71 71 70 71 67 67 69 69 68 68 69 65
53 49 49 55 60 56 55 55 59 62 62 61 63 63 64 64 68 71 69 66 65 67 67 66 67 66 65 65 68 69 69 69 70 69 70 71 71 70 70 70 70 70 68 67 68 66 66 67 67
51 48 49 51 57 55 53 49 54 61 62 64 64 63 64 65 65 67 68 65 63 64 63 64 65 65 65 64 62 62 63 63 63 64 65 67 69 71 70 70 69 69 69 67 66 66 66 65 66
46 57 58 54 49 42 52 38 47 54 57 60 63 63 63 63 65 67 66 62 62 62 63 64 64 63 63 62 62 62 60 59 60 61 63 64 68 69 70 69 68 68 67 65 68 67 65 67 67
53 59 55 54 47 42 44 39 45 51 55 57 60 62 62 62 62 63 62 63 60 62 61 61 62 62 62 62 62 61 59 59 59 60 61 61 63 67 68 67 66 66 65 65 65 66 67 68 65
61 54 49 44 41 35 42 42 39 48 51 56 60 59 59 57 57 58 59 61 59 59 60 60 61 60 61 62 62 62 62 61 60 60 60 59 59 61 64 66 65 63 62 62 64 64 63 64 64
53 43 34 32 32 33 44 40 43 51 56 56 56 57 58 58 60 60 60 59 60 59 60 61 62 60 60 61 61 61 61 60 60 59 58 58 58 59 61 62 63 63 63 62 62 62 62 63 64
46 43 35 29 29 34 43 37 45 54 56 58 59 56 58 57 56 58 59 59 60 59 60 61 60 60 59 60 61 60 60 59 58 58 57 57 58 59 61 61 62 63 64 64 64 64 64 63 63
48 40 44 36 34 31 36 43 51 53 54 55 56 56 54 55 56 58 59 58 59 59 60 60 60 60 60 60 60 60 60 58 58 58 57 57 58 61 61 60 60 61 62 62 63 63 63 63 64
50 51 39 35 28 25 32 37 40 46 49 53 54 53 55 57 56 58 59 60 62 60 61 61 61 63 62 61 60 60 59 59 59 57 56 56 57 58 59 60 59 59 60 60 60 60 62 63 63
42 39 40 37 34 26 26 33 46 46 47 50 53 57 60 61 63 62 62 61 61 60 61 61 62 62 62 60 58 58 58 59 58 56 57 57 56 57 58 60 59 58 58 58 57 58 59 60 60
44 40 38 28 30 35 36 34 50 49 49 50 53 55 55 57 59 60 63 62 59 56 59 58 58 58 56 57 57 55 55 56 55 56 56 56 56 56 58 58 58 58 59 57 56 57 59 59 59

GFSSGP_sfc_temp_120.txt.gz
Temp
71 73 72 72 61 54 48 58 64 67 71 75 77 76 73 75 73 64 73 78 77 76 76 79 79 79 79 79 79 78 78 78 78 79 79 79 79 79 79 79 79 80 80 80 80 80 80 80 80
71 76 72 63 54 47 51 61 65 67 73 77 77 76 75 72 76 72 73 77 78 76 76 76 79 79 79 79 78 78 78 78 78 78 78 78 78 79 79 78 79 80 80 80 80 80 80 80 80
74 73 65 57 48 48 52 62 64 71 75 74 75 80 77 75 76 74 77 78 77 75 75 76 78 78 79 78 78 78 78 78 78 78 78 78 78 78 78 78 79 80 80 80 80 80 80 80 80
70 68 62 54 49 56 60 62 66 71 77 77 77 74 79 81 78 80 78 78 76 74 75 78 78 78 79 78 78 78 78 78 78 79 78 78 78 78 77 78 78 79 80 80 80 79 79 79 79
64 60 52 47 51 59 67 68 67 68 71 73 77 73 73 79 79 78 77 79 74 73 74 77 78 78 79 79 78 78 78 78 78 78 78 78 78 77 77 78 78 79 80 80 80 79 78 78 78
60 57 48 48 52 65 66 68 67 66 71 76 73 73 73 76 75 76 78 76 77 74 74 75 78 78 78 78 78 78 77 77 78 78 78 78 77 77 77 77 78 78 79 79 79 78 77 77 77
57 53 48 49 53 58 66 68 65 66 67 72 77 70 70 73 76 77 76 75 75 75 75 75 75 77 78 78 77 77 77 77 77 77 77 77 77 77 77 77 77 78 78 78 78 77 77 77 77
59 55 48 50 54 55 68 69 66 65 72 80 81 70 69 73 77 76 75 73 73 73 74 73 74 75 75 76 78 77 77 77 77 77 77 77 77 77 77 76 77 77 77 77 77 77 77 77 76
67 51 47 52 57 58 66 65 71 74 72 75 76 74 78 77 77 73 71 71 71 73 72 73 73 73 73 74 76 77 78 77 77 77 77 76 74 74 75 76 76 77 77 77 77 77 76 76 76
62 49 55 63 63 60 68 66 67 70 70 71 73 77 78 77 75 72 71 70 71 71 71 72 73 73 73 77 74 74 75 75 75 75 74 73 73 72 75 75 77 77 77 77 77 77 76 77 73
57 54 64 68 70 64 63 67 70 66 66 69 69 73 75 74 73 72 73 73 73 73 73 73 73 73 73 74 74 74 74 74 74 73 73 72 73 72 73 72 73 73 75 73 74 74 73 72 72
57 63 66 69 71 68 65 67 67 67 70 74 73 74 73 72 71 71 72 72 73 72 72 72 73 74 74 73 75 74 75 77 76 75 73 72 71 70 71 71 71 71 71 71 71 71 71 70 71
57 63 66 69 68 67 67 64 65 66 73 75 74 75 72 70 70 70 72 73 72 72 72 72 72 72 73 72 74 72 73 76 74 76 76 73 71 70 70 71 70 70 71 70 70 70 70 70 70
61 63 65 64 65 64 63 66 66 69 74 74 73 72 72 71 73 68 69 69 69 73 72 73 73 73 72 72 72 72 73 76 73 76 76 75 71 70 70 70 71 70 71 71 71 70 69 69 69
61 57 60 62 64 64 66 63 61 73 73 72 71 72 71 71 70 73 73 70 70 71 73 72 73 72 71 72 72 71 72 73 74 75 75 74 72 71 71 71 70 71 70 70 70 69 69 68 69
55 54 48 59 64 66 67 55 68 71 68 68 69 69 70 70 72 71 70 69 69 68 70 70 76 72 71 72 72 73 72 72 73 72 72 73 73 72 71 70 70 71 70 69 69 68 68 68 68
50 43 48 56 63 62 58 52 64 66 64 64 65 66 68 68 69 69 71 70 69 70 68 68 72 71 70 70 71 71 71 72 71 70 70 72 72 73 72 71 72 70 69 69 69 68 68 69 69
45 45 50 52 57 56 51 54 61 62 62 63 64 64 64 67 69 72 70 68 67 67 67 68 69 69 70 69 70 70 70 69 69 68 69 70 70 72 72 71 70 69 68 68 68 67 67 68 71
53 50 49 54 59 54 53 53 59 62 60 62 64 61 62 65 70 68 68 68 66 64 66 67 67 66 68 66 66 66 70 70 70 69 70 70 70 71 70 70 70 68 67 69 69 68 68 69 66
51 47 48 53 57 54 53 54 57 60 60 61 62 62 61 62 65 67 64 65 64 65 66 66 68 66 70 71 67 67 68 69 70 71 71 72 71 70 70 69 69 70 68 68 68 67 66 66 66
48 46 48 50 54 54 52 48 51 59 59 61 60 61 62 63 64 65 66 65 63 63 63 66 67 66 66 64 65 64 64 64 64 65 66 68 70 71 70 70 69 69 69 68 68 68 67 65 66
43 54 55 52 47 41 49 37 46 52 56 58 60 58 58 59 60 62 64 62 62 64 62 63 62 63 64 63 63 63 62 61 61 62 64 65 68 69 69 69 69 68 68 68 68 69 67 66 66
51 56 52 51 46 41 42 39 45 48 52 54 57 57 57 56 55 56 57 59 60 61 60 61 61 62 62 62 61 61 60 61 61 62 63 64 65 66 68 68 68 67 67 66 66 67 67 65 64
58 52 48 43 40 33 40 41 39 46 48 53 55 54 55 56 56 57 57 57 57 57 58 59 60 60 61 62 62 62 62 61 61 61 61 61 62 64 66 68 66 66 65 65 65 65 65 66 66
50 42 33 32 32 32 41 39 42 48 52 52 51 53 54 54 54 55 56 57 58 58 59 61 61 59 60 61 62 63 63 62 62 61 60 60 60 61 62 64 64 64 65 65 64 63 63 64 64
43 43 34 29 29 33 41 36 43 51 53 54 55 53 55 55 54 56 56 56 57 59 59 60 60 59 60 61 61 60 60 60 60 60 59 60 60 61 62 63 63 64 65 65 64 63 64 64 63
44 38 41 34 33 30 35 41 48 50 51 53 54 56 55 54 55 57 59 58 57 58 58 59 60 61 61 60 59 58 58 58 58 59 59 59 60 62 62 62 62 62 63 64 64 63 62 63 64
47 49 37 33 26 25 31 34 38 45 46 50 51 52 54 56 57 58 60 61 59 59 58 58 58 59 60 60 59 59 59 59 59 58 58 58 59 60 61 60 60 61 61 62 61 60 61 61 62
43 38 37 36 32 26 26 32 44 45 48 48 49 52 52 55 59 60 61 61 61 59 59 57 57 57 58 57 57 57 57 58 58 58 57 57 57 58 59 61 60 60 60 59 58 58 60 60 61
42 38 37 28 30 32 35 32 48 47 47 49 49 52 54 54 56 55 54 55 55 56 56 58 58 58 57 59 57 58 57 57 56 55 56 56 56 57 58 59 60 60 60 59 58 59 61 60 60

GFSSGP_sfc_temp_123.txt.gz
Temp
82 87 88 86 75 75 69 72 75 78 82 87 89 83 85 86 84 80 83 87 88 87 85 83 79 79 79 79 79 79 79 79 79 79 79 79 79 79 79 79 79 80 81 81 81 80 80 80 80
85 86 87 82 71 66 70 74 74 80 86 88 88 87 86 83 84 80 83 86 88 86 85 85 79 79 79 79 79 78 79 79 79 79 79 79 79 79 79 79 79 80 80 81 81 80 80 80 80
85 83 81 77 70 67 70 74 78 83 87 84 85 89 86 83 83 85 88 87 88 86 86 84 79 79 79 79 79 78 78 78 79 79 79 79 79 78 78 79 79 80 80 81 81 80 80 80 80
84 85 79 70 67 71 73 77 79 83 87 88 87 84 88 87 86 88 88 88 87 88 87 81 78 78 79 79 78 78 78 78 79 79 78 78 78 78 78 78 79 79 80 81 80 80 79 79 79
82 78 70 66 68 71 76 79 81 82 83 86 85 83 83 85 86 87 86 87 88 87 88 86 78 78 79 79 78 78 78 78 78 78 78 78 78 78 78 78 79 79 80 80 80 79 79 79 78
78 75 65 63 66 72 77 81 82 82 84 86 85 83 85 84 85 86 88 87 89 86 86 86 79 78 78 78 78 78 78 78 78 78 78 78 78 78 78 78 79 79 79 79 79 79 78 77 77
72 70 65 64 66 70 76 82 81 81 82 85 87 83 84 83 85 86 87 87 88 87 86 85 86 82 78 78 78 77 77 77 77 77 77 77 77 77 78 78 78 78 78 78 78 78 78 77 77
75 71 62 65 67 69 77 81 82 81 83 89 88 83 84 84 84 85 86 87 87 87 88 86 85 87 86 85 78 77 77 77 77 77 77 77 77 77 77 77 77 78 78 78 78 78 77 77 77
73 66 62 66 66 72 78 78 84 85 83 86 86 86 86 85 84 84 83 84 86 86 86 87 87 86 86 87 84 78 78 78 77 78 77 78 86 85 84 81 77 78 78 78 77 77 77 77 77
70 63 65 72 74 75 77 77 78 81 82 83 83 83 83 84 84 83 83 84 84 85 85 86 85 85 85 86 85 85 85 86 85 85 83 85 85 84 85 82 77 77 77 77 77 77 77 78 87
70 63 70 71 76 77 77 77 80 78 78 82 82 81 82 83 83 85 86 87 87 87 86 85 83 83 84 87 85 85 86 85 84 83 83 83 84 84 85 85 85 84 80 86 84 84 86 85 85
60 70 68 72 76 76 75 78 77 78 81 85 85 86 84 82 83 86 86 87 86 85 85 85 84 82 82 86 85 85 85 85 84 84 82 82 82 82 82 84 85 83 85 84 83 86 83 82 82
55 66 68 73 75 76 77 75 76 78 84 87 85 85 86 85 85 86 88 89 88 85 86 84 83 81 81 81 84 84 84 84 84 84 83 83 83 81 83 83 84 84 85 84 83 81 82 82 82
68 69 68 72 73 75 72 75 74 80 84 84 83 84 87 85 86 85 83 84 84 85 85 86 83 81 82 81 81 81 83 84 83 83 84 80 81 81 82 82 82 83 84 84 83 83 82 82 82
69 64 67 68 72 72 74 69 70 79 82 81 82 83 83 84 86 86 88 84 84 85 86 84 82 83 80 81 81 82 83 84 83 83 82 81 77 78 79 82 82 83 83 81 82 81 81 81 82
64 64 60 68 68 73 73 64 74 77 77 79 80 83 83 85 85 87 87 84 84 83 81 83 84 83 79 80 81 83 83 83 81 82 81 81 76 78 79 82 78 83 82 82 82 82 81 81 81
59 55 57 64 69 69 68 64 74 77 76 77 79 81 81 84 84 83 84 85 84 82 83 82 81 83 80 79 81 81 81 81 82 80 81 80 81 81 81 83 81 80 81 81 81 81 80 81 81
55 54 57 60 65 68 66 68 73 75 75 76 77 79 77 78 80 85 83 82 82 81 81 81 81 81 79 80 78 79 80 81 83 81 81 80 81 82 81 82 81 80 81 80 80 78 80 80 81
62 59 58 61 67 66 65 66 72 71 74 76 76 73 73 75 80 81 81 81 80 78 78 79 78 78 78 78 77 78 79 80 80 81 80 80 80 81 80 81 80 80 78 79 78 79 77 79 77
60 57 57 61 64 64 65 65 69 72 72 74 74 75 74 77 79 79 79 80 78 78 77 78 79 78 77 80 79 81 81 81 82 82 80 80 79 80 79 78 79 79 79 77 77 75 77 77 79
58 57 57 58 61 64 61 61 64 70 70 72 73 72 72 70 71 72 74 75 79 78 78 77 78 78 77 79 78 76 77 78 78 78 77 79 79 80 79 79 78 78 76 76 75 74 73 74 77
54 62 62 59 57 53 60 52 59 65 68 69 69 69 69 69 70 71 71 72 72 73 77 77 77 75 75 75 77 76 78 76 78 77 73 76 78 79 79 79 79 77 78 74 74 77 74 72 72
60 63 61 59 55 55 55 54 59 60 64 65 65 66 67 68 68 69 70 69 72 71 72 74 73 74 73 74 75 75 73 71 75 75 74 75 75 77 79 78 77 76 79 76 75 75 74 76 73
64 60 57 55 55 48 55 55 56 60 60 63 63 65 66 68 70 71 71 72 72 74 73 73 72 72 74 74 73 73 72 73 75 75 75 76 77 77 77 78 77 77 77 76 77 74 73 73 74
61 57 49 47 47 47 51 52 58 58 59 62 63 65 68 70 71 72 71 72 71 71 72 74 73 71 73 74 74 75 75 74 74 74 76 75 76 76 74 75 75 77 75 75 75 74 73 73 73
58 58 50 39 42 49 50 49 55 60 62 64 65 66 69 70 72 73 73 73 73 72 72 73 73 71 72 73 72 72 72 77 77 76 77 78 78 77 75 75 75 75 75 75 74 75 75 73 71
55 54 56 48 45 47 53 53 57 60 60 63 65 66 67 69 70 72 74 75 74 74 72 73 73 73 73 73 72 72 72 71 73 71 71 75 74 76 74 74 74 74 74 74 73 74 72 72 71
59 59 50 51 38 38 47 48 55 54 57 60 62 63 65 68 71 72 73 73 74 71 70 69 70 69 69 70 70 71 69 70 70 70 69 70 71 71 72 72 72 72 73 73 72 73 72 70 72
55 54 51 52 50 42 42 50 57 59 60 59 61 64 65 67 69 70 70 70 70 70 70 68 68 69 68 68 68 68 68 69 69 68 69 68 68 69 69 70 71 70 70 71 70 70 71 70 70
55 52 53 44 43 45 44 47 59 61 61 60 62 63 66 66 66 66 66 67 68 67 68 67 66 68 68 68 68 67 67 67 66 66 68 67 67 68 68 69 69 69 70 69 68 69 71 70 69